[[{"header":{"parameterUnit":"m.s-1","parameterCategory":1,"la1":30.6,"la2":28.766,"lo1":-90.7593,"lo2":-88.6598,"dy":0.0162,"dx":0.0183,"nx":116,"ny":114,"refTime":"2024-05-30T06:00:00:Z","depth":0,"parameterNumber":2,"parameterNumberName":"U-component_of_WINDS"},"data":[0.0,0.0,0.0,0.0,0.0,0.0,0.0,0.0,0.0,0.0,0.0,0.0,0.0,0.0,0.0,0.0,0.0,0.0,0.0,0.0,0.0,0.0,0.0,0.0,0.0,0.0,0.0,0.0,0.0,0.0,0.0,0.0,0.0,0.0,0.0,0.0,0.0,0.0,0.0,0.0,0.0,0.0,0.0,0.0,0.0,0.0,0.0,0.0,0.0,0.0,0.0,0.0,0.0,0.0,0.0,0.0,0.0,0.0,0.0,0.0,0.0,0.0,0.0,0.0,0.0,0.0,0.0,0.0,0.0,0.0,0.0,0.0,0.0,0.0,0.0,0.0,0.0,0.0,0.0,0.0,0.0,0.0,0.0,0.0,0.0,0.0,0.0,0.0,0.0,0.0,0.0,0.0,0.0,0.0,0.0,0.0,0.0,0.0,0.0,0.0,0.0,0.0,0.0,0.0,0.0,0.0,0.0,0.0,0.0,0.0,0.0,0.0,0.0,0.0,0.0,0.0,0.0,0.0,0.0,0.0,0.0,0.0,0.0,0.0,0.0,0.0,0.0,0.0,0.0,0.0,0.0,0.0,0.0,0.0,0.0,0.0,0.0,0.0,0.0,0.0,0.0,0.0,0.0,0.0,0.0,0.0,0.0,0.0,0.0,0.0,0.0,0.0,0.0,0.0,0.0,0.0,0.0,0.0,0.0,0.0,0.0,0.0,0.0,0.0,0.0,0.0,0.0,0.0,0.0,0.0,0.0,0.0,0.0,0.0,0.0,0.0,0.0,0.0,0.0,0.0,0.0,0.0,0.0,0.0,0.0,0.0,0.0,0.0,0.0,0.0,0.0,0.0,0.0,0.0,0.0,0.0,0.0,0.0,0.0,0.0,0.0,0.0,0.0,0.0,0.0,0.0,0.0,0.0,0.0,0.0,0.0,0.0,0.0,0.0,0.0,0.0,0.0,0.0,0.0,0.0,0.0,0.0,0.0,0.0,0.0,0.0,0.0,0.0,0.0,0.0,0.0,0.0,0.0,0.0,0.0,0.0,0.0,0.0,0.0,0.0,0.0,0.0,0.0,0.0,0.0,0.0,0.0,0.0,0.0,0.0,0.0,0.0,0.0,0.0,0.0,0.0,0.0,0.0,0.0,0.0,0.0,0.0,0.0,0.0,0.0,0.0,0.0,0.0,0.0,0.0,0.0,0.0,0.0,0.0,0.0,0.0,0.0,0.0,0.0,0.0,0.0,0.0,0.0,0.0,0.0,0.0,0.0,0.0,0.0,0.0,0.0,0.0,0.0,0.0,0.0,0.0,0.0,0.0,0.0,0.0,0.0,0.0,0.0,0.0,0.0,0.0,0.0,0.0,0.0,0.0,0.0,0.0,0.0,0.0,0.0,0.0,0.0,0.0,0.0,0.0,0.0,0.0,0.0,0.0,0.0,0.0,0.0,0.0,0.0,0.0,0.0,0.0,0.0,0.0,0.0,0.0,0.0,0.0,0.0,0.0,0.0,0.0,0.0,0.0,0.0,0.0,0.0,0.0,0.0,0.0,0.0,0.0,0.0,0.0,0.0,0.0,0.0,0.0,0.0,0.0,0.0,0.0,0.0,0.0,0.0,0.0,0.0,0.0,0.0,0.0,0.0,0.0,0.0,0.0,0.0,0.0,0.0,0.0,0.0,0.0,0.0,0.0,0.0,0.0,0.0,0.0,0.0,0.0,0.0,0.0,0.0,0.0,0.0,0.0,0.0,0.0,0.0,0.0,0.0,0.0,0.0,0.0,0.0,0.0,0.0,0.0,0.0,0.0,0.0,0.0,0.0,0.0,0.0,0.0,0.0,0.0,0.0,0.0,0.0,0.0,0.0,0.0,0.0,0.0,0.0,0.0,0.0,0.0,0.0,0.0,0.0,0.0,0.0,0.0,0.0,0.0,0.0,0.0,0.0,0.0,0.0,0.0,0.0,0.0,0.0,0.0,0.0,0.0,0.0,0.0,0.0,0.0,0.0,0.0,0.0,0.0,0.0,0.0,0.0,0.0,0.0,0.0,0.0,0.0,0.0,0.0,0.0,0.0,0.0,0.0,0.0,0.0,0.0,0.0,0.0,0.0,0.0,0.0,0.0,0.0,0.0,0.0,0.0,0.0,0.0,0.0,0.0,0.0,0.0,0.0,0.0,0.0,0.0,0.0,0.0,0.0,0.0,0.0,0.0,0.0,0.0,0.0,0.0,0.0,0.0,0.0,0.0,0.0,0.0,0.0,0.0,0.0,0.0,0.0,0.0,0.0,0.0,0.0,0.0,0.0,0.0,0.0,0.0,0.0,0.0,0.0,0.0,0.0,0.0,0.0,0.0,0.0,0.0,0.0,0.0,0.0,0.0,0.0,0.0,0.0,0.0,0.0,0.0,0.0,0.0,0.0,0.0,0.0,0.0,0.0,0.0,0.0,0.0,0.0,0.0,0.0,0.0,0.0,0.0,0.0,0.0,0.0,0.0,0.0,0.0,0.0,0.0,0.0,0.0,0.0,0.0,0.0,0.0,0.0,0.0,0.0,0.0,0.0,0.0,0.0,0.0,0.0,0.0,0.0,0.0,0.0,0.0,0.0,0.0,0.0,0.0,0.0,0.0,0.0,0.0,0.0,0.0,0.0,0.0,0.0,0.0,0.0,0.0,0.0,0.0,0.0,0.0,0.0,0.0,0.0,0.0,0.0,0.0,0.0,0.0,0.0,0.0,0.0,0.0,0.0,0.0,0.0,0.0,0.0,0.0,0.0,0.0,0.0,0.0,0.0,0.0,0.0,0.0,0.0,0.0,0.0,0.0,0.0,0.0,0.0,0.0,0.0,0.0,0.0,0.0,0.0,0.0,0.0,0.0,0.0,0.0,0.0,0.0,0.0,0.0,0.0,0.0,0.0,0.0,0.0,0.0,0.0,0.0,0.0,0.0,0.0,0.0,0.0,0.0,0.0,0.0,0.0,0.0,0.0,0.0,0.0,0.0,0.0,0.0,0.0,0.0,0.0,0.0,0.0,0.0,0.0,0.0,0.0,0.0,0.0,0.0,0.0,0.0,0.0,0.0,0.0,0.0,0.0,0.0,0.0,0.0,0.0,0.0,0.0,0.0,0.0,0.0,0.0,0.0,0.0,0.0,0.0,0.0,0.0,0.0,0.0,0.0,0.0,0.0,0.0,0.0,0.0,0.0,0.0,0.0,0.0,0.0,0.0,0.0,0.0,0.0,0.0,0.0,0.0,0.0,0.0,0.0,0.0,0.0,0.0,0.0,0.0,0.0,0.0,0.0,0.0,0.0,0.0,0.0,0.0,0.0,0.0,0.0,0.0,0.0,0.0,0.0,0.0,0.0,0.0,0.0,0.0,0.0,0.0,0.0,0.0,0.0,0.0,0.0,0.0,0.0,0.0,0.0,0.0,0.0,0.0,0.0,0.0,0.0,0.0,0.0,0.0,0.0,0.0,0.0,0.0,0.0,0.0,0.0,0.0,0.0,0.0,0.0,0.0,0.0,0.0,0.0,0.0,0.0,0.0,0.0,0.0,0.0,0.0,0.0,0.0,0.0,0.0,0.0,0.0,0.0,0.0,0.0,0.0,0.0,0.0,0.0,0.0,0.0,0.0,0.0,0.0,0.0,0.0,0.0,0.0,0.0,0.0,0.0,0.0,0.0,0.0,0.0,0.0,0.0,0.0,0.0,0.0,0.0,0.0,0.0,0.0,0.0,0.0,0.0,0.0,0.0,0.0,0.0,0.0,0.0,0.0,0.0,0.0,0.0,0.0,0.0,0.0,0.0,0.0,0.0,0.0,0.0,0.0,0.0,0.0,0.0,0.0,0.0,0.0,0.0,0.0,0.0,0.0,0.0,0.0,0.0,0.0,0.0,0.0,0.0,0.0,0.0,0.0,0.0,0.0,0.0,0.0,0.0,0.0,0.0,0.0,0.0,0.0,0.0,0.0,0.0,0.0,0.0,0.0,0.0,0.0,0.0,0.0,0.0,0.0,0.0,0.0,0.0,0.0,0.0,0.0,0.0,0.0,0.0,0.0,0.0,0.0,0.0,0.0,0.0,0.0,0.0,0.0,0.0,0.0,0.0,0.0,0.0,0.0,0.0,0.0,0.0,0.0,0.0,0.0,0.0,0.0,0.0,0.0,0.0,0.0,0.0,0.0,0.0,0.0,0.0,0.0,0.0,0.0,0.0,0.0,0.0,0.0,0.0,0.0,0.0,0.0,0.0,0.0,0.0,0.0,0.0,0.0,0.0,0.0,0.0,0.0,0.0,0.0,0.0,0.0,0.0,0.0,0.0,0.0,0.0,0.0,0.0,0.0,0.0,0.0,0.0,0.0,0.0,0.0,0.0,0.0,0.0,0.0,0.0,0.0,0.0,0.0,0.0,0.0,0.0,0.0,0.0,0.0,0.0,0.0,0.0,0.0,0.0,0.0,0.0,0.0,0.0,0.0,0.0,0.0,0.0,0.0,0.0,0.0,0.0,0.0,0.0,0.0,0.0,0.0,0.0,0.0,0.0,0.0,0.0,0.0,0.0,0.0,0.0,0.0,0.0,0.0,0.0,0.0,0.0,0.0,0.0,0.0,0.0,0.0,0.0,0.0,0.0,0.0,0.0,0.0,0.0,0.0,0.0,0.0,0.0,0.0,0.0,0.0,0.0,0.0,0.0,0.0,0.0,0.0,0.0,0.0,0.0,0.0,0.0,0.0,0.0,0.0,0.0,0.0,0.0,0.0,0.0,0.0,0.0,0.0,0.0,0.0,0.0,0.0,0.0,0.0,0.0,0.0,0.0,0.0,0.0,0.0,0.0,0.0,0.0,0.0,0.0,0.0,0.0,0.0,0.0,0.0,0.0,0.0,0.0,0.0,0.0,0.0,0.0,0.0,0.0,0.0,0.0,0.0,0.0,0.0,0.0,0.0,0.0,0.0,0.0,0.0,0.0,0.0,0.0,0.0,0.0,0.0,0.0,0.0,0.0,0.0,0.0,0.0,0.0,0.0,0.0,0.0,0.0,0.0,0.0,0.0,0.0,0.0,0.0,0.0,0.0,0.0,0.0,0.0,0.0,0.0,0.0,0.0,0.0,0.0,0.0,0.0,0.0,0.0,0.0,0.0,0.0,0.0,0.0,0.0,0.0,0.0,0.0,0.0,0.0,0.0,0.0,0.0,0.0,0.0,0.0,0.0,0.0,0.0,0.0,0.0,0.0,0.0,0.0,0.0,0.0,0.0,0.0,0.0,0.0,0.0,0.0,0.0,0.0,0.0,0.0,0.0,0.0,0.0,0.0,0.0,0.0,0.0,0.0,0.0,0.0,0.0,0.0,0.0,0.0,0.0,0.0,0.0,0.0,0.0,0.0,0.0,0.0,0.0,0.0,0.0,0.0,0.0,0.0,0.0,0.0,0.0,0.0,0.0,0.0,0.0,0.0,0.0,0.0,0.0,0.0,0.0,0.0,0.0,0.0,0.0,0.0,0.0,0.0,0.0,0.0,0.0,0.0,0.0,0.0,0.0,0.0,0.0,0.0,0.0,0.0,0.0,0.0,0.0,0.0,0.0,0.0,0.0,0.0,0.0,0.0,0.0,0.0,0.0,0.0,0.0,0.0,0.0,0.0,0.0,0.0,0.0,0.0,0.0,0.0,0.0,0.0,0.0,0.0,0.0,0.0,0.0,0.0,0.0,0.0,0.0,0.0,0.0,0.0,0.0,0.0,0.0,0.0,0.0,0.0,0.0,0.0,0.0,0.0,0.0,0.0,0.0,0.0,0.0,0.0,0.0,0.0,0.0,0.0,0.0,0.0,0.0,0.0,0.0,0.0,0.0,0.0,0.0,0.0,0.0,0.0,0.0,0.0,0.0,0.0,0.0,0.0,0.0,0.0,0.0,0.0,0.0,0.0,0.0,0.0,0.0,0.0,0.0,0.0,0.0,0.0,0.0,0.0,0.0,0.0,0.0,0.0,0.0,0.0,0.0,0.0,0.0,0.0,0.0,0.0,0.0,0.0,0.0,0.0,0.0,0.0,0.0,0.0,0.0,0.0,0.0,0.0,0.0,0.0,0.0,0.0,0.0,0.0,0.0,0.0,0.0,-3.3279,-3.1744,0.0,0.0,0.0,0.0,0.0,0.0,0.0,0.0,0.0,0.0,0.0,0.0,0.0,0.0,0.0,0.0,0.0,0.0,0.0,0.0,0.0,0.0,0.0,-1.657,-1.6519,-1.8062,-1.82,-1.82,-1.82,0.0,0.0,0.0,0.0,0.0,-1.982,-1.951,-1.9499,-1.9826,-1.9476,-1.9476,-1.982,-1.9372,-1.8569,-1.7552,0.0,0.0,0.0,0.0,0.0,0.0,0.0,0.0,0.0,0.0,0.0,0.0,0.0,0.0,0.0,0.0,0.0,0.0,0.0,0.0,0.0,0.0,0.0,0.0,0.0,0.0,0.0,0.0,0.0,0.0,0.0,0.0,0.0,0.0,0.0,0.0,0.0,0.0,0.0,0.0,0.0,0.0,0.0,0.0,0.0,0.0,0.0,0.0,0.0,0.0,0.0,0.0,0.0,0.0,0.0,0.0,0.0,0.0,0.0,0.0,0.0,0.0,0.0,0.0,0.0,0.0,0.0,0.0,0.0,0.0,-3.6204,-3.4589,0.0,0.0,0.0,0.0,0.0,0.0,0.0,0.0,0.0,0.0,0.0,0.0,0.0,0.0,0.0,0.0,0.0,0.0,0.0,0.0,0.0,-1.5857,-1.8131,-1.7149,-1.6915,-1.8459,-1.8579,-1.8528,-1.8407,-1.8959,0.0,0.0,0.0,-1.9838,-2.0584,-1.9545,-1.9671,-2.1077,-2.0731,-2.1278,-2.2608,-2.3229,-2.2492,-2.0665,-2.013,0.0,0.0,0.0,0.0,0.0,0.0,0.0,0.0,0.0,0.0,0.0,0.0,0.0,0.0,0.0,0.0,0.0,0.0,0.0,0.0,0.0,0.0,0.0,0.0,0.0,0.0,0.0,0.0,0.0,0.0,0.0,0.0,0.0,0.0,0.0,0.0,0.0,0.0,0.0,0.0,0.0,0.0,0.0,0.0,0.0,0.0,0.0,0.0,0.0,0.0,0.0,0.0,0.0,0.0,0.0,0.0,0.0,0.0,0.0,0.0,0.0,0.0,0.0,-4.1778,-4.2639,-4.4139,-4.395,-4.3915,-4.3776,-3.9874,-3.8471,-3.8768,-3.6752,0.0,0.0,0.0,0.0,0.0,0.0,0.0,0.0,0.0,0.0,0.0,0.0,0.0,0.0,0.0,0.0,0.0,0.0,0.0,-1.6632,-1.8907,-1.8407,-1.8493,-1.9981,-2.0102,-1.9838,-1.92,-1.9252,0.0,-1.943,-1.9975,-2.063,-2.1423,-2.1871,-2.2651,-2.3786,-2.5037,-2.5952,-2.654,-2.6644,-2.6523,-2.6126,-2.344,-2.2612,-2.3129,0.0,0.0,0.0,0.0,0.0,0.0,0.0,0.0,0.0,0.0,0.0,0.0,0.0,0.0,0.0,0.0,0.0,0.0,0.0,0.0,0.0,0.0,0.0,0.0,0.0,0.0,0.0,0.0,0.0,0.0,0.0,0.0,0.0,0.0,0.0,0.0,0.0,0.0,0.0,0.0,0.0,-3.1282,-3.1472,0.0,0.0,0.0,0.0,0.0,0.0,0.0,0.0,0.0,0.0,0.0,0.0,0.0,-4.0739,-4.2275,-4.293,-4.3768,-4.4811,-4.5333,-4.6406,-4.7865,-4.6903,-4.7168,-4.8307,-4.7066,0.0,-4.0942,-3.9973,0.0,0.0,0.0,0.0,0.0,0.0,0.0,0.0,0.0,0.0,0.0,0.0,0.0,0.0,0.0,0.0,0.0,0.0,0.0,0.0,0.0,-1.8648,-1.8786,-2.0274,-2.0808,-2.0751,-1.9975,-2.0337,-2.0579,-2.0579,-2.0463,-2.1152,-2.2802,-2.2898,-2.3994,-2.6202,-2.801,-2.9,-2.923,-2.988,-3.0038,-2.9782,-2.8644,-2.7011,-2.4991,-2.3474,0.0,0.0,0.0,0.0,0.0,0.0,0.0,0.0,0.0,0.0,0.0,0.0,0.0,0.0,0.0,0.0,0.0,0.0,0.0,0.0,0.0,0.0,0.0,0.0,0.0,0.0,0.0,0.0,0.0,0.0,0.0,0.0,0.0,0.0,0.0,0.0,0.0,0.0,0.0,-3.1456,-3.3095,-3.3095,-3.3455,-3.3231,0.0,0.0,0.0,0.0,0.0,0.0,0.0,0.0,0.0,-4.3354,-4.3364,-4.4242,-4.6229,-4.6447,-4.7146,-4.8346,-4.8597,-4.9303,-5.033,-4.9854,-4.9937,-5.047,-5.0164,-4.8608,-4.6128,-4.4228,-4.2275,-4.0341,0.0,0.0,0.0,0.0,-3.8843,-3.9129,0.0,0.0,0.0,0.0,0.0,0.0,0.0,0.0,0.0,0.0,0.0,0.0,-1.943,-1.9441,-1.9872,-2.1152,-2.182,-2.1906,-2.1307,-2.1475,-2.1616,-2.166,-2.1106,-2.1574,-2.3275,-2.3955,-2.5706,-2.8609,-3.0573,-3.162,-3.174,-3.2582,-3.2773,-3.2405,-3.2701,-3.0871,-2.7471,-2.5904,-2.4715,-2.3681,0.0,0.0,0.0,0.0,0.0,0.0,0.0,0.0,0.0,0.0,0.0,0.0,0.0,0.0,0.0,0.0,0.0,0.0,0.0,0.0,0.0,0.0,0.0,0.0,0.0,0.0,0.0,0.0,0.0,0.0,0.0,0.0,0.0,0.0,0.0,0.0,0.0,-3.3578,-3.5183,-3.4993,-3.5977,-3.5973,0.0,0.0,0.0,0.0,0.0,0.0,-4.1423,-4.2881,-4.4647,-4.6721,-4.6653,-4.7495,-4.9392,-4.9244,-4.985,-5.1148,-5.1134,-5.1495,-5.2194,-5.2179,-5.21,-5.2004,-5.2004,-5.1498,-5.0439,-4.7785,-4.5575,-4.381,-4.2956,-4.2303,-4.1965,-4.3047,-4.3217,-4.325,0.0,0.0,0.0,0.0,0.0,0.0,0.0,0.0,0.0,0.0,0.0,-1.9481,-2.0257,-2.163,-2.2785,-2.356,-2.3681,-2.3681,-2.3629,-2.2354,-2.1685,-2.1873,-2.185,-2.1885,-2.1978,-2.5595,-2.8644,-3.1013,-3.2902,-3.4056,-3.4495,-3.4549,-3.438,-3.3992,-3.4012,-3.3078,-3.1403,-2.9868,-2.8385,-2.6851,-2.4525,0.0,0.0,0.0,0.0,0.0,0.0,0.0,0.0,0.0,0.0,0.0,0.0,0.0,0.0,0.0,0.0,0.0,0.0,0.0,0.0,0.0,0.0,0.0,0.0,0.0,0.0,0.0,0.0,0.0,0.0,0.0,0.0,0.0,0.0,0.0,0.0,0.0,0.0,-3.7409,-3.9272,0.0,0.0,0.0,0.0,-4.0567,-4.3354,-4.5397,-4.6217,-4.7544,-4.8953,-5.048,-5.0416,-5.0735,-5.1538,-5.1538,-5.1899,-5.2699,-5.2541,-5.2884,-5.3598,-5.3466,-5.3399,-5.3399,-5.3399,-5.2926,-5.2012,-4.9763,-4.8359,-4.7564,-4.6802,-4.6498,-4.6464,-4.6532,-4.6989,-4.7567,0.0,0.0,0.0,0.0,0.0,-1.4968,-1.6387,-1.6819,-1.7294,-1.8097,-1.8838,-1.9786,-2.1044,-2.2095,-2.3216,-2.4456,-2.5008,-2.5077,-2.4594,-2.4091,-2.3822,-2.39,-2.3397,-2.4252,-2.6663,-2.955,-3.192,-3.3717,-3.4938,-3.6025,-3.6888,-3.7101,-3.7441,-3.7823,-3.7521,-3.6544,-3.4958,-3.2171,-3.011,-2.8506,-2.6197,-2.437,0.0,0.0,0.0,0.0,0.0,0.0,0.0,0.0,0.0,0.0,0.0,0.0,0.0,0.0,0.0,0.0,0.0,0.0,0.0,0.0,0.0,0.0,0.0,0.0,0.0,0.0,0.0,0.0,0.0,0.0,0.0,0.0,0.0,0.0,0.0,0.0,0.0,-3.9721,-4.1705,0.0,-4.1291,-4.275,-4.3802,-4.3802,-4.6648,-4.8419,-4.8592,-5.0066,-5.1296,-5.2076,-5.2033,-5.2328,-5.2966,-5.2902,-5.299,-5.3244,-5.3178,-5.333,-5.3584,-5.3534,-5.3501,-5.3501,-5.3501,-5.3348,-5.301,-5.2232,-5.0879,-4.9289,-4.9018,-4.8629,-4.8274,-4.8748,-4.9086,-4.939,0.0,0.0,0.0,0.0,-1.4674,-1.5425,-1.6792,-1.7225,-1.769,-1.8476,-1.9458,-2.0561,-2.182,-2.3078,-2.425,-2.5267,-2.5818,-2.6023,-2.5781,-2.504,-2.4798,-2.5223,-2.5094,-2.6681,-3.0226,-3.2274,-3.4105,-3.5749,-3.6841,-3.7757,-3.8515,-3.8876,-3.9266,-3.9684,-3.9213,-3.8447,-3.7385,-3.5082,-3.2766,-3.0472,-2.8472,-2.704,-2.5904,0.0,0.0,0.0,0.0,0.0,0.0,0.0,0.0,0.0,0.0,0.0,0.0,0.0,0.0,0.0,0.0,0.0,0.0,0.0,0.0,0.0,0.0,0.0,0.0,0.0,0.0,0.0,0.0,0.0,0.0,0.0,0.0,0.0,0.0,-3.968,-4.1988,-4.29,-4.4669,-4.5676,-4.5331,-4.6517,-4.7392,-4.7521,-4.9769,-5.1042,-5.075,-5.2042,-5.2906,-5.3098,-5.305,-5.324,-5.3617,-5.3551,-5.3501,-5.3501,-5.3501,-5.3501,-5.3501,-5.3501,-5.3501,-5.3501,-5.3501,-5.3501,-5.3501,-5.3501,-5.2604,-5.1234,-5.1234,-5.0947,-5.0591,-5.1065,-5.1234,-5.1285,0.0,0.0,0.0,-1.4173,-1.509,-1.6006,-1.6895,-1.769,-1.8459,-1.9189,-2.063,-2.1888,-2.2647,-2.4749,-2.6111,-2.6128,-2.6111,-2.6437,-2.7263,-2.5109,-2.439,-2.5689,-2.6916,-2.9018,-3.2107,-3.3512,-3.5163,-3.7064,-3.8587,-3.9331,-3.9351,-3.9784,-3.9755,-3.9361,-3.889,-3.8669,-3.8651,-3.8651,-3.6473,-3.2955,-3.1438,-3.08,-3.0386,0.0,0.0,0.0,0.0,0.0,0.0,0.0,0.0,0.0,0.0,0.0,0.0,0.0,0.0,0.0,0.0,0.0,0.0,0.0,0.0,0.0,0.0,0.0,0.0,0.0,0.0,0.0,0.0,0.0,0.0,0.0,0.0,0.0,-4.0599,-4.223,-4.4359,-4.691,-4.8233,-4.9114,-4.9478,-5.0554,-5.1367,-5.1728,-5.28,-5.3283,-5.2853,-5.357,-5.3915,-5.37,-5.3584,-5.3501,-5.3501,-5.3501,-5.3501,-5.3501,-5.3501,-5.3501,-5.3501,-5.3501,-5.3501,-5.3501,-5.3501,-5.3501,-5.3501,-5.3501,-5.3501,-5.3501,-5.3501,-5.3501,-5.3501,-5.3501,-5.3501,-5.3399,0.0,0.0,-1.3567,-1.4934,-1.5539,-1.6291,-1.7656,-1.8062,-1.8459,-1.9189,-2.063,-2.2078,-2.3371,-2.5042,-2.6318,-2.6919,-2.6437,-2.6437,-2.7263,-2.5281,-2.4862,-2.6568,-2.9693,-3.2184,-3.3869,-3.5672,-3.7262,-3.8679,-3.9384,-4.0033,-4.0607,-4.0976,-4.1218,-4.139,-4.0906,-4.0407,-3.9883,-3.9546,-3.8474,-3.6853,-3.4783,-3.2972,-3.1282,0.0,0.0,0.0,0.0,0.0,0.0,0.0,0.0,0.0,0.0,0.0,0.0,0.0,0.0,0.0,0.0,0.0,0.0,0.0,0.0,0.0,0.0,0.0,0.0,0.0,0.0,0.0,0.0,0.0,0.0,0.0,-4.0935,-4.2761,-4.3001,-4.6189,-4.8768,-4.9484,-5.1335,-5.2431,-5.2112,-5.3244,-5.3718,-5.2991,-5.3979,-5.4364,-5.3688,-5.3958,-5.3948,-5.3551,-5.3751,-5.3751,-5.3501,-5.3501,-5.3501,-5.3501,-5.3501,-5.3501,-5.3501,-5.3501,-5.3501,-5.3501,-5.3501,-5.3501,-5.3501,-5.3501,-5.3501,-5.3501,-5.3501,-5.3501,-5.3501,-5.3501,-5.3501,-5.3467,0.0,-1.3264,-1.4049,-1.529,-1.5987,-1.6777,-1.8011,-1.82,-1.8579,-1.9619,-2.1096,-2.263,-2.4129,-2.537,-2.6299,-2.6764,-2.6368,-2.6178,-2.6333,-2.5732,-2.6313,-2.8416,-3.1567,-3.4065,-3.5787,-3.7583,-3.885,-3.9534,-4.0461,-4.115,-4.1613,-4.1958,-4.2165,-4.2177,-4.1713,-4.1156,-4.0593,-4.032,-3.975,-3.8939,-3.7611,-3.5904,-3.3973,-3.2127,-3.0955,-3.0196,-2.9455,-2.9041,-2.8799,-2.8368,0.0,0.0,0.0,0.0,0.0,0.0,0.0,0.0,0.0,0.0,0.0,0.0,0.0,0.0,0.0,0.0,0.0,0.0,0.0,0.0,0.0,0.0,0.0,0.0,-4.4384,-4.6561,-4.7405,-4.9228,-5.1155,-5.2935,-5.3922,-5.4641,-5.5129,-5.5428,-5.5417,-5.4891,-5.5307,-5.5231,-5.4411,-5.4707,-5.4457,-5.3601,-5.4045,-5.4045,-5.3501,-5.3551,-5.3551,-5.3501,-5.3501,-5.3501,-5.3501,-5.3501,-5.3501,-5.3501,-5.3501,-5.3501,-5.3501,-5.3501,-5.3501,-5.3501,0.0,0.0,0.0,0.0,-5.3501,-5.3501,0.0,-1.3729,-1.468,-1.5466,-1.6369,-1.7277,-1.808,-1.82,-1.8734,-2.0205,-2.1682,-2.3164,-2.4695,-2.554,-2.6008,-2.6094,-2.6008,-2.5762,-2.5204,-2.6639,-2.8488,-3.0683,-3.2962,-3.5247,-3.7584,-3.9126,-3.9989,-4.0157,-4.1607,-4.2324,-4.2383,-4.2778,-4.2692,-4.2177,-4.1756,-4.1351,-4.0965,-4.0935,-4.0498,-3.9836,-3.9836,-3.8939,-3.7392,-3.5304,-3.4024,-3.3317,-3.2472,-3.1351,-3.0248,-3.0128,0.0,0.0,0.0,0.0,0.0,0.0,0.0,0.0,0.0,0.0,0.0,0.0,0.0,0.0,0.0,0.0,0.0,0.0,0.0,0.0,0.0,0.0,0.0,0.0,-4.8106,-5.0915,-5.2654,-5.1927,-5.2587,-5.6365,-5.5986,-5.6093,-5.7742,-5.7058,-5.6572,-5.6731,-5.6519,-5.5925,-5.4935,-5.5525,0.0,0.0,0.0,-5.464,-5.3906,-5.4005,-5.3972,-5.3872,-5.3771,-5.3754,-5.3754,-5.367,-5.3619,-5.3619,-5.3551,-5.3501,-5.3501,-5.3501,-5.3501,-5.3501,-5.3501,-5.3501,-5.3501,-5.3501,-5.3501,-5.3501,0.0,-1.4503,-1.5419,-1.6177,-1.668,-1.7277,-1.808,-1.82,-1.8734,-2.0205,-2.1216,-2.2371,-2.3871,-2.4732,-2.5439,-2.6042,-2.5557,-2.549,-2.6176,-2.9089,-3.1088,-3.1783,-3.474,-3.7033,-3.845,-3.9405,-4.0543,-4.1846,-4.2158,-4.2462,-4.2795,-4.3195,-4.2958,-4.2216,-4.2095,-4.1799,-4.1356,-4.1041,-4.0825,-4.067,-4.067,-3.9756,-3.8272,-3.7236,-3.6753,-3.6443,-3.5025,-3.4731,-3.4861,-3.3995,-3.3598,-3.3389,-3.2842,-3.1882,0.0,0.0,0.0,0.0,0.0,0.0,0.0,0.0,0.0,0.0,0.0,0.0,0.0,0.0,0.0,0.0,0.0,0.0,0.0,-4.798,-5.0293,-5.2642,-5.5532,-5.5738,-5.5889,-5.6708,-5.7175,-5.7382,-5.729,-5.7498,-5.7134,-5.5801,-5.6367,-5.6213,-5.4966,-5.5741,-5.5951,-5.5421,-5.633,-5.6643,-5.6318,-5.6188,-5.6089,-5.6056,-5.5519,0.0,-5.5225,-5.4668,-5.438,-5.4346,-5.3754,-5.3501,-5.3501,-5.3501,-5.3501,-5.3501,-5.3501,-5.3501,-5.3501,-5.3501,-5.3501,-5.3501,-1.4886,-1.55,-1.6072,-1.6451,-1.7105,-1.7752,-1.8131,-1.82,-1.8734,-2.0205,-2.1096,-2.2164,-2.3646,-2.4163,-2.4543,-2.4922,-2.4612,-2.51,-2.679,-2.9391,-3.152,-3.3039,-3.5557,-3.7699,-3.9276,-4.0084,-4.1093,-4.2304,-4.269,-4.3007,-4.3196,-4.341,-4.316,-4.2537,-4.23,-4.1948,-4.1472,-4.1065,-4.0912,-4.0912,-4.0912,-4.0446,-3.9687,-3.8893,-3.8353,-3.7961,-3.718,-3.6887,-3.68,-3.6064,-3.5814,-3.5664,-3.4621,-3.4058,-3.3545,0.0,0.0,0.0,0.0,0.0,0.0,0.0,0.0,0.0,0.0,0.0,0.0,0.0,0.0,-4.1141,-4.2922,0.0,-4.7895,-5.0874,-5.2729,-5.4491,-5.6528,-5.7152,-5.7409,-5.7409,-5.7758,-5.7886,-5.7589,-5.7821,-5.7637,-5.6783,-5.754,-5.7637,-5.6644,-5.7662,-5.7893,-5.713,-5.7836,-5.7849,-5.7103,-5.7279,-5.7184,-5.6831,-5.675,-5.6536,-5.6184,-5.5808,-5.5485,-5.5141,-5.4769,-5.4397,-5.4008,-5.3653,-5.3501,-5.3501,-5.3501,-5.3501,-5.3501,-5.3501,-5.3501,-5.3501,-1.5868,-1.6396,-1.6708,-1.6708,-1.7541,-1.82,-1.82,-1.82,-1.8734,-2.0205,-2.0958,-2.1923,-2.3422,-2.3595,-2.3715,-2.4008,-2.4081,-2.5132,-2.7558,-2.9486,-3.1634,-3.4082,-3.601,-3.7967,-3.9969,-4.0646,-4.1504,-4.2525,-4.3167,-4.3444,-4.3375,-4.3375,-4.316,-4.2731,-4.2259,-4.1864,-4.1472,-4.1065,-4.0912,-4.0912,-4.0912,-4.0912,-4.0825,-4.0164,-3.956,-3.9014,-3.8698,-3.8134,-3.7439,-3.7141,-3.6949,-3.6696,-3.5652,-3.5654,-3.5733,-3.4051,-3.362,0.0,0.0,0.0,0.0,0.0,0.0,0.0,0.0,-3.8927,-4.0139,-4.1093,-4.3094,-4.5112,-4.6581,-4.8728,-5.1022,-5.3298,-5.4895,-5.6106,-5.6932,-5.7593,-5.7997,-5.7997,-5.7997,-5.7997,-5.7997,-5.7997,-5.8005,-5.8059,-5.877,-5.9006,-5.8528,-5.9652,-5.9846,-5.8848,-5.9327,-5.9099,-5.807,-5.8471,-5.8399,-5.7824,-5.8057,-5.7807,-5.7131,-5.6993,-5.6559,-5.5919,-5.5632,-5.5158,-5.4532,-5.3805,-5.3501,-5.3501,-5.3501,-5.3501,-5.3501,-5.3501,-5.3501,-5.3501,0.0,-1.6792,-1.7483,-1.7483,-1.7888,-1.82,-1.82,-1.82,-1.8734,-2.0205,-2.0481,-2.113,-2.2664,-2.2819,-2.3371,-2.4747,-2.5084,-2.6368,-2.9075,-3.1274,-3.3113,-3.4481,-3.6399,-3.8367,-4.0381,-4.0526,-4.1484,-4.3369,-4.346,-4.3322,-4.2957,-4.2957,-4.2711,-4.2257,-4.1799,-4.1539,-4.1472,-4.1065,-4.0912,-4.0912,-4.0912,-4.0912,-4.0894,-4.0808,-4.0722,-4.0463,-3.9077,-3.8134,-3.7503,-3.7435,-3.6987,-3.6665,-3.7872,-3.7799,-3.7246,-3.7019,-3.5926,-3.4962,-3.5655,-3.6465,-3.7143,-3.7173,-3.8328,-4.0198,0.0,-4.3884,-4.4452,-4.5975,-4.7682,-4.9206,-5.0086,-5.1665,-5.3353,-5.506,-5.6088,-5.695,-5.7758,-5.7941,-5.7997,-5.7997,-5.7997,-5.7997,-5.7997,-5.7997,-5.8066,-5.8264,-5.8854,-5.9213,-5.9266,-6.015,-6.0539,-6.0277,-6.1017,-6.135,-6.1191,-6.106,-6.0916,-6.0712,-6.0184,-5.9494,-5.8616,-5.7961,-5.733,-5.6613,-5.5277,-5.4668,-5.4532,-5.3805,-5.3501,-5.3501,-5.3501,-5.3501,-5.3501,-5.3501,-5.3501,-5.3501,0.0,-1.7155,-1.7601,-1.7601,-1.7939,-1.82,-1.82,-1.82,-1.8579,-1.9619,-2.0119,-2.0825,-2.194,-2.244,-2.3129,-2.4215,-2.5224,-2.6692,-2.873,-3.1377,-3.3495,-3.4889,-3.6577,-3.8546,-4.0805,-4.0859,-4.1712,-4.3515,-4.3515,-4.341,-4.325,-4.2995,-4.2806,-4.2557,-4.1821,-4.1494,-4.1472,-4.1065,-4.0912,-4.0912,-4.0912,-4.0912,-4.086,-4.0394,-4.0198,-4.0112,-3.9457,-3.8633,0.0,-3.8083,-3.8133,-3.8162,-3.8585,-3.8469,-3.8102,-3.7639,-3.7331,-3.7536,-3.9313,-4.0029,-4.0396,-4.0871,-4.2543,-4.4323,-4.5204,-4.6526,-4.7719,-4.8379,-4.9829,-5.1242,-5.205,-5.3518,-5.4968,-5.6106,-5.6969,-5.7611,-5.7941,-5.7997,-5.7831,-5.7373,-5.7703,-5.7997,-5.7997,-5.7997,-5.8215,-5.8769,-5.9492,-6.0133,-6.0653,-6.1456,-6.1894,-6.1842,-6.2073,-6.2077,-6.1814,-6.1915,-6.1833,-6.149,-6.149,-6.0826,-5.9674,-5.9342,-5.8762,-5.7963,-5.6919,-5.6217,-5.5722,-5.4618,-5.389,-5.3501,-5.3501,-5.3501,-5.3501,-5.3501,-5.3501,-5.3501,0.0,-1.737,-1.7601,-1.7601,-1.7939,-1.82,-1.82,-1.82,-1.8545,-1.9481,-2.0067,-2.0773,-2.1785,-2.2009,-2.263,-2.4008,-2.4767,-2.6077,-2.8265,-3.0834,-3.2959,-3.45,-3.604,-3.7934,-4.0217,-4.0611,-4.1447,-4.285,-4.3176,-4.3268,-4.3142,-4.2845,-4.2634,-4.2478,-4.1799,-4.1445,-4.1328,-4.1018,-4.0912,-4.0912,-4.0912,-4.0774,-4.0515,-3.9905,-3.9301,-3.875,-3.875,-3.8187,-3.7431,-3.7357,-3.763,-3.7949,-3.7738,-3.801,-3.8303,-3.7951,-3.856,-3.9698,-4.1222,-4.2121,-4.2818,-4.3626,-4.5663,-4.7333,-4.7003,-4.8636,-5.0253,-5.0196,-5.1334,-5.2582,-5.339,-5.4656,-5.5849,-5.6675,-5.7483,-5.7997,-5.7997,-5.7813,-5.7538,-5.7171,-5.7446,-5.7758,-5.7978,-5.7997,-5.8437,-5.9441,-6.007,-6.086,-6.1887,-6.2493,-6.278,-6.278,-6.2705,-6.2482,-6.2157,-6.2378,-6.2326,-6.1969,-6.2265,-6.1704,-6.0481,-6.0233,-5.9821,-5.9162,-5.8217,-5.7511,-5.6876,-5.5247,-5.4279,-5.3788,-5.3585,-5.3501,-5.3501,-5.3501,-5.3501,-5.3501,0.0,0.0,-1.7601,-1.7601,-1.7939,-1.82,-1.82,-1.82,-1.8717,-2.017,-2.0394,-2.098,-2.2509,-2.1342,-2.1682,-2.4695,-2.3629,-2.4402,-2.8144,-2.9886,-3.1439,-3.2907,-3.4444,-3.6191,-3.8156,-3.9334,-4.035,-4.1171,-4.2332,-4.2692,-4.2239,-4.2236,-4.1969,-4.1539,-4.1516,-4.1283,-4.0935,-4.0912,-4.0912,-4.0912,-4.0912,-4.0422,-3.9733,-3.9698,-3.8318,-3.6404,-3.6404,-3.6134,-3.5618,-3.4498,-3.4379,-3.4703,-3.5015,-3.6229,-3.7676,-3.8432,-3.9774,-4.0857,-4.0157,-4.1679,-4.3644,-4.447,-4.6489,-4.8489,-4.9298,-5.0749,-5.1922,-5.1903,-5.2601,-5.3427,-5.4216,-5.5042,-5.5849,-5.6675,-5.7483,-5.7997,-5.7997,-5.7336,-5.7134,-5.7868,-5.7299,-5.7152,0.0,-5.7997,-5.8657,-6.0236,-6.0401,-6.1098,-6.2695,-6.2805,-6.278,-6.278,-6.2798,-6.2798,-6.278,-6.278,-6.2705,-6.2578,-6.2467,-6.196,-6.1127,-6.0375,-5.9998,-5.9899,-5.8432,-5.7771,-5.7599,-5.5468,-5.4583,-5.4482,-5.3788,-5.3501,-5.3501,-5.3501,-5.3501,-5.3501,0.0,0.0,0.0,-1.7601,-1.7939,-1.82,-1.82,-1.8614,-1.9114,-1.9602,-2.0561,0.0,0.0,0.0,0.0,0.0,-2.4215,-2.5212,-2.7523,-3.0246,-3.2004,-3.2546,-3.4725,-3.6516,-3.775,-3.8646,-3.9621,-4.0689,-4.1125,-4.1468,-4.1805,-4.1533,-4.1452,-4.149,-4.1214,-4.1018,-4.0912,-4.0912,-4.0912,-4.086,-4.0325,-3.9939,-3.9577,-3.8594,-3.7422,-3.6094,0.0,-3.414,-3.4216,-3.4052,-3.4249,-3.4618,-3.4902,-3.5775,-3.7055,-3.8946,-4.0267,-4.1499,-4.3369,-4.4856,-4.6214,-4.7553,-4.9334,-5.082,-5.1114,-5.2013,-5.2637,-5.2105,-5.2215,-5.2491,-5.2747,-5.3463,-5.4454,-5.5776,-5.6675,-5.7391,-5.7923,-5.7776,-5.7501,-5.7244,-5.7446,0.0,0.0,0.0,0.0,-5.9538,-6.0107,-6.0878,-6.1942,-6.2511,-6.278,-6.278,-6.278,-6.278,-6.278,-6.278,-6.2798,-6.273,-6.205,-6.1602,-6.1329,-6.0861,-6.0468,-6.009,-5.9526,-5.8703,-5.772,-5.654,-5.548,-5.4566,-5.4329,-5.3923,-5.3501,-5.3501,-5.3501,-5.3501,0.0,0.0,0.0,0.0,0.0,0.0,0.0,0.0,0.0,0.0,0.0,0.0,0.0,0.0,0.0,0.0,0.0,-2.554,-2.6782,-2.9412,-3.1184,-3.1777,-3.3476,-3.496,-3.6078,-3.6702,-3.7578,-3.8743,-3.9084,-3.9766,-4.0785,-4.0511,-4.0509,-4.0705,-4.0436,-4.0245,-4.0083,-4.0083,-4.0083,-3.998,-3.8922,-3.8491,-3.8341,-3.6988,-3.5954,0.0,-3.3007,-3.2546,-3.2854,-3.2766,-3.3247,-3.3966,-3.4431,-3.5973,-3.7955,-3.979,-4.1313,-4.2948,-4.5608,-4.6911,-4.7975,-4.9903,-5.1187,-5.2068,-5.2362,-5.2619,-5.2619,-5.2105,-5.1536,-5.1244,-5.1518,-5.1995,-5.2968,-5.4858,-5.5849,-5.6748,-5.785,-5.7758,-5.7483,-5.7262,-5.7428,-5.7483,0.0,0.0,0.0,-5.9129,-5.996,-6.075,-6.1557,-6.2365,-6.278,-6.278,-6.278,-6.278,-6.278,-6.278,-6.2798,-6.2705,-6.2131,-6.1787,-6.1676,-6.1526,-6.1086,-6.0468,-6.0125,-5.9332,-5.8134,-5.7186,-5.6241,-5.5327,-5.4803,-5.4296,-5.3856,-5.3602,-5.3501,-5.3501,0.0,0.0,0.0,0.0,0.0,0.0,0.0,0.0,0.0,0.0,0.0,0.0,0.0,0.0,0.0,0.0,0.0,0.0,-2.6042,-2.7556,-2.9057,-3.0524,-3.0923,-3.1776,-3.3229,-3.3684,-3.4429,-3.5504,-3.6394,-3.7629,-3.9115,-3.9115,-3.9132,-3.9164,-3.9164,-3.8893,-3.8474,-3.8474,-3.8474,-3.8336,-3.6853,-3.6232,-3.6118,-3.4987,-3.4089,-3.3213,-3.174,-3.1439,-3.1607,-3.0829,-3.1558,-3.2931,-3.3788,-3.6707,-4.001,-4.0948,-4.2893,-4.5113,-4.6782,-4.7846,-4.9058,-5.1444,-5.205,-5.2252,-5.2986,-5.2527,-5.1903,-5.183,-5.0565,-4.9702,-5.0417,0.0,-5.1518,-5.3885,-5.5005,-5.6143,-5.7776,-5.7336,-5.7152,-5.7905,-5.7336,-5.7189,-5.7978,-5.8052,0.0,-5.9184,0.0,-6.075,-6.1557,-6.2365,-6.278,-6.278,-6.278,-6.278,-6.278,-6.278,-6.273,-6.2603,-6.2603,-6.2475,-6.2203,-6.2177,-6.1712,-6.0909,-6.0282,-5.9561,-5.8755,-5.746,-5.6869,-5.6664,-5.526,-5.4668,-5.4515,-5.3805,-5.3534,-5.3501,0.0,0.0,0.0,0.0,0.0,0.0,0.0,0.0,0.0,0.0,0.0,0.0,0.0,0.0,0.0,0.0,0.0,0.0,-2.6042,-2.7788,-2.8831,-2.8988,-3.0399,-3.1235,-3.1392,-3.2214,-3.3125,-3.4038,-3.4535,-3.5438,-3.6691,-3.6691,-3.6829,-3.7061,-3.7061,-3.7015,-3.6887,-3.6887,-3.6887,-3.6801,-3.5852,-3.5473,-3.539,-3.4557,-3.3884,-3.3247,-3.2072,-3.18,-3.1946,-3.159,-3.319,-3.5605,-3.7019,-3.8175,-3.9515,-4.2121,-4.4176,-4.6085,-4.8343,-4.9976,-5.1353,-5.2601,-5.2894,-5.2803,-5.2399,-5.1683,-5.0747,-4.9499,-4.8453,-4.7627,-4.7223,-4.8655,-5.049,-5.2307,-5.4289,0.0,-5.7776,-5.7813,0.0,-5.7978,-5.7813,-5.8015,-5.8822,-5.8896,-5.9245,-6.0034,-6.0291,-6.075,-6.1557,-6.2365,-6.278,-6.278,-6.278,-6.278,-6.278,-6.278,-6.273,-6.2603,-6.2603,-6.25,-6.2336,-6.1722,-6.1068,-6.0388,-6.0125,-5.9281,-5.8156,-5.8323,-5.7755,-5.6765,-5.6393,-5.5564,-5.4566,-5.438,-5.3974,-5.3501,0.0,0.0,0.0,0.0,0.0,0.0,0.0,0.0,0.0,0.0,0.0,0.0,0.0,0.0,0.0,0.0,0.0,0.0,0.0,-2.7415,-2.8263,-2.8402,-2.9304,-2.9855,-2.9881,-3.0562,-3.1274,-3.1966,-3.2352,-3.3055,-3.4045,-3.4045,-3.4137,-3.4335,-3.4335,-3.4335,-3.4335,-3.4335,-3.4335,0.0,0.0,-3.3404,-3.363,-3.304,-3.2967,-3.3,-3.1935,-3.2379,-3.364,-3.4534,-3.6191,-3.8102,-3.9368,-4.0471,-4.1827,-4.4342,-4.6232,-4.7976,-5.0088,-5.1555,-5.2637,-5.3096,-5.2931,-5.2362,-5.1206,-5.0306,-4.915,-4.7131,-4.636,-4.5682,-4.4525,-4.6617,-4.8912,-5.0178,-5.3023,0.0,-5.7244,-5.7776,-5.8125,-5.8492,-5.8529,-5.8841,-5.9643,-5.9716,-6.007,-6.0878,-6.0933,-6.1117,-6.1575,-6.2365,-6.278,-6.278,-6.278,-6.278,-6.278,-6.278,-6.2755,-6.2679,-6.2679,-6.243,-6.1942,-6.149,-6.0844,-6.0125,-6.003,-5.938,-5.8369,-5.8737,-5.8271,-5.7256,-5.6934,-5.6105,-5.504,-5.4718,-5.4126,-5.3501,0.0,0.0,0.0,0.0,0.0,0.0,0.0,0.0,0.0,0.0,0.0,0.0,0.0,0.0,0.0,0.0,0.0,0.0,0.0,0.0,-2.7592,-2.823,-2.8079,-2.8169,-2.859,-2.8924,-2.9331,-2.9798,-3.023,-3.0819,-3.1489,-3.1489,-3.1489,-3.1489,-3.1489,-3.1489,-3.1489,-3.1489,-3.1558,-3.1593,-3.0973,-3.1127,-3.175,0.0,-3.1904,-3.2674,-3.1841,-3.3123,-3.5558,-3.7914,-3.9441,-4.0487,-4.1203,-4.3076,-4.5296,-4.6819,-4.8453,-5.0088,-5.1573,-5.2582,-5.3185,-5.3185,-5.2509,-5.1408,-4.9812,-4.8581,-4.7168,-4.4874,-4.4196,-4.3699,-4.2525,-4.4672,-4.7058,-4.8416,-5.1793,-5.4876,-5.6712,-5.7556,-5.8309,-5.9093,-5.9184,-5.9551,-6.0474,-6.0566,-6.0896,-6.1704,-6.1759,-6.1759,-6.1759,-6.242,-6.278,-6.278,-6.278,-6.278,-6.278,-6.278,-6.278,-6.278,-6.278,-6.2334,-6.1546,-6.1415,-6.0903,-6.0125,-6.0048,-5.9561,-5.8892,-5.8892,-5.8511,-5.7831,-5.7205,-5.6511,-5.5767,-5.5023,-5.4279,-5.3636,0.0,0.0,0.0,0.0,0.0,0.0,0.0,0.0,0.0,0.0,-2.3233,-2.3388,0.0,0.0,0.0,0.0,0.0,0.0,0.0,0.0,0.0,-2.7489,-2.7459,-2.749,-2.7566,-2.7837,-2.8222,-2.8675,-2.8988,-2.9393,-2.9903,-2.9903,-2.9903,-2.9903,-2.9903,-2.9903,-2.9903,-2.9903,-3.0282,-3.0869,-3.0748,-3.1127,-3.1801,-3.1718,0.0,0.0,-3.3216,-3.3895,-3.5041,-3.7778,-4.0561,-4.2909,-4.3039,-4.4745,-4.6874,-4.781,-4.9279,-5.0802,-5.1738,-5.2582,-5.3185,-5.3185,-5.2105,-5.0563,-4.8912,-4.6874,-4.4837,-4.3075,-4.1662,-4.1038,-4.2103,-4.3296,-4.548,-4.9682,-5.2087,-5.4436,-5.7373,-5.7905,-5.8309,0.0,-5.9184,-5.9795,-6.1245,-6.1392,0.0,0.0,-6.2603,-6.2603,-6.2603,-6.2707,-6.278,-6.278,-6.278,-6.278,-6.278,-6.278,-6.278,-6.278,-6.2679,-6.25,-6.2194,-6.1536,-6.1086,-6.0789,-6.0251,-5.9561,-5.8892,-5.8892,-5.8511,-5.7881,-5.7746,-5.7256,-5.6528,-5.5784,-5.504,-5.4313,0.0,0.0,0.0,0.0,0.0,0.0,0.0,-2.1337,-2.3267,-2.3267,-2.4284,-2.4853,-2.4508,-2.5439,-2.6281,0.0,0.0,0.0,0.0,0.0,0.0,0.0,-2.7436,-2.7434,-2.7297,-2.8105,-2.8313,-2.7833,0.0,-2.8732,-2.8557,-2.8415,-2.8432,-2.8575,-2.8415,-2.8368,-2.8368,-2.8368,-2.8799,-2.9541,-2.992,-3.0541,-3.1265,0.0,0.0,0.0,0.0,-3.4869,-3.6025,-3.7571,-4.0503,-4.357,-4.3993,-4.5498,-4.7351,-4.8618,-4.9848,-5.1077,-5.2289,-5.2913,-5.3093,-5.2674,-5.1334,-4.9462,-4.7003,0.0,0.0,-4.0928,-4.0139,-3.9753,-3.9276,-4.1534,-4.4121,-4.6067,-4.9517,-5.2931,-5.5721,-5.6492,-5.7519,-5.9593,-5.9808,-6.0474,-6.2071,-6.2218,-6.2383,-6.2762,-6.278,-6.278,-6.278,-6.278,-6.278,-6.278,-6.278,-6.278,-6.278,-6.278,-6.2755,-6.2705,-6.2629,-6.2308,-6.1777,-6.1376,-6.1115,-6.0968,-6.0282,-5.9806,-5.9429,-5.9062,-5.8511,-5.7881,-5.7881,-5.7442,-5.6714,-5.5987,-5.5243,-5.4482,0.0,0.0,0.0,0.0,0.0,0.0,0.0,-2.1859,-2.3802,-2.3802,-2.5146,-2.6094,-2.6094,-2.6249,-2.6609,0.0,0.0,0.0,0.0,0.0,0.0,0.0,0.0,-2.7526,-2.7297,0.0,0.0,-2.754,-2.8331,0.0,0.0,0.0,0.0,0.0,-2.739,-2.7299,-2.7299,-2.7299,-2.7816,0.0,0.0,-3.0075,0.0,0.0,0.0,0.0,0.0,0.0,-3.6427,-3.7234,-3.9604,-4.2395,-4.3369,-4.5241,-4.7388,-4.8875,-5.0013,-5.1114,-5.2564,-5.3057,-5.3023,-5.2197,-5.06,-4.8453,-4.5388,-4.3809,-4.2176,-3.9294,-3.9074,-3.8854,-3.7129,-3.9769,-4.2341,-4.2745,-4.6856,-5.1041,-5.3995,-5.5244,-5.6987,-6.0052,-6.0401,0.0,-6.2633,-6.278,0.0,-6.278,-6.278,-6.278,-6.278,-6.278,-6.278,-6.278,-6.278,-6.278,-6.278,-6.278,-6.273,-6.2603,-6.2578,-6.2176,-6.1451,-6.1394,-6.1336,-6.1221,-6.0393,-5.9998,-5.9934,-5.9045,-5.8405,-5.7881,-5.7881,-5.7543,-5.6934,-5.6038,-5.5344,-5.4702,0.0,0.0,0.0,0.0,0.0,0.0,0.0,-2.1859,-2.3802,-2.3802,-2.5146,-2.6094,-2.6094,-2.6747,-2.7213,0.0,0.0,0.0,0.0,0.0,0.0,0.0,0.0,0.0,0.0,0.0,0.0,-2.8299,-2.8384,0.0,0.0,0.0,0.0,0.0,0.0,0.0,-2.7299,-2.7299,0.0,0.0,0.0,0.0,0.0,0.0,0.0,0.0,0.0,0.0,-3.444,-3.6725,-3.7749,-3.8319,-3.9861,-4.3461,-4.7278,-4.8159,0.0,0.0,-5.1867,-5.2637,-5.3023,-5.2197,-5.0196,-4.7774,-4.5278,0.0,-4.082,-3.9056,-3.8175,-3.7878,-3.8395,-3.823,-3.9457,-4.3791,-4.614,-4.9057,-5.3739,-5.5721,-5.7611,-6.0107,0.0,0.0,-6.2633,-6.278,-6.278,-6.278,-6.278,-6.278,-6.278,-6.278,-6.278,-6.278,-6.278,-6.278,-6.278,-6.278,-6.273,-6.2603,-6.2493,-6.2389,-6.2265,-6.2042,-6.1987,-6.2024,-6.062,-5.9998,-5.992,-5.8545,-5.7954,-5.7881,-5.7881,-5.7848,-5.7628,-5.6224,-5.5683,-5.5412,0.0,0.0,0.0,0.0,0.0,0.0,-2.0579,-2.2457,-2.3974,-2.4456,-2.5439,-2.6094,-2.6094,-2.6816,-2.7299,-2.7299,0.0,0.0,0.0,0.0,0.0,0.0,0.0,0.0,0.0,0.0,-2.8467,-2.8403,-2.9239,0.0,0.0,0.0,0.0,0.0,0.0,0.0,-2.7333,0.0,0.0,0.0,0.0,0.0,0.0,0.0,0.0,0.0,0.0,0.0,0.0,0.0,0.0,0.0,-3.8245,-4.0102,-4.2506,0.0,-4.726,-4.9591,-5.0912,-5.2215,-5.2894,-5.1591,-4.9793,-4.7553,-4.4635,-4.2488,-4.0636,-3.9038,-3.7661,-3.6886,-3.7202,-3.6982,-3.7881,-4.1258,-4.3167,-4.592,-5.082,-5.2472,-5.462,-5.8492,-5.9391,-6.0487,0.0,0.0,-6.278,-6.278,-6.278,-6.278,-6.278,-6.278,-6.278,-6.278,-6.278,-6.278,-6.278,-6.278,-6.2679,-6.2475,-6.2441,-6.231,-6.2168,-6.2051,-6.2033,-6.1987,-6.0608,-5.9998,-5.987,-5.8475,-5.7881,-5.7881,-5.7881,-5.7628,-5.7103,-5.6089,-5.5429,-5.4888,0.0,0.0,0.0,0.0,0.0,-1.9688,-2.1044,-2.2699,-2.4008,-2.456,-2.5491,-2.6094,-2.6094,-2.6816,-2.7299,-2.7299,-2.7299,0.0,0.0,0.0,0.0,0.0,0.0,0.0,0.0,0.0,-2.8978,-2.8878,-2.9999,-3.0497,0.0,0.0,0.0,0.0,0.0,0.0,0.0,0.0,0.0,0.0,0.0,0.0,0.0,0.0,0.0,0.0,0.0,0.0,0.0,0.0,0.0,0.0,0.0,0.0,-3.9019,-4.2488,-4.5259,-4.7664,-4.9554,-5.1261,-5.2105,-5.0472,-4.9003,-4.7113,-4.3883,-4.2084,-4.0581,-3.8726,-3.7441,-3.6486,-3.6009,-3.6138,-3.7,-3.9184,-4.1295,-4.4268,-4.8949,-5.0692,-5.3041,-5.7171,0.0,-5.9423,-6.1869,-6.2505,-6.278,-6.278,-6.278,-6.278,-6.278,-6.278,-6.278,-6.278,-6.278,-6.278,-6.278,-6.2755,-6.2647,-6.2467,-6.2389,-6.2257,-6.2114,-6.2051,-6.2005,-6.1987,-6.0608,-5.9998,-5.987,-5.8475,-5.7881,-5.7865,-5.7645,-5.7256,-5.6681,-5.5733,-5.5057,-5.4482,0.0,0.0,0.0,0.0,0.0,0.0,-2.0279,-2.2341,-2.3802,-2.3819,-2.5146,-2.6094,-2.6094,-2.6816,-2.7299,-2.7299,-2.7299,0.0,0.0,0.0,0.0,0.0,0.0,0.0,0.0,0.0,-2.8929,-2.9983,-3.0456,-3.0872,-3.1177,-3.0838,-3.0248,-2.9455,0.0,0.0,0.0,0.0,0.0,0.0,0.0,0.0,0.0,0.0,0.0,0.0,0.0,0.0,0.0,0.0,0.0,0.0,0.0,0.0,-3.83,-4.2321,-4.4085,-4.5278,-4.7682,-4.9554,-5.0417,-4.8746,-4.77,-4.6269,-4.3057,-4.168,-4.0432,-3.8006,-3.7492,-3.6978,-3.5316,-3.5734,-3.6835,-3.845,-4.1405,-4.4928,-4.9023,-5.1665,-5.4066,0.0,-5.6822,-5.7776,-6.0199,-6.1887,-6.278,-6.278,-6.278,0.0,-6.278,-6.278,-6.278,-6.278,-6.278,-6.278,-6.278,-6.2679,-6.2603,-6.2603,-6.2318,-6.2283,-6.2389,-6.2114,-6.2087,-6.2105,-6.0651,-5.9998,-5.987,-5.8475,-5.7881,-5.7814,-5.7103,-5.6816,-5.6613,-5.5141,-5.46,-5.4482,0.0,0.0,0.0,0.0,0.0,0.0,0.0,-2.2164,-2.2664,-2.3681,-2.4232,-2.4922,-2.599,-2.6816,-2.7299,-2.7299,-2.7299,0.0,0.0,0.0,0.0,0.0,0.0,0.0,0.0,0.0,-2.9564,-2.9658,-3.1098,-3.1986,-3.2347,-3.1969,-3.1533,-3.1059,-3.0541,0.0,0.0,0.0,0.0,0.0,0.0,0.0,0.0,0.0,0.0,0.0,0.0,0.0,0.0,0.0,0.0,0.0,0.0,0.0,0.0,-3.9184,-4.1956,-4.4048,-4.48,-4.6214,-4.7186,-4.6122,-4.4837,-4.3424,-4.1829,-4.0855,-3.9753,-3.7878,-3.707,-3.634,-3.5206,-3.478,-3.5844,-3.9701,-4.1203,-4.3663,-4.8876,-5.1187,0.0,-5.6455,-5.9245,-6.1208,0.0,0.0,-6.278,-6.278,-6.278,-6.278,-6.278,-6.278,-6.278,-6.278,-6.278,-6.2755,-6.2654,-6.2629,-6.2552,-6.2467,-6.2265,-6.223,-6.2257,-6.2087,-6.2005,-6.2005,-6.0608,-5.9998,-5.987,-5.8475,-5.7881,-5.7814,-5.7087,-5.6494,-5.5936,-5.4955,-5.4279,-5.3805,0.0,0.0,0.0,0.0,0.0,0.0,0.0,-2.213,-2.2337,-2.3267,-2.3629,-2.4388,-2.5921,-2.6557,-2.6971,-2.7264,-2.7299,0.0,0.0,0.0,0.0,0.0,0.0,0.0,-2.7713,-2.9099,-3.007,-3.056,-3.1882,-3.2717,-3.3076,-3.2826,-3.2388,-3.1784,-3.1376,-3.0888,0.0,0.0,0.0,0.0,0.0,0.0,0.0,0.0,0.0,0.0,0.0,0.0,0.0,0.0,0.0,0.0,0.0,0.0,0.0,0.0,-3.9166,-4.144,-4.2341,-4.3552,-4.4287,-4.3167,-4.2359,-4.157,-4.0435,-4.0047,-3.9439,-3.7823,-3.6868,-3.6028,-3.5169,-3.4582,-3.5555,-3.9536,-4.0948,-4.3332,-4.8398,0.0,0.0,-5.6436,-5.9557,0.0,-6.1887,-6.2432,-6.278,-6.278,-6.278,-6.278,-6.278,-6.278,-6.278,-6.278,-6.278,-6.273,-6.2603,-6.2552,-6.2475,-6.2389,-6.2203,-6.215,-6.2203,-6.206,-6.1996,-6.1923,-6.0577,-5.9998,0.0,-5.8184,-5.7476,-5.7374,-5.6359,-5.57,-5.5209,-5.4465,-5.389,-5.3501,0.0,0.0,0.0,0.0,0.0,0.0,0.0,-2.2164,-2.2595,-2.275,-2.3336,-2.4336,-2.5921,-2.6146,-2.6488,-2.723,0.0,0.0,0.0,0.0,0.0,0.0,0.0,0.0,-2.8385,-2.9127,-3.0387,-3.2196,-3.2658,-3.3092,-3.3493,-3.3493,-3.2946,-3.1994,-3.155,-3.1516,0.0,0.0,0.0,0.0,0.0,0.0,0.0,0.0,0.0,0.0,0.0,0.0,0.0,0.0,0.0,0.0,0.0,0.0,0.0,0.0,0.0,0.0,0.0,-4.1313,-4.1607,-4.0102,-4.0286,-4.0471,-3.9038,-3.9276,0.0,-3.7823,-3.6905,-3.6138,-3.5334,-3.5133,-3.5958,-3.8615,-4.0928,-4.3791,-4.7829,-5.0618,-5.3427,-5.6602,-5.8377,-5.9667,-6.0419,-6.1906,-6.278,-6.278,-6.278,-6.278,-6.278,-6.278,-6.278,-6.278,-6.278,-6.2705,-6.2603,-6.2449,-6.2389,-6.2389,-6.2114,-6.206,-6.2203,-6.206,-6.1996,-6.1923,-6.0524,-5.991,-5.9762,-5.7603,-5.6731,-5.6579,-5.5158,-5.4583,-5.4499,-5.3771,-5.3501,-5.3501,0.0,0.0,0.0,0.0,0.0,0.0,0.0,0.0,0.0,0.0,-2.3198,-2.375,-2.587,-2.6644,-2.7092,0.0,0.0,0.0,0.0,0.0,0.0,0.0,0.0,0.0,-2.8385,-2.9127,-3.0007,-3.108,-3.2303,-3.3425,-3.439,-3.4353,-3.4193,-3.3982,-3.3213,-3.2475,0.0,0.0,0.0,0.0,0.0,0.0,0.0,0.0,0.0,0.0,-3.2853,-3.3205,0.0,0.0,0.0,0.0,0.0,0.0,0.0,0.0,-3.5279,-3.5701,-3.6288,0.0,-3.8539,-3.8153,-3.8208,-3.8395,0.0,-3.8854,-3.8707,-3.7694,-3.7345,-3.7162,-3.696,-3.6413,-3.7386,-4.168,-4.2837,-4.4617,-4.8655,-5.2399,-5.5721,-5.8322,-6.007,-6.1117,-6.13,-6.2236,-6.278,-6.278,-6.278,-6.278,-6.278,-6.278,-6.278,-6.278,-6.2705,-6.2578,-6.2441,-6.2415,-6.2336,-6.2257,-6.2087,-6.206,-6.2203,-6.206,-6.1996,-6.1887,-5.9921,-5.9085,-5.8938,-5.6833,-5.597,-5.5886,-5.4955,-5.4583,-5.4499,-5.3771,-5.3501,-5.3501,0.0,0.0,0.0,0.0,0.0,0.0,0.0,0.0,0.0,0.0,0.0,0.0,0.0,0.0,0.0,0.0,0.0,0.0,0.0,0.0,0.0,0.0,0.0,-2.7799,-2.8885,-2.9299,-3.0231,-3.1714,-3.2658,-3.368,-3.469,-3.4429,-3.427,-3.411,-3.3104,-3.2329,0.0,0.0,0.0,0.0,0.0,0.0,0.0,0.0,0.0,0.0,-3.2732,-3.2921,0.0,-3.4755,-3.517,-3.5078,0.0,0.0,0.0,0.0,-3.4454,-3.4454,-3.4454,-3.5936,-3.7419,-3.7052,-3.7511,-3.8157,-3.8597,-3.8707,-3.8579,-3.8138,-3.7768,-3.7492,-3.7492,-3.7144,-3.808,-4.1791,-4.302,-4.5296,-5.0472,-5.3739,-5.6492,-5.8909,-5.9979,-6.0786,-6.152,-6.1998,-6.2401,-6.2762,-6.278,-6.278,-6.278,-6.278,-6.2755,-6.2705,-6.2629,-6.2526,-6.2389,-6.2336,-6.223,-6.2114,-6.2033,-6.2033,-6.2096,-6.1652,-6.1308,-6.0929,-5.9074,-5.8108,-5.7706,-5.5928,-5.5209,-5.5124,-5.438,-5.4093,-5.4042,-5.3653,-5.3501,-5.3501,0.0,0.0,0.0,0.0,0.0,0.0,0.0,0.0,0.0,0.0,0.0,0.0,0.0,0.0,0.0,0.0,0.0,0.0,0.0,0.0,0.0,0.0,-2.7299,-2.804,-2.9644,-2.9455,-3.0524,-3.298,-3.3279,-3.3881,-3.4763,-3.4552,-3.4146,-3.3546,-3.2523,-3.1941,0.0,0.0,0.0,0.0,0.0,0.0,0.0,0.0,0.0,0.0,0.0,0.0,0.0,-3.5203,-3.5605,-3.5279,-3.5771,0.0,0.0,0.0,0.0,0.0,-3.41,-3.5913,-3.7437,-3.6376,-3.7496,-3.8817,-3.8579,-3.8615,-3.8707,-3.8707,-3.8157,-3.7768,-3.8006,-3.8062,-3.8872,-4.1423,-4.3406,-4.6709,-5.2729,-5.473,-5.6436,-5.8726,-5.9129,-5.9758,-6.1098,-6.1337,-6.1704,-6.2383,-6.2438,-6.2438,-6.2438,-6.2438,-6.2363,-6.2237,-6.2194,-6.2135,-6.198,-6.2002,-6.1887,-6.1616,-6.1616,-6.1616,-6.1598,-6.0937,-6.0295,-5.9641,-5.8146,-5.715,-5.641,-5.4992,-5.4431,-5.4363,-5.3737,-5.3501,-5.3501,-5.3501,-5.3501,-5.3501,0.0,0.0,0.0,0.0,0.0,0.0,0.0,0.0,0.0,0.0,0.0,0.0,0.0,0.0,0.0,0.0,0.0,0.0,0.0,0.0,0.0,-2.7299,-2.7299,-2.8299,-3.0455,-2.923,-3.0127,-3.3316,-3.3424,-3.4058,-3.5153,-3.6036,-3.5591,-3.3969,-3.3416,-3.2647,-3.1818,0.0,0.0,0.0,0.0,0.0,0.0,0.0,0.0,0.0,0.0,0.0,0.0,-3.387,-3.5037,-3.5881,-3.4596,0.0,0.0,0.0,0.0,0.0,-3.5532,-3.7184,-3.7991,-3.5756,-3.7477,-3.9365,-3.7988,-3.8212,-3.8707,-3.8707,-3.8597,-3.8927,-4.0304,-4.0545,-4.157,-4.4654,-4.77,-5.0986,-5.4711,-5.5427,-5.6235,-5.7978,-5.8804,-5.9294,-5.9533,-6.0181,-6.0639,-6.0768,-6.0768,-6.0768,-6.0768,-6.0768,-6.0695,-6.0573,-6.0455,-6.0329,-6.0201,-6.0848,-6.0762,-5.9977,-5.9977,-5.9977,-5.9977,-5.985,-5.9448,-5.8802,-5.7299,-5.6348,-5.565,-5.4227,-5.367,-5.367,-5.3551,-5.3501,-5.3501,-5.3501,-5.3501,-5.3501,0.0,0.0,0.0,0.0,0.0,0.0,0.0,0.0,0.0,0.0,0.0,0.0,0.0,0.0,0.0,0.0,0.0,0.0,0.0,0.0,-2.7661,-2.8454,-2.773,-2.8161,-3.0006,-3.0403,-3.1515,-3.3459,-3.45,-3.5297,-3.5863,-3.6159,-3.5383,-3.3709,-3.3306,-3.2751,-3.2073,-3.2037,0.0,0.0,0.0,0.0,0.0,0.0,0.0,0.0,0.0,0.0,0.0,0.0,-3.5275,-3.6083,-3.4853,0.0,0.0,0.0,0.0,0.0,-3.4743,-3.6156,-3.7129,-3.5991,-3.8469,-4.1001,-4.0249,-4.0047,-3.9994,-3.9994,-3.9994,-4.0215,-4.0948,-4.2159,-4.425,-4.7957,-5.0912,-5.3408,-5.5317,-5.5959,-5.6675,-5.785,-5.8327,-5.8731,-5.9148,-5.9515,-5.9942,-6.0382,-6.0401,-6.0401,-6.0401,-6.0401,-6.0304,-6.009,-6.004,-5.967,-5.9048,-5.9411,-5.9621,-5.9615,-5.9615,-5.9615,-5.9597,-5.9162,-5.8412,-5.7429,-5.6376,-5.5365,-5.4426,-5.3754,-5.3501,-5.3501,-5.3501,-5.3501,-5.3501,-5.3501,-5.3501,-5.3501,0.0,0.0,0.0,0.0,0.0,0.0,0.0,0.0,0.0,0.0,0.0,0.0,0.0,0.0,0.0,0.0,0.0,0.0,0.0,0.0,-2.7885,-2.9196,-2.857,-2.8983,-3.0647,-3.1461,-3.2753,-3.4588,-3.5758,-3.6524,-3.6899,-3.6142,-3.5056,-3.3686,-3.3311,-3.2842,-3.2283,-3.2109,-3.1984,0.0,0.0,0.0,0.0,0.0,0.0,0.0,0.0,0.0,0.0,0.0,0.0,0.0,0.0,0.0,0.0,-3.4761,-3.4247,-3.4174,-3.4559,-3.5587,-3.6615,-3.6798,-3.9038,-4.1313,-4.1901,-4.1535,-4.1205,-4.1572,-4.1811,-4.1939,-4.1939,-4.4232,-4.7278,-5.0802,-5.339,-5.5244,-5.6033,-5.6693,-5.7317,-5.7923,-5.7997,-5.8235,-5.8854,-5.8933,-5.9189,-5.9795,-5.985,-5.985,-5.985,-5.9808,-5.9688,-5.9449,-5.94,-5.8983,-5.813,-5.8112,-5.8438,-5.9054,-5.9054,-5.9054,-5.9017,-5.8254,-5.7296,-5.6192,-5.5481,-5.452,-5.3501,-5.3501,-5.3501,-5.3501,-5.3501,-5.3501,-5.3501,-5.3501,-5.3501,-5.3501,0.0,0.0,0.0,0.0,0.0,0.0,0.0,0.0,0.0,0.0,0.0,0.0,0.0,0.0,0.0,0.0,0.0,0.0,0.0,0.0,-2.7644,-2.8437,-3.0048,-3.1966,-3.4178,-3.163,-3.2716,-3.7781,-3.6825,-3.7113,-3.8413,-3.656,-3.5318,-3.4585,-3.4127,-3.3314,-3.2318,-3.2602,-3.2536,-3.2266,0.0,0.0,0.0,0.0,0.0,0.0,0.0,0.0,0.0,0.0,0.0,0.0,0.0,0.0,-3.6266,-3.6156,-3.555,-3.5243,-3.6813,-3.7327,-3.7603,-3.834,-3.8175,-3.8429,-4.0689,-4.1132,-4.1517,-4.302,-4.392,-4.4434,-4.4434,-4.7682,-5.0949,-5.2726,-5.506,-5.6914,-5.7703,-5.7886,-5.7941,-5.7997,-5.7997,-5.8015,-5.807,-5.8088,-5.8107,-5.8162,-5.8162,-5.8162,-5.8162,-5.8045,-5.7909,-5.7765,-5.7643,-5.7484,-5.7279,-5.7279,-5.7315,-5.7369,-5.7369,-5.7369,-5.7344,-5.6734,-5.6106,-5.5443,-5.4769,-5.4091,-5.3501,-5.3501,-5.3501,-5.3501,-5.3501,-5.3501,-5.3501,-5.3501,-5.3501,-5.3501,0.0,0.0,0.0,0.0,0.0,0.0,0.0,0.0,0.0,0.0,0.0,0.0,0.0,0.0,0.0,0.0,0.0,0.0,0.0,-2.7299,-2.7833,-2.9023,-2.8895,-3.0381,-3.3828,-3.3968,-3.5239,-3.7739,-3.7738,-3.7678,-3.7461,-3.703,-3.5917,-3.4286,-3.4601,-3.3943,-3.2602,-3.2519,-3.2554,-3.2586,-3.2369,0.0,0.0,0.0,0.0,0.0,0.0,0.0,0.0,0.0,-3.3506,-3.4307,-3.4633,-3.5092,-3.5389,-3.489,-3.4504,-3.4394,-3.5018,-3.5954,-3.7055,-3.8377,-3.8469,-3.9001,-4.1919,-4.3369,-4.4544,-4.6159,-4.6728,-4.7113,-4.7645,-4.9426,-5.1499,-5.361,-5.5556,-5.7079,-5.7886,-5.7997,-5.7997,-5.7997,-5.7997,-5.7997,-5.7997,-5.7997,-5.7997,-5.7997,-5.7997,-5.7973,-5.7881,-5.7815,-5.7697,-5.7461,-5.7431,-5.7356,-5.7188,-5.7188,-5.7188,-5.7188,-5.7188,-5.7188,-5.7163,-5.6599,-5.5961,-5.5355,-5.4703,-5.4059,-5.3501,-5.3501,-5.3501,-5.3501,-5.3501,-5.3501,-5.3501,-5.3501,-5.3501,-5.3501,0.0,0.0,0.0,0.0,0.0,0.0,0.0,0.0,0.0,0.0,0.0,0.0,0.0,0.0,0.0,0.0,0.0,0.0,-2.7299,-2.7299,-2.7851,-2.911,-2.8533,-2.9614,-3.2703,-3.4801,-3.6417,-3.7523,-3.8272,-3.8249,-3.7563,-3.7131,-3.6233,-3.4924,-3.4594,-3.4038,-3.3295,-3.2709,-3.2651,-3.2939,-3.2586,-3.2386,0.0,0.0,0.0,0.0,0.0,0.0,0.0,0.0,-3.2695,-3.3476,-3.3715,-3.4192,-3.4564,-3.4284,-3.4192,-3.4247,-3.4504,-3.5605,-3.6927,-3.8046,-3.9093,-4.0616,-4.3571,-4.5112,-4.6507,-4.8655,-4.9095,-4.9352,-5.0198,-5.1022,-5.2179,-5.4087,-5.5959,-5.7373,-5.7923,-5.7997,-5.7997,-5.7997,-5.7997,-5.7997,-5.7997,-5.7997,-5.7973,-5.795,-5.7973,-5.7909,-5.7745,-5.7745,-5.7625,-5.7406,-5.7363,-5.7289,-5.7188,-5.7188,-5.7188,-5.7188,-5.7188,-5.7188,-5.7163,-5.6393,-5.5791,-5.5355,-5.4471,-5.3898,-5.3501,-5.3501,-5.3501,-5.3501,-5.3501,-5.3501,-5.3501,-5.3501,-5.3501,-5.3501,0.0,0.0,0.0,0.0,0.0,0.0,0.0,0.0,0.0,0.0,0.0,0.0,0.0,0.0,0.0,0.0,0.0,0.0,-2.7299,-2.7299,-2.7627,-2.8368,-2.9468,-3.043,-3.1171,-3.3495,-3.565,-3.7596,-3.8328,-3.8869,-3.9118,-3.6801,-3.6164,-3.6848,-3.4078,-3.3447,-3.4407,-3.3275,-3.2983,-3.3258,-3.2937,-3.2602,0.0,0.0,0.0,0.0,0.0,0.0,0.0,0.0,-3.1709,-3.2711,-3.3532,-3.3788,-3.3954,-3.4747,-3.4986,-3.5188,-3.6046,-3.6886,-3.7492,-3.7529,-3.9937,-4.2965,-4.5369,-4.592,-4.6874,-5.016,-5.0839,-5.1077,-5.1867,-5.2674,-5.3482,-5.4289,-5.6418,-5.7997,-5.7997,-5.7997,-5.7997,-5.7997,-5.7997,-5.7997,-5.7997,-5.7997,-5.795,-5.7792,-5.7909,-5.7881,-5.7625,-5.7601,-5.7553,-5.7388,-5.7282,-5.7188,-5.7188,-5.7188,-5.7188,-5.7188,-5.7206,-5.7206,-5.7138,-5.5961,-5.5402,-5.5325,-5.4028,-5.3501,-5.3501,-5.3501,-5.3501,-5.3501,-5.3501,-5.3501,-5.3501,-5.3501,-5.3501,-5.3501,0.0,0.0,0.0,0.0,0.0,0.0,0.0,0.0,0.0,0.0,0.0,0.0,0.0,0.0,0.0,0.0,0.0,0.0,-2.7299,-2.7299,-2.7385,-2.7609,-2.8447,-2.9354,-3.0331,-3.2889,-3.4872,-3.6263,-3.7578,-3.7696,-3.6729,-3.689,-3.6358,-3.5235,-3.5248,-3.4342,-3.2781,-3.2459,-3.2498,-3.2826,-3.3056,-3.3093,0.0,0.0,0.0,0.0,0.0,0.0,0.0,0.0,0.0,0.0,-3.1861,-3.2889,-3.3733,-3.3408,-3.3702,-3.4211,-3.4468,-3.5987,-3.7768,-3.8906,-4.2029,-4.5314,-4.7168,-4.8031,-4.9352,-5.2656,-5.3335,-5.3408,-5.3647,-5.3885,-5.4308,-5.5097,-5.6326,-5.7354,-5.7923,-5.7997,-5.7997,-5.7997,-5.7997,-5.7973,-5.7881,-5.795,-5.7904,-5.7673,-5.7768,-5.7745,-5.7461,-5.748,-5.7406,-5.7264,-5.7213,-5.7188,-5.7188,-5.6785,-5.6573,-5.6555,-5.6128,-5.6156,-5.6528,-5.5762,-5.5147,-5.4641,-5.3849,-5.3501,-5.3501,-5.3501,-5.3501,-5.3501,-5.3501,-5.3501,-5.3501,-5.3501,-5.3501,-5.3501,0.0,0.0,0.0,0.0,0.0,0.0,0.0,0.0,0.0,0.0,-2.7299,-2.7299,0.0,0.0,0.0,0.0,0.0,0.0,0.0,-2.7299,-2.742,-2.7713,-2.8288,-2.9318,-3.0878,-3.31,-3.4505,-3.5011,-3.6411,-3.6687,-3.5951,-3.6673,-3.6545,-3.569,-3.5948,-3.502,-3.3221,-3.2766,-3.2588,-3.2612,-3.2764,-3.2817,-3.2908,0.0,0.0,0.0,0.0,0.0,0.0,0.0,0.0,0.0,-3.087,-3.1586,-3.2394,-3.2546,-3.3183,-3.4082,-3.5385,-3.7074,-3.8924,-4.0852,-4.3626,-4.6581,-4.9187,-5.0637,-5.2087,-5.4399,-5.4876,-5.4968,-5.5299,-5.5097,-5.5133,-5.5941,-5.6748,-5.7446,-5.7923,-5.7997,-5.7997,-5.7997,-5.7997,-5.795,-5.7815,-5.7862,-5.7792,-5.7553,-5.7649,-5.7601,-5.7338,-5.7363,-5.7338,-5.7188,-5.7188,-5.7188,-5.7188,-5.6582,-5.6311,-5.6284,-5.5676,-5.5443,-5.5525,-5.5159,-5.4795,-5.4359,-5.375,-5.3501,-5.3501,-5.3501,-5.3501,-5.3501,-5.3501,-5.3501,-5.3501,-5.3501,-5.3501,-5.3501,0.0,0.0,0.0,0.0,0.0,0.0,0.0,0.0,0.0,0.0,-2.7299,-2.7299,0.0,0.0,0.0,0.0,0.0,0.0,0.0,0.0,-2.7627,-2.8368,-2.8912,-3.0259,-3.2459,-3.3876,-3.4424,-3.4059,-3.5045,-3.5751,-3.6174,-3.6174,-3.6597,-3.7331,-3.6164,-3.5344,-3.4811,-3.3629,-3.2925,-3.2557,-3.2265,-3.219,-3.2335,-3.2987,0.0,0.0,0.0,0.0,0.0,0.0,0.0,0.0,-3.0448,-3.0301,-3.0687,-3.2069,-3.3109,-3.4486,-3.7643,-3.9184,-4.0469,-4.2909,-4.4929,-4.7352,-5.1224,-5.3298,-5.4601,-5.5335,-5.5592,-5.5923,-5.6675,-5.6253,-5.6051,-5.6804,-5.7519,-5.7997,-5.7997,-5.7997,-5.7997,-5.7973,-5.7997,-5.795,-5.7768,-5.7792,-5.7673,-5.7388,-5.7504,-5.7461,-5.7213,-5.7332,-5.7332,-5.7188,-5.7138,-5.7112,-5.7112,-5.6474,-5.6128,-5.6128,-5.5531,-5.4905,-5.4313,-5.4359,-5.4359,-5.4281,-5.3717,-5.3501,-5.3501,-5.3501,-5.3501,-5.3501,-5.3501,-5.3501,-5.3501,-5.3501,-5.3501,-5.3501,0.0,0.0,0.0,0.0,0.0,0.0,0.0,0.0,0.0,0.0,0.0,0.0,0.0,0.0,0.0,0.0,0.0,0.0,0.0,0.0,-2.7627,-2.8368,-3.0434,-3.2388,-3.4145,-3.4406,-3.4488,-3.439,-3.4269,-3.4582,-3.5279,-3.5279,-3.5752,-3.6523,-3.5571,-3.4747,-3.3972,-3.2457,-3.2109,-3.2601,-3.2517,-3.287,-3.3382,-3.293,-3.2546,0.0,0.0,0.0,0.0,0.0,0.0,0.0,-3.0448,-3.106,-3.2032,-3.1733,-3.2669,-3.4247,-3.6266,-3.8322,-4.0469,-4.2909,-4.6654,-5.0306,-5.2454,-5.3702,-5.4454,-5.462,-5.5666,-5.6602,-5.6785,-5.7171,-5.7538,-5.7703,-5.7886,-5.7997,-5.7997,-5.7997,-5.7973,-5.7857,-5.795,-5.7862,-5.7528,-5.7673,-5.7649,-5.7264,-5.7381,-5.7363,-5.7206,-5.7232,-5.7232,-5.7188,-5.6758,-5.6501,-5.6501,-5.5379,-5.4809,-5.4809,-5.4205,-5.3816,-5.3701,-5.4171,-5.4139,-5.3701,-5.3568,-5.3501,-5.3501,-5.3501,-5.3501,-5.3501,-5.3501,-5.3501,-5.3501,-5.3501,-5.3501,-5.3501,0.0,0.0,0.0,0.0,0.0,0.0,0.0,0.0,0.0,0.0,0.0,0.0,0.0,0.0,0.0,0.0,0.0,0.0,0.0,-2.7299,-2.7862,-2.9114,-3.1699,-3.3138,-3.3226,-3.3851,-3.3706,-3.2781,-3.2305,-3.2889,-3.4435,-3.5243,-3.5862,-3.6266,-3.5826,-3.5151,-3.427,-3.2669,-3.2228,-3.2601,-3.2601,-3.2381,-3.2118,-3.2472,-3.1885,-3.0913,-3.1274,0.0,0.0,0.0,0.0,0.0,0.0,0.0,-3.1439,-3.1415,-3.254,-3.4321,-3.678,-3.8927,-4.1332,-4.4911,-4.8324,-5.1224,-5.2839,-5.3537,-5.383,-5.383,-5.5115,-5.6345,-5.673,-5.7152,-5.7556,-5.7941,-5.795,-5.7927,-5.7997,-5.795,-5.7881,-5.7792,-5.7862,-5.7768,-5.7412,-5.7528,-5.7486,-5.7213,-5.7264,-5.7138,-5.6785,-5.7036,-5.6941,-5.6348,-5.6294,-5.6174,-5.5876,-5.49,-5.4391,-5.4391,-5.3783,-5.3501,-5.3501,-5.3849,-5.3816,-5.3501,-5.3501,-5.3501,-5.3501,-5.3501,-5.3501,-5.3501,-5.3501,-5.3501,-5.3501,-5.3501,-5.3501,-5.3501,0.0,0.0,0.0,0.0,0.0,0.0,0.0,0.0,0.0,0.0,0.0,0.0,0.0,0.0,0.0,0.0,0.0,0.0,0.0,-2.7466,-2.8366,-3.0203,-3.2526,-3.3257,-3.2146,-3.315,-3.2899,-3.1189,-3.0801,-3.1788,-3.4027,-3.5275,-3.6101,-3.6486,-3.6193,-3.5665,-3.4876,-3.2986,-3.2179,-3.2161,-3.1867,-3.1146,-3.032,-3.1372,-3.0693,-2.9372,-3.0723,-3.1195,-3.1329,-3.2271,0.0,0.0,0.0,0.0,-3.0503,-3.1035,-3.232,-3.4229,-3.7092,-3.9536,-4.2416,-4.7131,-4.9572,-5.1187,-5.2674,-5.3093,-5.3185,-5.3185,-5.4363,-5.5592,-5.6271,-5.662,-5.7024,-5.7685,-5.7812,-5.7862,-5.7973,-5.7862,-5.7792,-5.7768,-5.7768,-5.7673,-5.7388,-5.7406,-5.7338,-5.7213,-5.7112,-5.6837,-5.6339,-5.6785,-5.6555,-5.5443,-5.5876,-5.5848,-5.5236,-5.4548,-5.4249,-5.4218,-5.3717,-5.3501,-5.3501,-5.3501,-5.3501,-5.3501,-5.3501,-5.3501,-5.3501,-5.3501,-5.3501,-5.3501,-5.3501,-5.3501,-5.3501,-5.3501,-5.3501,-5.3501,0.0,0.0,0.0,0.0,0.0,0.0,0.0,0.0,0.0,0.0,-2.7299,-2.7299,-2.7299,-2.7299,0.0,0.0,0.0,0.0,-2.7299,0.0,0.0,-3.1298,-3.2341,-3.3267,-3.4086,-3.3617,-3.3033,-3.2365,-3.2313,-3.3151,-3.4839,-3.4357,-3.5275,-3.729,-3.5811,-3.5114,-3.4802,-3.1794,-3.0522,-3.0393,-2.8998,-2.9145,-3.0063,-2.8888,-2.9108,-3.0081,-3.0283,-3.0356,-3.0595,-3.2087,-3.2528,0.0,0.0,0.0,-3.1109,-3.0522,-3.1513,-3.3005,-3.4156,-3.8212,-4.313,-4.7278,-4.9572,-5.1041,-5.194,-5.2711,-5.3185,0.0,-5.394,-5.4583,-5.4693,-5.5868,-5.684,-5.695,-5.7515,-5.7973,-5.7997,-5.7862,-5.7745,-5.7649,-5.7625,-5.7528,-5.7239,-5.7313,-5.7338,-5.7213,-5.6732,-5.6393,-5.6311,-5.6366,-5.6118,-5.5414,-5.5437,-5.5154,-5.4548,-5.3931,-5.3618,-5.3618,-5.3534,-5.3501,-5.3501,-5.3501,-5.3501,-5.3501,-5.3501,-5.3501,-5.3501,-5.3501,-5.3501,-5.3501,-5.3501,-5.3501,-5.3501,-5.3501,-5.3501,-5.3501,0.0,0.0,0.0,0.0,0.0,0.0,0.0,0.0,0.0,0.0,0.0,-2.7299,-2.7299,-2.7299,0.0,0.0,0.0,0.0,-2.7509,-2.8076,0.0,-3.0253,-3.0772,-3.1276,-3.1811,-3.1651,-3.1451,-3.1262,-3.0356,-3.1916,-3.5697,-3.4412,-3.5605,-3.8759,-3.667,-3.5734,-3.5481,-3.177,-3.0467,-3.076,-2.9604,-3.0118,-3.1372,-2.9751,-2.9861,-3.0742,-2.9861,-2.9537,-2.9757,-3.1384,-3.1935,-3.1861,-3.1513,0.0,0.0,0.0,-3.0668,-3.2596,-3.5697,-3.9368,-4.3167,-4.6746,-4.8507,-4.9866,-5.1591,-5.227,-5.2656,-5.3115,-5.3482,-5.3867,-5.4326,-5.4987,-5.5757,-5.6657,-5.7029,-5.7414,-5.7941,-5.7815,-5.7673,-5.7601,-5.7528,-5.7412,-5.7213,-5.7239,-5.7264,-5.7188,-5.6635,-5.6146,-5.5819,-5.5791,-5.5355,-5.4365,-5.4641,-5.4516,-5.3898,-5.3651,-5.3501,-5.3501,-5.3501,-5.3501,-5.3501,-5.3501,-5.3501,-5.3501,-5.3501,-5.3501,-5.3501,-5.3501,-5.3501,-5.3501,-5.3501,-5.3501,-5.3501,-5.3501,-5.3501,-5.3501,0.0,0.0,0.0,0.0,0.0,0.0,0.0,0.0,0.0,0.0,0.0,0.0,-2.7373,0.0,0.0,0.0,0.0,0.0,-2.7901,0.0,0.0,0.0,0.0,-2.9631,-2.9813,-3.0064,-3.0008,-2.9586,-2.8998,-3.1201,-3.5954,-3.533,-3.711,-4.0724,-3.8285,-3.6872,-3.6064,-3.2596,-3.1347,-3.1623,-3.0834,-3.1347,-3.2509,-3.172,-3.1935,-3.2412,-3.0564,-2.9904,-3.0069,-3.1054,-3.114,-3.0852,-3.1268,-3.1109,0.0,0.0,0.0,-3.1806,-3.6505,-3.9239,-4.1607,-4.5021,-4.6782,-4.8288,0.0,0.0,-5.1665,0.0,-5.2913,-5.3151,-5.3959,-5.4252,-5.4785,-5.5996,-5.6438,-5.6868,-5.7565,-5.7617,-5.7601,-5.7553,-5.7412,-5.7307,-5.7206,-5.7188,-5.7188,-5.7188,-5.6501,-5.5876,-5.5414,-5.5367,-5.4782,-5.3534,-5.4252,-5.4267,-5.3501,-5.3501,-5.3501,-5.3501,-5.3501,-5.3501,-5.3501,-5.3501,-5.3501,-5.3501,-5.3501,-5.3501,-5.3501,-5.3501,-5.3501,-5.3501,-5.3501,-5.3501,-5.3501,-5.3501,-5.3501,-5.3501,0.0,0.0,0.0,0.0,0.0,0.0,0.0,0.0,0.0,0.0,0.0,0.0,-2.7572,-2.7069,-2.7025,-2.798,0.0,0.0,0.0,0.0,0.0,0.0,0.0,0.0,-3.0167,-3.0179,-2.9457,-2.7915,-3.013,-3.254,-3.5133,-3.7404,-4.0194,-4.3221,-4.0797,-3.8432,-3.6174,-3.4376,-3.3201,-3.2472,-3.1659,-3.1843,-3.2766,-3.4197,-3.5279,-3.5734,-3.328,-3.2399,-3.2307,-3.1623,-3.0393,-2.939,-3.0907,-3.0356,-2.9115,0.0,0.0,0.0,-3.4087,-3.5885,0.0,-4.1552,-4.4305,-4.6452,0.0,0.0,-5.018,-5.1738,-5.205,-5.2307,-5.3115,-5.3904,-5.4436,-5.4509,-5.5812,-5.6754,-5.6681,-5.7198,-5.7553,-5.7431,-5.7289,-5.7206,-5.7188,-5.7188,-5.7188,-5.7188,-5.6128,-5.5414,-5.5385,-5.5349,-5.4747,-5.3534,-5.4707,-5.4738,-5.3501,-5.3501,-5.3501,-5.3501,-5.3501,-5.3501,-5.3501,-5.3501,-5.3501,-5.3501,-5.3501,-5.3501,-5.3501,-5.3501,-5.3501,-5.3501,-5.3501,-5.3501,-5.3501,-5.3501,-5.3501,-5.3501,0.0,0.0,0.0,0.0,0.0,0.0,0.0,0.0,0.0,0.0,0.0,0.0,0.0,-2.642,-2.6753,-2.7098,-2.7915,0.0,0.0,0.0,0.0,0.0,0.0,0.0,-2.9409,-2.9953,-2.9916,-2.9347,-2.865,-3.0613,-3.5004,-3.4839,-3.6798,-4.0377,-3.9515,-3.8652,-3.7606,-3.3844,-3.2687,-3.3311,-3.2504,-3.3917,-3.6468,-3.6009,-3.6982,-3.8285,-3.5844,-3.4284,-3.3421,-3.3628,-3.2638,-3.1317,-3.1384,-3.0999,-3.0338,-2.9299,-2.9372,-3.0308,-3.2784,0.0,0.0,-3.9863,-4.2194,-4.4158,-4.6287,-4.7792,-4.9077,-5.0235,-5.0857,-5.1481,-5.2289,-5.3096,-5.3812,-5.4326,-5.4876,-5.5383,-5.5784,-5.6413,-5.6787,-5.6649,-5.698,-5.7061,-5.6679,-5.6966,-5.7036,-5.6635,-5.5812,-5.5349,-5.5385,-5.4614,-5.3963,-5.3501,-5.3948,-5.3948,-5.3501,-5.3501,-5.3501,-5.3501,-5.3501,-5.3501,-5.3501,-5.3501,-5.3501,-5.3501,-5.3501,-5.3501,-5.3501,-5.3501,-5.3501,-5.3501,-5.3501,-5.3501,-5.3501,-5.3501,-5.3501,-5.3501,0.0,0.0,0.0,0.0,0.0,0.0,0.0,0.0,-2.7151,-2.6697,0.0,0.0,0.0,0.0,-2.6894,-2.6991,-2.7573,-2.793,-2.793,-2.6838,0.0,0.0,0.0,0.0,-2.9372,-3.0191,-3.0338,-2.9794,-2.8741,-2.9989,-3.3371,-3.3115,-3.4747,-3.7863,-3.7019,-3.7569,-3.8909,-3.5917,-3.4963,-3.5459,-3.5445,-3.6927,-3.9093,-3.9129,-3.9955,-4.0818,-3.8689,-3.7019,-3.5844,-3.5844,-3.4399,-3.2509,-3.1971,-3.1054,-3.0026,-2.9225,-2.9574,-3.043,-3.15,0.0,0.0,0.0,-4.0102,-4.1864,-4.4819,-4.6122,-4.715,-4.882,-4.9591,-5.0306,-5.1389,-5.2252,-5.3059,-5.3867,-5.4216,-5.4517,-5.4875,-5.555,-5.5944,-5.5777,-5.6151,-5.6273,-5.5937,-5.6266,-5.6445,-5.6321,-5.5478,-5.5112,-5.5385,-5.4379,-5.3816,-5.3816,-5.3618,-5.3501,-5.3501,-5.3501,-5.3501,-5.3501,-5.3501,-5.3501,-5.3501,-5.3501,-5.3501,-5.3501,-5.3501,-5.3501,-5.3501,-5.3501,-5.3501,-5.3501,-5.3501,-5.3501,-5.3501,-5.3501,-5.3501,-5.3501,0.0,0.0,0.0,0.0,0.0,0.0,0.0,0.0,-2.6664,-2.6841,0.0,0.0,0.0,0.0,0.0,-2.7849,-2.7145,-2.6657,-2.6649,-2.587,0.0,0.0,0.0,0.0,-3.0136,-3.0999,-3.0632,-2.9005,-3.054,-3.0889,-3.0173,-3.2522,-3.4523,-3.6046,-3.3697,-3.5275,-3.9772,-4.0506,-3.9994,-3.8836,-4.0361,-4.0598,-4.0341,-4.3479,-4.4213,-4.3369,-4.1792,-4.0708,-3.9753,-3.8172,-3.5495,-3.2803,-3.2693,-3.0485,-2.8044,-2.8803,-2.961,-3.0228,0.0,0.0,0.0,0.0,0.0,0.0,-4.3626,0.0,-4.4323,-4.7498,-4.8214,-4.8746,-5.0417,-5.1389,-5.2197,-5.3041,-5.3849,-5.4276,-5.4013,-5.4665,-5.5101,-5.4894,-5.4888,-5.4939,-5.5009,-5.5044,-5.5392,-5.6114,-5.5059,-5.4637,-5.529,-5.4717,-5.4359,-5.4359,-5.3816,-5.3501,-5.3501,-5.3501,-5.3501,-5.3501,-5.3501,-5.3501,-5.3501,-5.3501,-5.3501,-5.3501,-5.3501,-5.3501,-5.3501,-5.3501,-5.3501,-5.3501,-5.3501,-5.3501,-5.3501,-5.3501,-5.3501,-5.3501,0.0,0.0,0.0,0.0,0.0,-2.6616,-2.6912,-2.6543,-2.6284,0.0,0.0,0.0,-2.6493,-2.7562,-2.8615,-2.9452,-2.8803,-2.8088,-2.7512,-2.6164,-2.5852,-2.6888,-2.8051,-2.8877,-2.9317,-3.1262,-3.1188,-2.9005,-2.887,-2.8679,-2.8466,-2.9145,-3.0644,-3.2792,-3.3256,-3.4229,-3.5422,-3.4486,-3.5862,-3.8689,-3.8542,-4.0118,-4.2598,-4.3479,-4.4415,-4.5168,-4.4727,-4.3681,-4.2341,-4.1313,-3.9588,-3.7477,-3.5096,-3.254,-3.0332,-2.9971,-3.0448,-3.0944,-3.0356,0.0,0.0,0.0,0.0,0.0,0.0,0.0,-4.2359,-4.4397,-4.5755,-4.7058,-4.8691,-4.9682,-5.073,-5.2105,-5.3004,-5.3454,-5.3306,-5.3957,-5.4269,-5.373,-5.4424,-5.4482,-5.3263,-5.3839,-5.4027,0.0,-5.3515,-5.3691,-5.3875,-5.3817,-5.375,-5.375,-5.3584,-5.3501,-5.3501,-5.3501,-5.3501,-5.3501,-5.3501,-5.3501,-5.3501,-5.3501,-5.3501,-5.3501,-5.3501,-5.3501,-5.3501,-5.3501,-5.3501,-5.3501,-5.3501,-5.3501,-5.3501,-5.3501,-5.3501,-5.3501,0.0,0.0,0.0,-2.7806,-2.7851,-2.7873,-2.7877,-2.7459,-2.7152,0.0,0.0,0.0,-2.8269,-2.9503,-3.0258,-3.0198,-2.9163,-2.8172,-2.7346,-2.6109,-2.5613,-2.608,-2.764,-2.8656,-2.8987,-3.1353,-3.1574,-2.95,-2.9365,-2.8613,-2.731,-2.764,-2.8356,-2.9439,-3.0375,-3.1531,-3.2687,-3.1072,-3.322,-3.7826,-3.9383,-4.1422,-4.3625,-4.4617,-4.5792,-4.6911,-4.6911,-4.6085,-4.4929,-4.447,-4.2121,-3.8872,-3.5922,-3.3793,-3.2173,-3.1035,-3.1751,-3.2651,-3.15,-3.2381,0.0,0.0,0.0,0.0,-3.8762,-3.968,-4.0763,0.0,-4.425,-4.5388,-4.7003,-4.7994,-4.8967,-5.0251,-5.097,-5.1743,-5.2852,-5.3401,-5.3453,-5.2786,-5.3255,-5.3192,-5.2027,-5.2418,-5.2586,-5.2235,-5.2348,-5.2418,-5.2418,-5.2801,-5.301,-5.301,-5.3331,-5.3501,-5.3501,-5.3501,-5.3501,-5.3501,-5.3501,-5.3501,-5.3501,-5.3501,-5.3501,-5.3501,-5.3501,-5.3501,-5.3501,-5.3501,-5.3501,-5.3501,-5.3501,-5.3501,-5.3501,-5.3501,-5.3501,-5.3501,0.0,0.0,-2.7922,-2.8531,-2.9179,-2.9689,-2.9893,-2.9201,-2.8736,0.0,-2.9208,-3.0019,-3.1885,-3.2559,-3.2326,-3.0999,-2.9145,-2.7732,-2.6914,-2.5962,-2.5393,-2.5393,-2.6935,-2.8172,-2.8987,-3.128,-3.1678,-3.0081,-3.0687,-2.9439,-2.6484,-2.7108,-2.7016,-2.6337,-2.6429,-2.8117,-3.0809,-2.9812,-3.2082,-3.6688,-4.1167,-4.3277,-4.4011,-4.6342,-4.7791,-4.8581,-4.8581,-4.8103,-4.748,-4.7296,-4.3664,-3.8836,-3.6527,-3.5188,-3.4156,-3.2553,-3.366,-3.5078,-3.3555,-3.4252,0.0,0.0,-3.6486,0.0,-3.9038,-3.9093,-3.9515,0.0,-4.3111,-4.3699,-4.5223,-4.6195,-4.702,-4.7773,-4.8293,-4.9539,-5.2291,-5.2619,-5.2395,-5.1802,-5.1656,-5.1438,-5.1049,-5.092,-5.1154,-5.1808,-5.1364,-5.11,-5.1185,-5.1826,-5.2181,-5.2181,-5.2959,-5.3365,-5.3365,-5.3467,-5.3501,-5.3501,-5.3501,-5.3501,-5.3501,-5.3501,-5.3501,-5.3501,-5.3501,-5.3501,-5.3501,-5.3501,-5.3501,-5.3501,-5.3501,-5.3501,-5.3501,-5.3501,-5.3501,-5.3501,0.0,-2.7392,-2.7703,-2.867,-2.8613,-2.8955,-3.0532,-2.9709,-2.9624,-3.1565,-3.2957,-3.4394,-3.6134,-3.5257,-3.4692,-3.5073,-3.1806,-2.9402,-2.8583,-2.6557,-2.5393,-2.5393,-2.6935,-2.8172,-2.8987,-3.0723,-3.0852,-2.9225,-2.8741,-2.7523,-2.5613,-2.5136,-2.4814,-2.4704,-2.5356,-2.6337,-2.7732,-3.0656,-3.3605,-3.6486,-3.8744,-4.1956,-4.5626,-4.7388,-4.9003,-5.0306,-5.0306,-5.0215,-4.9884,-4.8507,-4.5608,-4.2359,-4.124,-3.9882,-3.8377,-3.6776,-3.7092,-3.7771,-3.6813,-3.7239,0.0,0.0,-3.7734,0.0,-3.7184,-3.7881,-3.8891,0.0,-4.0671,-4.1864,-4.2837,-4.3926,-4.4835,-4.5333,-4.6504,-4.8111,-5.0286,-5.0272,-5.002,-5.0063,-5.0236,-5.0207,-4.9875,-4.9997,-4.9978,-4.9654,-5.006,-5.0574,-5.1183,-5.1352,-5.1388,-5.1388,-5.2147,-5.2536,-5.2536,-5.3179,-5.3501,-5.3501,-5.3501,-5.3501,-5.3501,-5.3501,-5.3501,-5.3501,-5.3501,-5.3501,-5.3501,-5.3501,-5.3501,-5.3501,-5.3501,-5.3501,-5.3501,-5.3501,-5.3501,-5.3501,-2.7572,-2.7912,-2.8358,-2.9169,-2.9775,-3.0594,-3.1944,-3.1717,-3.2137,-3.4174,-3.6211,-3.7606,-3.8046,-3.7716,-3.7129,-3.6376,-3.366,-3.1311,-2.9702,-2.8099,-2.6649,-2.5448,-2.6935,-2.7989,-2.8393,-3.0356,-3.0999,-3.021,-2.9384,-2.8172,-2.6568,-2.5356,-2.5227,-2.5988,-2.5988,-2.7346,-2.9666,-3.0895,-3.3311,-3.6615,-4.0249,-4.3864,-4.7278,-4.893,-5.0582,-5.194,-5.1536,-5.1389,-5.0949,-4.8067,-4.603,-4.4342,-4.2341,-4.1699,-4.1311,-3.9292,-3.9551,-4.023,-3.9019,-3.8982,-3.9203,-3.8796,-3.8689,0.0,0.0,-3.7808,-3.8432,-3.9662,-4.0065,-4.0569,-4.1773,-4.1995,-4.233,-4.3354,-4.3933,-4.4765,-4.615,-4.8066,-4.9243,-4.9073,-4.9108,-4.8977,-4.8529,-4.8819,-4.9001,-4.8998,-4.934,-4.9712,-5.0084,-5.0456,-5.0659,-5.0659,-5.1369,-5.1758,-5.1758,-5.252,-5.2909,-5.2909,-5.3315,-5.3501,-5.3501,-5.3501,-5.3501,-5.3501,-5.3501,-5.3501,-5.3501,-5.3501,-5.3501,-5.3501,-5.3501,-5.3501,-5.3501,-5.3501,-5.3501,-5.3501,-2.7794,-2.8488,-2.9101,-2.9828,-3.1197,-3.2512,-3.3484,-3.4004,-3.4926,-3.6762,-3.8817,-3.9992,-3.9662,-3.9937,-3.9533,-3.8046,-3.5697,-3.3513,-3.1715,-3.0118,-2.8429,-2.6623,-2.7357,-2.8018,-2.8466,-3.0258,-3.1091,-3.0944,-3.0136,-2.9072,-2.775,-2.6146,-2.6256,-2.778,-2.7291,-2.9115,-3.2528,-3.1384,-3.344,-3.7881,-4.2745,-4.5681,-4.7407,-4.9682,-5.1371,-5.2472,-5.2289,-5.2123,-5.1444,-4.781,-4.6489,-4.5828,-4.2746,-4.28,-4.3533,-4.1275,-4.1625,-4.2433,-4.0983,-4.0708,-4.0708,-4.0249,-3.9882,-3.9423,0.0,0.0,0.0,-4.0084,-3.9763,0.0,0.0,0.0,0.0,-4.1286,0.0,0.0,0.0,-4.5393,0.0,-4.7497,-4.7457,-4.742,-4.7292,-4.7534,-4.7933,-4.8528,-4.8578,-4.8646,-4.8781,-4.9492,-4.9881,-4.9881,-5.0608,-5.0997,-5.0997,-5.186,-5.23,-5.2317,-5.3129,-5.3501,-5.3501,-5.3501,-5.3501,-5.3501,-5.3501,-5.3501,-5.3501,-5.3501,-5.3501,-5.3501,-5.3501,-5.3501,-5.3501,-5.3501,-5.3501,-5.3501,-2.7601,-2.8358,-2.9248,-3.0609,-3.1606,-3.2783,-3.4535,-3.5504,-3.6853,-3.9184,-4.0359,-4.1479,-4.28,-4.1772,-4.1701,-4.3572,-3.9019,-3.6193,-3.6648,-3.2522,-3.0265,-3.0699,-2.8833,-2.8808,-3.0938,-3.0558,-2.9989,-2.9262,-2.8466,-2.797,-2.775,-2.6146,-2.6256,-2.7835,-2.8455,-3.0179,-3.2619,-3.3164,-3.6578,-4.1809,-4.3883,-4.4011,-4.3479,-4.8013,-4.9793,-5.0196,-5.2325,-5.2619,-5.1683,-4.9738,-4.8618,-4.759,-4.5076,-4.4911,-4.5278,-4.3589,0.0,0.0,0.0,0.0,0.0,0.0,-4.1974,-4.2027,-3.8447,0.0,-3.9294,-3.8153,0.0,0.0,0.0,0.0,0.0,0.0,0.0,0.0,-3.9729,-4.1464,-4.3068,-4.3704,-4.4208,-4.5007,-4.6299,-4.6271,-4.6389,-4.7018,-4.7039,-4.7344,-4.7973,-4.8731,-4.912,-4.912,-4.983,-5.0219,-5.0219,-5.1606,-5.23,-5.2317,-5.3129,-5.3501,-5.3501,-5.3501,-5.3501,-5.3501,-5.3501,-5.3501,-5.3501,-5.3501,-5.3501,-5.3501,-5.3501,-5.3501,-5.3501,-5.3501,-5.3501,-5.3501,-2.7689,-2.7962,-2.8679,-3.036,-3.073,-3.1688,-3.4313,-3.761,-4.0157,-4.1148,-4.2415,-4.3626,-4.4764,-4.3883,-4.359,-4.4599,-4.168,-3.9129,-3.7603,-3.5128,-3.3256,-3.2137,-3.1127,-3.0834,-3.1397,-3.0613,-3.0026,-2.9702,-2.7952,-2.7108,-2.709,-2.5925,-2.7008,-2.9909,-3.0246,-3.2797,-3.6798,-3.6193,-3.7588,-4.0396,-4.247,-4.2616,-4.2341,-4.9114,-5.1665,-5.1793,-5.2839,-5.2986,-5.238,0.0,-4.9003,0.0,0.0,0.0,0.0,-4.4947,0.0,0.0,0.0,0.0,0.0,0.0,0.0,0.0,-3.9604,-3.9038,-3.9129,0.0,0.0,0.0,0.0,0.0,0.0,0.0,-3.8752,0.0,0.0,0.0,-4.0498,0.0,0.0,0.0,-4.4067,-4.4524,-4.5126,-4.6104,-4.616,-4.6684,-4.7821,-4.8176,-4.8578,-4.8984,-4.9306,-4.9458,-4.9458,-5.093,-5.1674,-5.1691,-5.2909,-5.3501,-5.3501,-5.3501,-5.3501,-5.3501,-5.3501,-5.3501,-5.3501,-5.3501,-5.3501,-5.3501,-5.3501,-5.3501,-5.3501,-5.3501,-5.3501,-5.3501,-2.7762,-2.8109,-2.8945,-3.0591,-3.0689,-3.1719,-3.5139,-3.9061,-4.1791,-4.2249,-4.3332,-4.4599,-4.6067,-4.5516,-4.548,-4.6599,-4.4819,-4.2616,-4.0267,-3.834,-3.6578,-3.5004,-3.3628,-3.2871,-3.2742,-3.1494,-3.076,-3.0522,-2.8558,-2.7695,-2.7897,-2.6869,-2.8184,-3.1433,-3.2082,-3.5055,-3.9533,-3.9035,-3.979,-4.1479,-4.324,-4.414,-4.4984,-5.0233,-5.2637,-5.3185,-5.3185,-5.3185,-5.2876,-5.0655,-4.9499,0.0,-4.7755,-4.6617,-4.5773,0.0,0.0,0.0,-4.4103,0.0,0.0,0.0,0.0,0.0,0.0,0.0,0.0,0.0,0.0,0.0,0.0,0.0,0.0,0.0,0.0,-3.7997,0.0,-3.7823,0.0,0.0,0.0,0.0,0.0,-4.2407,-4.3282,-4.4942,-4.4891,-4.5517,-4.7225,-4.7669,-4.8156,-4.8697,-4.89,-4.9001,-4.9001,-5.027,-5.1014,-5.1202,-5.2553,-5.3298,-5.3501,-5.3501,-5.3501,-5.3501,-5.3501,-5.3501,-5.3501,-5.3501,-5.3501,-5.3501,-5.3501,-5.3501,-5.3501,-5.3501,-5.3501,-5.3501,-2.7701,-2.9104,-3.068,-3.1841,-3.2292,-3.3872,-3.7958,-3.9368,-4.0543,-4.2103,-4.2341,-4.3571,-4.6727,-4.6342,-4.7462,-5.1408,-4.882,-4.6892,-4.6801,-4.2396,-4.0102,-4.0802,-3.6285,-3.4504,-3.6101,-3.3757,-3.2137,-3.136,-3.0503,-3.0485,-3.1213,-2.9641,-2.9776,-3.1507,-3.383,-3.6325,-3.8891,-4.1185,-4.4415,-4.8012,-4.8086,-5.0013,-5.2601,0.0,-5.1169,-5.3185,-5.3185,0.0,0.0,-5.1316,-5.0747,0.0,0.0,0.0,0.0,0.0,0.0,0.0,0.0,0.0,0.0,-4.1939,0.0,0.0,0.0,0.0,-4.0685,0.0,0.0,0.0,0.0,0.0,0.0,0.0,0.0,0.0,0.0,0.0,0.0,0.0,0.0,0.0,0.0,-3.9842,-4.0518,0.0,-4.2811,-4.3386,-4.5652,-4.7111,-4.7906,-4.7922,-4.8646,-4.9001,-4.9001,-4.9746,-5.049,-5.1202,-5.1978,-5.2756,-5.3501,-5.3501,-5.3501,-5.3501,-5.3501,-5.3501,-5.3501,-5.3501,-5.3501,-5.3501,-5.3501,-5.3501,-5.3501,-5.3501,-5.3501,-5.3501,-2.9865,-3.0469,-3.0778,-3.0554,-3.0603,-3.2229,-3.6877,-4.0264,-4.3039,-4.5186,-4.5938,-4.7517,-5.0763,-5.0894,-5.1499,-5.3427,-5.2105,-5.0472,-4.8857,-4.5681,-4.3754,-4.348,-3.9863,-3.8102,-3.867,-3.572,-3.3537,-3.2192,-3.0852,-3.0081,-2.9794,-2.9244,-3.0143,-3.2302,-3.4761,-3.7808,-4.124,-4.3663,-4.5461,0.0,0.0,-5.027,-5.3093,0.0,-5.2491,-5.3185,-5.3185,-5.3185,0.0,-5.2582,-5.1683,-5.0802,-5.0765,-4.9627,-4.8361,-4.8673,-4.8343,-4.7792,0.0,0.0,-4.8233,-4.4416,0.0,0.0,0.0,0.0,0.0,0.0,0.0,0.0,0.0,0.0,0.0,0.0,0.0,0.0,0.0,0.0,0.0,0.0,0.0,0.0,0.0,0.0,-3.9966,-4.1813,-4.2168,0.0,-4.5585,-4.6633,-4.7411,-4.7872,-4.8629,-4.9001,-4.9001,-4.9729,-5.0219,-5.049,-5.1708,-5.2435,-5.2723,-5.3264,-5.3501,-5.3501,-5.3501,-5.3501,-5.3501,-5.3501,-5.3501,-5.3501,-5.3501,-5.3501,-5.3501,-5.3501,-5.3501,-5.3501,-3.0741,-3.0821,-3.0851,-3.0808,-3.1596,-3.3535,-3.7426,-4.1499,-4.4858,-4.6837,-4.8305,-5.0325,-5.3298,-5.3369,-5.3757,-5.5133,-5.4528,-5.2913,-5.0216,-4.8802,-4.7315,-4.5627,-4.3571,-4.2194,-4.1625,-3.8692,-3.638,-3.4766,-3.2839,-3.1647,-3.1133,-3.0546,-3.1115,-3.2711,-3.5495,-3.8469,-4.168,-4.5241,-4.7095,0.0,0.0,-5.1295,0.0,0.0,-5.3185,-5.3185,0.0,-5.3185,-5.3185,-5.3185,-5.2527,-5.1738,-5.2252,-5.1132,-4.9738,-5.029,-4.9848,-4.9132,-4.8838,-4.9554,0.0,-4.636,-4.5938,0.0,-4.1956,0.0,-4.3078,0.0,0.0,0.0,0.0,0.0,0.0,0.0,0.0,0.0,0.0,-3.6301,0.0,0.0,0.0,0.0,0.0,-3.7506,-3.856,-4.1018,-4.0916,0.0,0.0,-4.5602,-4.6481,-4.7479,-4.8223,-4.8748,-4.9001,-4.9475,-4.983,-5.0101,-5.1336,-5.2046,-5.2334,-5.3129,-5.3501,-5.3501,-5.3501,-5.3501,-5.3501,-5.3501,-5.3501,-5.3501,-5.3501,-5.3501,-5.3501,-5.3501,-5.3501,-5.3501,-3.0357,-3.04,-3.1166,-3.2797,-3.5148,-3.7515,-3.9617,-4.2996,-4.5797,-4.7112,-4.9444,-5.1903,-5.4308,-5.3904,-5.4341,-5.6675,-5.6161,-5.4399,-5.1298,-5.1738,-5.0729,-4.759,-4.7314,-4.6526,-4.5021,-4.2508,-4.0471,-3.8946,-3.6343,-3.5059,-3.5041,-3.3371,-3.2619,-3.2803,-3.6046,0.0,-4.0322,-4.5883,-4.926,-5.1004,-5.2582,-5.3185,-5.3185,-5.3185,-5.3185,-5.3185,-5.3185,-5.3185,-5.3185,-5.3185,-5.3185,-5.3185,-5.3185,-5.2674,-5.205,-5.205,-5.1518,-5.0747,-4.9996,-4.9776,-4.939,-4.77,-4.7241,0.0,0.0,0.0,-4.5535,0.0,0.0,0.0,0.0,0.0,0.0,0.0,0.0,0.0,0.0,0.0,0.0,0.0,0.0,0.0,0.0,-3.5965,-3.64,-4.0713,-3.9123,-3.9546,0.0,-4.4096,-4.5224,-4.6684,-4.7513,-4.8257,-4.9001,-4.9001,-4.9357,-5.005,-5.0845,-5.1589,-5.2283,-5.3129,-5.3501,-5.3501,-5.3501,-5.3501,-5.3501,-5.3501,-5.3501,-5.3501,-5.3501,-5.3501,-5.3501,-5.3501,-5.3501,-5.3501,-3.1409,-3.2965,-3.4941,-3.6863,-3.7016,-3.7682,-4.0048,-4.3451,-4.6725,-4.9498,-5.1977,-5.4399,-5.6804,-5.6895,-5.7024,-5.7648,-5.7501,-5.6785,-5.5354,-5.4326,-5.3408,-5.2564,-5.0196,-4.8985,-4.9242,-4.5057,-4.2671,-4.2268,-3.8046,-3.5973,-3.5917,-3.3647,-3.2913,-3.3605,0.0,-3.8741,-4.1077,-4.5517,-4.9077,-5.1775,-5.2803,-5.3185,-5.3185,0.0,-5.3185,-5.3185,-5.3185,-5.3185,-5.3185,-5.3185,-5.3185,-5.3185,-5.3185,-5.3078,-5.2894,-5.2894,-5.2747,-5.2546,-5.2325,-5.2289,-5.1903,-5.027,-4.9407,-4.8471,0.0,0.0,0.0,0.0,0.0,0.0,0.0,0.0,0.0,0.0,0.0,0.0,0.0,0.0,0.0,-3.7133,0.0,0.0,0.0,-3.6033,-3.6907,-3.8633,-3.8734,0.0,-4.2439,0.0,-4.4418,-4.594,-4.7242,-4.8257,-4.9001,-4.9001,-4.9103,-4.9306,-5.0591,-5.1319,-5.1539,-5.2892,-5.3501,-5.3501,-5.3501,-5.3501,-5.3501,-5.3501,-5.3501,-5.3501,-5.3501,-5.3501,-5.3501,-5.3501,-5.3501,-5.3501,-3.3352,-3.5717,-3.8161,-3.9246,-4.036,-4.1452,-4.2504,-4.4653,-4.729,-5.0397,-5.2894,-5.4913,-5.6271,-5.7373,-5.7997,-5.7997,-5.7997,-5.7354,-5.5849,-5.5886,-5.5354,-5.394,-5.3115,-5.2435,-5.1867,-4.8086,-4.5424,-4.4011,-3.9533,-3.6982,-3.6248,-3.4119,0.0,0.0,0.0,-3.8964,-4.091,-4.5993,-4.9646,-5.2068,-5.2794,-5.3103,0.0,-5.3039,-5.306,-5.3103,-5.3103,-5.3164,-5.3185,-5.3185,-5.3185,-5.3185,-5.3124,-5.3146,-5.3185,-5.306,-5.306,-5.3103,-5.3039,-5.3039,-5.2819,-5.1967,-5.1419,-5.0668,-4.8998,-4.9347,-4.9678,0.0,-4.7829,-4.728,0.0,0.0,0.0,0.0,0.0,0.0,0.0,0.0,0.0,0.0,-3.638,0.0,-3.4891,-3.5416,-3.6096,-3.6834,-3.7601,0.0,0.0,0.0,-4.3775,-4.5652,-4.6836,-4.7936,-4.8984,-4.9001,-4.9001,-4.9018,-5.0168,-5.0896,-5.1251,-5.2435,-5.3179,-5.3501,-5.3501,-5.3501,-5.3501,-5.3501,-5.3501,-5.3501,-5.3501,-5.3501,-5.3501,-5.3501,-5.3501,-5.3501,-3.5814,-3.85,-4.0826,-4.0817,-4.3898,-4.6307,-4.5983,-4.666,-4.8207,-5.0927,-5.3188,-5.4601,-5.4693,-5.6583,-5.7831,-5.7831,-5.7941,-5.7116,-5.5005,-5.684,-5.6748,-5.3937,-5.5739,-5.5776,-5.3573,-5.0894,-4.8031,-4.5003,-4.0781,-3.7881,-3.6266,0.0,0.0,0.0,0.0,0.0,0.0,-4.6948,-5.0398,-5.1922,-5.2785,-5.3163,-5.3142,-5.3142,-5.32,-5.3288,-5.3288,-5.3265,-5.3185,-5.3185,-5.3185,-5.3185,-5.3063,-5.3103,-5.3143,-5.2912,-5.2912,-5.2977,-5.2846,-5.2806,-5.2828,-5.2937,-5.2977,-5.259,-5.1122,-5.079,-5.0568,-4.9773,-4.8211,-4.7099,-4.7606,0.0,0.0,0.0,0.0,0.0,0.0,0.0,0.0,0.0,0.0,0.0,0.0,0.0,0.0,0.0,-3.6248,0.0,0.0,0.0,-4.2946,-4.5331,-4.621,-4.7361,-4.8849,-4.8951,-4.9001,-4.9018,-4.9847,-5.0591,-5.1219,-5.208,-5.2841,-5.3501,-5.3501,-5.3501,-5.3501,-5.3501,-5.3501,-5.3501,-5.3501,-5.3501,-5.3501,-5.3501,-5.3467,-5.3467,-3.8402,-4.0809,-4.2777,-4.286,-4.4528,-4.6611,-4.8916,-5.0256,-5.1694,-5.3537,-5.4711,-5.5629,-5.6308,-5.6767,-5.7024,-5.7024,-5.7611,-5.7813,-5.7391,-5.7776,-5.774,-5.7171,-5.6932,-5.629,-5.5188,-5.1501,-4.8618,0.0,0.0,-3.7881,-3.6266,0.0,0.0,0.0,0.0,0.0,-4.4121,-4.7939,0.0,-5.1167,-5.3188,-5.4005,-5.4056,-5.4583,-5.4775,-5.4798,-5.4798,-5.4111,-5.3185,-5.3185,-5.3185,-5.3185,-5.3164,-5.3185,-5.3164,-5.2999,-5.2977,-5.2977,-5.2846,-5.2806,-5.2824,-5.2828,-5.2846,-5.2666,-5.1935,-5.1746,-5.1574,-5.0941,-4.9212,-4.7561,-4.6819,0.0,0.0,0.0,0.0,0.0,0.0,0.0,0.0,0.0,0.0,-3.6435,0.0,0.0,0.0,0.0,0.0,0.0,0.0,0.0,-4.0882,0.0,-4.5162,-4.6599,0.0,0.0,-4.9001,-4.9018,-5.0371,-5.1082,-5.1236,-5.2655,-5.3365,-5.3501,-5.3501,-5.3501,-5.3501,-5.3501,-5.3501,-5.3501,-5.3501,-5.3501,-5.3501,-5.3501,-5.3382,-5.3264,-4.2825,-4.4176,-4.5182,-4.5434,-4.7756,-4.9996,-5.1179,-5.3135,-5.4326,-5.3849,-5.4473,-5.5133,-5.5519,-5.6675,-5.7428,-5.7428,-5.7776,-5.7997,-5.7997,-5.7997,-5.7997,-5.7997,-5.7629,-5.706,-5.6235,-5.3096,-5.0233,-4.7718,0.0,-3.9313,-3.6905,0.0,0.0,-3.4546,0.0,-4.1423,0.0,0.0,0.0,-5.2053,-5.3434,-5.4241,-5.4661,-5.4922,-5.5067,-5.5119,-5.5119,-5.4743,-5.4188,-5.3829,-5.343,-5.3082,-5.2999,-5.3039,-5.306,-5.282,-5.2779,-5.2783,-5.2667,-5.2622,-5.2645,-5.2694,-5.2698,-5.2563,-5.2018,-5.1897,-5.1732,-5.1121,-4.9504,-4.7622,-4.5698,-4.3464,0.0,0.0,0.0,0.0,0.0,0.0,-3.7706,0.0,0.0,0.0,0.0,0.0,0.0,0.0,0.0,-3.6705,-3.7811,0.0,-4.0764,0.0,0.0,0.0,-4.7872,0.0,-4.9001,-4.9018,-5.0118,-5.0828,-5.1251,-5.2367,-5.3112,-5.3501,-5.3501,-5.3501,-5.3501,-5.3501,-5.3501,-5.3501,-5.3501,-5.3501,-5.3501,-5.3501,-5.3382,-5.3213,-4.6307,-4.7166,-4.7785,-4.7942,-5.0931,-5.3211,-5.2939,-5.5117,-5.618,-5.4454,-5.4473,-5.4711,-5.4895,-5.6602,-5.774,-5.774,-5.7905,-5.7997,-5.7997,-5.7831,-5.7813,-5.7997,-5.7831,-5.7446,-5.6822,-5.4601,-5.1848,0.0,0.0,0.0,0.0,0.0,0.0,0.0,0.0,0.0,0.0,0.0,-5.0527,-5.3083,-5.3973,-5.4698,-5.5256,-5.5354,-5.5408,-5.5468,-5.5468,-5.5431,-5.5288,-5.4784,-5.4103,-5.3449,-5.3338,-5.3383,-5.3423,-5.3126,-5.2958,-5.284,-5.278,-5.2625,-5.2503,-5.2581,-5.2586,-5.2408,-5.1732,-5.1565,-5.1345,-5.0643,-4.9193,-4.7273,-4.4665,-4.3527,0.0,0.0,0.0,0.0,0.0,0.0,0.0,0.0,0.0,0.0,-3.5926,0.0,0.0,0.0,0.0,-3.6694,-3.7032,-3.87,-4.0637,0.0,0.0,-4.6109,-4.7415,0.0,-4.9001,-4.9018,-4.9915,-5.0642,-5.1219,-5.2147,-5.2909,-5.3501,-5.3501,-5.3501,-5.3501,-5.3501,-5.3501,-5.3501,-5.3501,-5.3501,-5.3501,-5.3467,-5.3314,-5.311,-4.6403,-4.8492,-5.0315,-4.9925,-5.1969,-5.3772,-5.4162,-5.5699,-5.6987,-5.7483,-5.6345,-5.5757,-5.651,-5.6785,-5.6914,-5.6914,-5.7574,-5.7997,-5.7997,-5.7317,-5.7244,-5.796,-5.7299,-5.6895,-5.6804,-5.5152,-5.2674,0.0,0.0,-4.247,0.0,0.0,0.0,0.0,0.0,0.0,0.0,-5.022,-5.2063,-5.3175,-5.5169,-5.6019,-5.6164,-5.6767,-5.6989,-5.6996,-5.6996,-5.6525,-5.5915,-5.5983,-5.5556,-5.4998,-5.4975,-5.4975,-5.4952,-5.4813,-5.4239,-5.3676,-5.359,-5.3059,-5.2498,-5.2521,-5.2503,-5.2209,-5.1043,-5.0787,-5.048,-4.9406,-4.798,-4.6248,-4.3936,-4.4092,-4.3848,0.0,0.0,0.0,0.0,0.0,-3.9016,-3.8834,0.0,0.0,-3.6711,-3.481,0.0,0.0,-3.5216,-3.6309,-3.7719,-3.799,-3.9123,-4.1339,-4.3538,-4.5077,-4.5906,-4.797,-4.9001,-4.9018,-5.0439,-5.1117,-5.1236,-5.2723,-5.3433,-5.3501,-5.3501,-5.3501,-5.3501,-5.3501,-5.3501,-5.3501,-5.3501,-5.3501,-5.3467,-5.3298,-5.311,-5.2903,-5.0957,-5.1351,-5.2011,-5.2806,-5.3282,-5.4075,-5.5617,-5.6497,-5.7224,-5.7895,-5.7428,-5.7152,-5.7483,-5.7519,-5.7519,-5.7519,-5.7813,-5.7997,-5.7997,-5.7703,-5.7666,-5.7997,-5.7685,-5.7519,-5.7519,-5.6418,-5.4491,0.0,0.0,0.0,0.0,0.0,0.0,0.0,0.0,-4.7991,-5.0021,-5.1691,-5.3371,-5.4974,-5.5777,-5.6375,-5.6847,-5.7105,-5.7188,-5.7188,-5.7188,-5.6989,-5.6742,-5.6767,-5.6031,-5.5078,-5.5078,-5.5078,-5.5073,-5.4967,-5.4707,-5.4339,-5.382,-5.3476,-5.3096,-5.2625,-5.2498,-5.2186,-5.0964,-5.0697,-5.0369,-4.9243,-4.7834,-4.6244,-4.4451,-4.4033,-4.3779,-4.3328,0.0,0.0,0.0,0.0,0.0,-3.9063,0.0,-3.728,0.0,-3.5131,0.0,0.0,0.0,-3.5402,-3.6462,-3.7415,-3.8717,-4.0468,0.0,-4.4942,-4.5703,-4.7902,-4.9001,-4.9018,-5.0507,-5.1185,-5.1236,-5.2807,-5.3501,-5.3501,-5.3501,-5.3501,-5.3501,-5.3501,-5.3501,-5.3501,-5.3501,-5.3501,-5.3467,-5.3264,-5.3076,-5.2868,-5.3664,-5.3411,-5.3598,-5.4888,-5.4954,-5.5366,-5.6901,-5.7271,-5.7522,-5.7932,-5.7997,-5.7997,-5.7997,-5.7997,-5.7997,-5.7997,-5.7997,-5.7997,-5.7997,-5.7776,-5.7758,-5.7997,-5.7776,0.0,-5.7997,-5.7207,-5.5849,-5.3922,-5.1051,0.0,0.0,0.0,0.0,0.0,-4.8779,-5.0698,-5.2556,-5.3425,-5.4732,-5.6219,-5.6314,-5.6681,-5.7188,-5.7188,-5.7188,-5.7188,-5.7188,-5.7188,-5.7188,-5.7188,-5.6495,-5.5644,-5.5644,-5.5644,-5.5644,-5.5601,-5.5414,-5.5063,-5.4314,-5.3778,-5.3267,-5.2503,-5.2155,-5.1719,-5.0688,-5.0452,-5.007,-4.8651,-4.7513,-4.6329,-4.4886,-4.413,-4.3859,-4.4181,0.0,0.0,0.0,-4.0882,0.0,-3.9089,-3.8159,-3.7364,-3.6846,-3.5424,0.0,0.0,0.0,0.0,-3.6546,-3.7432,0.0,0.0,0.0,0.0,-4.5703,-4.7902,-4.9001,-4.9018,-5.0507,-5.1185,-5.1236,-5.2807,-5.3501,-5.3501,-5.3501,-5.3501,-5.3501,-5.3501,-5.3501,-5.3501,-5.3501,-5.3501,-5.3467,-5.3195,-5.3007,-5.2868,-5.2897,-5.4115,-5.5221,-5.5785,-5.7029,-5.796,-5.7978,-5.7997,-5.7997,-5.7997,-5.7997,-5.7997,-5.7997,-5.7997,-5.7997,-5.7997,-5.7997,-5.7997,-5.7997,-5.7262,-5.7171,0.0,0.0,-5.7189,-5.7978,-5.7207,-5.64,-5.5578,0.0,0.0,-4.95,0.0,-4.9455,-5.194,-5.2498,-5.3295,-5.4257,-5.5593,-5.6164,-5.6273,-5.6912,-5.7188,-5.7188,-5.7188,-5.7188,-5.7188,-5.7188,-5.7188,-5.7188,-5.7188,-5.7188,-5.717,-5.717,-5.717,-5.717,-5.717,-5.6609,-5.5858,-5.5231,-5.3974,-5.2667,-5.2064,-5.1294,-5.0562,-5.0045,-4.9919,-4.9332,-4.7255,-4.6802,-4.6329,-4.4886,-4.4598,-4.4344,-4.3527,0.0,0.0,0.0,-4.0561,0.0,-3.9089,-3.7726,-3.6812,-3.6795,-3.5424,0.0,0.0,0.0,0.0,0.0,0.0,0.0,-4.1119,-4.343,0.0,-4.5703,-4.7902,-4.9001,-4.9018,-5.0507,-5.1185,-5.1236,-5.2807,-5.3501,-5.3501,-5.3501,-5.3501,-5.3501,-5.3501,-5.3501,-5.3501,-5.3501,-5.3501,-5.3467,-5.3058,-5.2903,-5.2834,-5.638,-5.677,-5.7139,-5.7301,-5.7358,-5.7522,-5.795,-5.7637,-5.7522,-5.795,-5.7997,-5.7997,-5.7997,-5.7997,-5.7997,0.0,-5.7997,-5.7997,0.0,-5.7758,-5.7721,-5.7997,-5.7666,-5.7629,-5.7997,-5.7577,-5.7,-5.6264,0.0,0.0,0.0,-5.1085,-5.1985,-5.3423,-5.4688,-5.5366,-5.5629,-5.6594,-5.6975,-5.6894,-5.7123,-5.7188,-5.7188,-5.7188,-5.7188,-5.7188,-5.7188,-5.7188,-5.7188,-5.7188,-5.7188,-5.7188,-5.7188,-5.6915,-5.6501,-5.6101,-5.5811,-5.5436,-5.4681,-5.4113,-5.3467,-5.2217,-5.1706,-5.1234,-5.0138,-4.9585,-4.8957,-4.778,-4.7141,-4.6498,-4.5534,-4.4925,-4.453,-4.4248,-4.3132,0.0,-4.1982,0.0,-4.0011,-3.9791,-3.8894,-3.8294,-3.8294,-3.6965,0.0,0.0,0.0,0.0,0.0,0.0,0.0,0.0,-4.391,0.0,-4.643,-4.8156,-4.9255,-4.9763,-5.0744,-5.1758,-5.279,-5.3281,-5.3501,-5.3501,-5.3501,-5.3501,-5.3501,-5.3501,-5.3501,-5.3501,-5.3348,-5.3298,-5.323,-5.2834,-5.2694,-5.2659,-5.6686,-5.6887,-5.7015,-5.7015,-5.6912,-5.6938,-5.7284,-5.704,-5.6938,-5.7327,-5.7351,-5.7351,-5.7351,-5.7351,0.0,-5.7973,-5.7997,-5.7997,-5.7997,-5.7997,-5.7973,-5.7927,-5.7839,-5.7815,-5.7857,-5.7697,0.0,-5.699,-5.553,-5.4459,-5.3731,-5.3931,-5.4505,-5.539,-5.6345,-5.6734,-5.6673,-5.7139,-5.7282,-5.7188,-5.7188,-5.7188,-5.7188,-5.7188,-5.7188,-5.7188,-5.7188,-5.7188,-5.7188,-5.7188,-5.7188,-5.7163,-5.6941,-5.6447,-5.5932,-5.5791,-5.556,-5.522,-5.4493,-5.4084,-5.3589,-5.2367,-5.1632,-5.0939,-4.9816,-4.9273,-4.8798,-4.8041,-4.731,-4.6566,-4.5838,-4.5094,-4.4615,-4.4615,-4.3328,-4.2286,-4.2286,0.0,-3.9994,0.0,0.0,0.0,0.0,-3.8244,-3.8132,0.0,0.0,0.0,0.0,0.0,-4.0696,-4.1999,-4.4434,-4.6194,-4.7208,-4.8409,-4.9373,-5.0101,-5.1133,-5.2283,-5.3501,-5.3501,-5.3501,-5.3501,-5.3501,-5.3501,-5.3501,-5.3501,-5.3501,-5.3501,-5.3348,-5.3264,-5.3144,-5.2834,-5.2659,-5.257,-5.462,-5.5091,-5.5473,-5.5473,-5.5915,-5.6303,-5.6303,-5.6303,-5.6303,-5.6303,-5.6303,-5.6303,-5.6276,-5.6303,-5.6704,-5.775,0.0,0.0,-5.7886,-5.7862,-5.7815,-5.7679,-5.7655,-5.7583,-5.7468,-5.7443,-5.7461,-5.751,-5.6806,-5.6848,-5.7559,-5.6811,-5.6842,-5.751,-5.7388,-5.7313,-5.7264,-5.7138,-5.7087,-5.7087,-5.7112,-5.7138,-5.7138,-5.7163,-5.7163,-5.7138,-5.7138,-5.7112,-5.7087,-5.7087,-5.7087,-5.6966,-5.6474,-5.5848,-5.5443,-5.5989,-5.5733,-5.5117,-5.4502,-5.3828,-5.3138,-5.2464,-5.1183,-4.9915,-4.9238,-4.9035,-4.8815,-4.8108,-4.7394,-4.665,-4.5923,-4.5162,-4.4666,-4.4615,-4.3328,-4.2286,-4.2286,-4.1044,-3.9859,0.0,0.0,0.0,-3.8278,-3.9394,-3.9893,0.0,0.0,0.0,0.0,0.0,-4.1373,-4.3477,-4.506,-4.6549,-4.7939,-4.8714,-4.9475,-5.0253,-5.1708,-5.279,-5.3501,-5.3501,-5.3501,-5.3501,-5.3501,-5.3501,-5.3501,-5.3501,-5.3501,-5.3467,-5.3467,-5.3348,-5.3144,-5.2938,-5.2729,-5.257,0.0,0.0,-5.6083,-5.6083,-5.6221,-5.6303,-5.6303,-5.6303,-5.6303,-5.6303,-5.6303,-5.6231,-5.6085,-5.6203,-5.6285,-5.6268,-5.6536,-5.6704,-5.6704,-5.6563,-5.6465,-5.6438,-5.6177,-5.6077,-5.6159,-5.5991,-5.6138,-5.6608,-5.6888,-5.7107,-5.7289,-5.7107,-5.6881,-5.6608,-5.6582,-5.6294,-5.5858,-5.5848,-5.5819,-5.5876,-5.6339,-5.6501,-5.6555,-5.7018,-5.6915,-5.6501,-5.6501,-5.6211,-5.5819,-5.5819,-5.5819,-5.5876,-5.6201,-5.5525,-5.4672,-5.4809,-5.4425,-5.3915,-5.3767,-5.3582,-5.326,-5.2485,-5.1183,-5.005,-4.9864,-4.9407,-4.8951,-4.8781,-4.8156,-4.7428,-4.6667,-4.594,-4.5263,-4.4699,-4.3328,-4.2286,-4.2286,-4.1044,-4.0248,0.0,-4.0679,-4.0832,-4.1221,-4.1068,-4.0865,0.0,0.0,-4.139,-4.1221,-4.2675,-4.4012,-4.5128,-4.6587,-4.7834,-4.8731,-4.9475,-5.049,-5.1792,-5.2756,-5.3315,-5.3501,-5.3501,-5.3501,-5.3501,-5.3501,-5.3501,-5.3501,-5.3501,-5.3416,-5.3264,-5.3093,-5.292,-5.2729,-5.257,-5.248,-5.2445,-5.5249,-5.5249,-5.5278,-5.5337,-5.5636,-5.5911,-5.5971,-5.6299,-5.6545,-5.6545,-5.6438,-5.636,-5.6221,-5.6221,-5.6161,-5.5941,-5.6069,-5.613,-5.6029,-5.5928,-5.5826,-5.577,-5.5599,-5.553,-5.5577,-5.5455,-5.556,-5.5876,-5.6211,-5.6375,-5.6375,-5.6375,-5.6211,-5.5876,-5.5876,-5.5705,-5.5385,-5.5385,-5.5385,-5.5414,-5.5762,-5.5876,-5.5932,-5.6239,-5.6184,-5.5876,-5.5876,-5.5676,-5.5385,-5.5385,-5.5385,-5.5443,-5.5808,-5.5201,-5.4391,-5.4391,-5.3979,-5.3501,-5.3501,-5.3501,-5.3315,-5.2503,-5.1691,-5.093,-5.0236,-4.9779,-4.9407,-4.9069,-4.8426,-4.78,-4.7394,-4.643,-4.5466,-4.4733,-4.3328,-4.2168,-4.183,-4.1102,-4.0747,-4.1153,-4.1508,-4.1863,-4.2252,-4.2252,-4.2083,-4.1728,-4.2354,0.0,-4.2743,-4.4581,-4.5618,-4.5703,-4.7111,-4.8426,-4.9492,-5.0574,-5.1505,-5.2317,-5.3129,-5.3501,-5.3501,-5.3501,-5.3501,-5.3501,-5.3501,-5.3501,-5.3501,-5.3501,-5.3382,-5.3179,-5.3076,-5.2868,-5.2589,-5.2535,-5.2445,-5.2409,-5.398,-5.4083,-5.4184,-5.4314,-5.4981,-5.5561,-5.569,-5.6291,-5.6722,-5.6755,-5.6589,-5.6438,-5.6421,-5.6303,-5.6184,-5.6116,-5.6059,-5.5941,-5.5789,-5.5637,-5.5525,-5.5396,-5.5261,-5.5184,-5.5117,-5.5207,-5.5236,-5.5236,-5.5355,-5.5385,-5.5385,-5.5385,-5.5355,-5.5236,-5.5236,-5.5207,-5.5087,-5.5087,-5.5087,-5.5117,-5.5207,-5.5236,-5.5266,-5.5355,-5.5325,-5.5236,-5.5236,-5.5177,-5.5087,-5.5087,-5.5087,-5.5117,-5.5207,-5.4813,-5.4281,-5.4359,-5.3979,-5.3501,-5.3501,-5.3501,-5.3348,-5.2655,-5.2384,-5.1978,-5.071,-5.0338,-5.005,-4.9323,-4.868,-4.8173,-4.7922,-4.6802,-4.5585,-4.475,-4.3328,-4.2033,-4.1305,0.0,-4.1288,-4.1508,-4.2185,-4.2726,-4.2946,-4.3453,-4.3538,-4.3014,-4.4107,-4.4818,-4.4936,-4.6227,-4.6684,-4.6058,-4.7479,-4.8951,-5.0405,-5.1674,-5.2367,-5.2486,-5.3179,-5.3501,-5.3501,-5.3501,-5.3501,-5.3501,-5.3501,-5.3501,-5.3501,-5.3467,-5.3348,-5.3144,-5.311,-5.2868,-5.257,-5.257,-5.2499,-5.2409,-5.398,-5.451,-5.4954,-5.4954,-5.5585,-5.6115,-5.6333,-5.6319,-5.6354,-5.6505,-5.6371,-5.6201,-5.6098,-5.6133,-5.6099,-5.5804,-5.5911,-5.6027,-5.6126,-5.5376,-5.4951,-5.4918,-5.4189,-5.3816,-5.38,-5.4299,-5.4548,-5.4548,-5.5117,-5.5385,-5.5385,-5.5385,-5.5117,-5.4548,-5.4548,-5.4267,-5.38,-5.38,-5.38,-5.3833,-5.4362,-5.4548,-5.461,-5.5177,-5.5056,-5.4548,-5.4548,-5.422,-5.38,-5.38,-5.38,-5.3882,-5.4376,-5.4124,-5.3717,-5.4249,-5.3979,-5.3501,-5.3501,-5.3501,-5.3467,-5.3348,-5.2807,-5.2232,-5.2012,-5.1488,-5.0828,-5.0067,-4.983,-4.9373,-4.8125,-4.7208,-4.6177,-4.4835,-4.3328,-4.2033,-4.1305,0.0,-4.166,-4.2902,-4.3758,-4.475,-4.5974,-4.5635,-4.5551,-4.6058,-4.5754,-4.5805,-4.6413,-4.7276,-4.7699,-4.7551,-4.8984,-5.0473,-5.1944,-5.2181,-5.2638,-5.3315,-5.345,-5.3501,-5.3501,-5.3501,-5.3501,-5.3501,-5.3501,-5.3501,-5.3501,-5.3298,-5.3127,-5.2938,-5.2764,-5.257,-5.2445,-5.2445,-5.2409,-5.2409,-5.4329,-5.4669,-5.5128,-5.5519,-5.5996,-5.6455,-5.6867,-5.7209,-5.7483,-5.7552,-5.7396,-5.7256,-5.7185,-5.7116,-5.7045,-5.6884,-5.6955,-5.7062,-5.7116,-5.5976,-5.5262,-5.5262,-5.4905,-5.4499,-5.4093,-5.4379,-5.4306,-5.3931,-5.4237,-5.4397,-5.4397,-5.4397,-5.4205,-5.3931,-5.3931,-5.375,-5.3501,-5.3501,-5.3501,-5.3534,-5.3816,-5.3931,-5.3946,-5.4269,-5.4173,-5.3931,-5.3931,-5.3717,-5.3501,-5.3501,-5.3501,-5.3568,-5.3832,-5.3717,-5.3551,-5.3832,-5.3734,-5.3501,-5.3501,-5.3501,-5.3501,-5.3501,-5.323,-5.2841,-5.2401,-5.2046,-5.1589,-5.0845,-5.0693,-5.0371,-4.9289,-4.8477,-4.7496,-4.6007,-4.4164,-4.2777,-4.2412,-4.2361,-4.2811,-4.391,-4.506,-4.6041,-4.6718,-4.6481,-4.643,-4.6769,-4.6481,-4.6616,-4.7361,-4.7733,-4.8244,-4.9069,-5.0135,-5.1217,-5.2283,-5.2739,-5.3129,-5.3501,-5.3501,-5.3501,-5.3501,-5.3501,-5.3501,-5.3501,-5.3501,-5.3433,-5.3348,-5.323,-5.3007,-5.2729,-5.2624,-5.2535,-5.2409,-5.2409,-5.2409,-5.2409,-5.482,-5.5124,-5.5515,-5.6078,-5.6481,-5.6923,-5.7411,-5.7991,-5.8384,-5.8419,-5.826,-5.8116,-5.8116,-5.8007,-5.7881,-5.7881,-5.7881,-5.7881,-5.7881,-5.685,-5.6139,-5.597,-5.5801,-5.5446,-5.4871,-5.4854,-5.4583,-5.4025,-5.3839,-5.3754,-5.3754,-5.3585,-5.3501,-5.3501,-5.3501,-5.3501,-5.3501,-5.3501,-5.3501,-5.3501,-5.3501,-5.3501,-5.3501,-5.3501,-5.3501,-5.3501,-5.3501,-5.3501,-5.3501,-5.3501,-5.3501,-5.3501,-5.3501,-5.3501,-5.3501,-5.3501,-5.3501,-5.3501,-5.3501,-5.3501,-5.3501,-5.3501,-5.3501,-5.3348,-5.2723,-5.2587,-5.2367,-5.1623,-5.1471,-5.1234,-5.049,-4.961,-4.8578,-4.7276,0.0,-4.3876,-4.3707,-4.3842,-4.4231,-4.5038,-4.6244,-4.7124,-4.7276,-4.731,-4.731,-4.731,-4.731,-4.7631,-4.8376,-4.8426,-4.9086,-5.0557,-5.1166,-5.1826,-5.257,-5.3196,-5.3501,-5.3501,-5.3501,-5.3501,-5.3501,-5.3501,-5.3501,-5.3501,-5.3501,-5.3382,-5.3195,-5.3144,-5.2903,-5.2605,-5.257,-5.2499,-5.2409,-5.2409,-5.2409,-5.2409,-5.5497,-5.619,-5.6681,-5.6714,-5.7306,-5.7853,-5.8103,-5.8046,-5.7991,-5.8188,-5.8044,-5.7918,-5.7918,-5.7935,-5.7881,-5.7881,-5.7881,-5.7881,-5.7881,-5.778,-5.7425,-5.6748,-5.6072,-5.5683,-5.5632,-5.5632,-5.5598,-5.5547,-5.4854,-5.4515,-5.4499,-5.3822,-5.3501,-5.3501,-5.3501,-5.3501,-5.3501,-5.3501,-5.3501,-5.3501,-5.3501,-5.3501,-5.3501,-5.3501,-5.3501,-5.3501,-5.3501,-5.3501,-5.3501,-5.3501,-5.3501,-5.3501,-5.3501,-5.3501,-5.3501,-5.3501,-5.3501,-5.3501,-5.3501,-5.3501,-5.3501,-5.3501,-5.3501,-5.3484,-5.3433,-5.3416,-5.3179,-5.2384,-5.2232,-5.1995,-5.1268,-4.9965,-4.8748,-4.7939,0.0,0.0,-4.4615,-4.5094,-4.5805,-4.6549,-4.7344,-4.8105,-4.8781,-4.8849,-4.8849,-4.8849,-4.8849,-4.9154,-4.9898,-4.9932,-5.0608,-5.2097,-5.2198,-5.2604,-5.3399,-5.3467,-5.3501,-5.3501,-5.3501,-5.3501,-5.3501,-5.3501,-5.3501,-5.3501,-5.3501,-5.3382,-5.3179,-5.3007,-5.2799,-5.2589,-5.248,-5.2409,-5.2409,-5.2409,-5.2409,-5.2409,-5.6241,-5.6985,-5.7476,-5.7476,-5.7695,-5.7935,-5.7991,-5.7971,-5.7918,-5.7991,-5.7971,-5.7881,-5.7881,-5.7881,-5.7881,-5.7881,-5.7881,-5.7881,-5.7881,-5.7881,-5.7763,-5.7492,-5.7205,-5.685,-5.6393,-5.6393,-5.6173,-5.5681,-5.5429,-5.5294,-5.5294,-5.5006,-5.4634,-5.4177,-5.4177,-5.3923,-5.3501,-5.3501,-5.3501,-5.3501,-5.3501,-5.3501,-5.3501,-5.3501,-5.3501,-5.3501,-5.3501,-5.3501,-5.3501,-5.3501,-5.3501,-5.3501,-5.3501,-5.3501,-5.3501,-5.3501,-5.3501,-5.3501,-5.3501,-5.3501,-5.3501,-5.3501,-5.3501,-5.3501,-5.3501,-5.3501,-5.3416,-5.3112,-5.3044,-5.2807,-5.2029,-5.142,-5.0659,-4.9458,0.0,-4.6972,-4.6701,-4.6481,-4.6667,-4.7394,-4.8139,-4.8697,-4.8984,-4.9407,-4.9678,-4.9678,-5.0118,-5.0507,-5.0777,-5.1217,-5.1725,-5.2283,-5.279,-5.3196,-5.3501,-5.3501,-5.3501,-5.3501,-5.3501,-5.3501,-5.3501,-5.3501,-5.3501,-5.3501,-5.3382,-5.3195,-5.3007,-5.2799,-5.264,-5.248,-5.2409,-5.2409,-5.2409,-5.2409,-5.2409,-5.2409,-5.7002,-5.7543,-5.7881,-5.7881,-5.7881,-5.7881,-5.7881,-5.7881,-5.7881,-5.7881,-5.7881,-5.7881,-5.7881,-5.7881,-5.7881,-5.7881,-5.7881,-5.7881,-5.7881,-5.7881,-5.7881,-5.7881,-5.7881,-5.7645,-5.7154,-5.7154,-5.69,-5.6393,-5.6173,-5.6055,-5.6055,-5.5818,-5.5446,-5.4955,-5.4955,-5.4668,-5.4194,-5.4194,-5.4194,-5.4194,-5.4194,-5.4194,-5.4194,-5.4194,-5.4059,-5.3856,-5.3856,-5.3704,-5.3501,-5.3501,-5.3501,-5.3501,-5.3501,-5.3501,-5.3501,-5.3501,-5.3501,-5.3501,-5.3501,-5.3501,-5.3501,-5.3501,-5.3501,-5.3501,-5.3501,-5.3501,-5.3501,-5.3501,-5.3501,-5.3331,-5.279,-5.2469,-5.1961,-5.0947,-4.9763,-4.8937,-4.8937,-4.8511,-4.8376,-4.8869,-4.939,-4.9695,-4.9695,-5.0152,-5.0439,-5.0439,-5.093,-5.1286,-5.1539,-5.2266,-5.2689,-5.2689,-5.3213,-5.3501,-5.3501,-5.3501,-5.3501,-5.3501,-5.3501,-5.3501,-5.3501,-5.3501,-5.3501,-5.3501,-5.3298,-5.3076,-5.2868,-5.2694,-5.2535,-5.2409,-5.2409,-5.2409,-5.2409,-5.2409,-5.2409,-5.2409,-5.7746,-5.7881,-5.7881,-5.7881,-5.7881,-5.7881,-5.7881,-5.7881,-5.7881,-5.7881,-5.7881,-5.7881,-5.7881,-5.7881,-5.7881,-5.7881,-5.7881,-5.7881,-5.7881,-5.7881,-5.7881,-5.7881,-5.7881,-5.7881,-5.7881,-5.7881,-5.7881,-5.7881,-5.7171,-5.6816,-5.6799,-5.6072,-5.5698,-5.5733,-5.5733,-5.5733,-5.5681,-5.5681,-5.5681,-5.5681,-5.5681,-5.5681,-5.5681,-5.5681,-5.526,-5.46,-5.46,-5.4143,-5.3518,-5.3518,-5.3518,-5.3518,-5.3501,-5.3501,-5.3501,-5.3501,-5.3501,-5.3501,-5.3501,-5.3501,-5.3501,-5.3501,-5.3501,-5.3501,-5.3501,-5.3501,-5.3501,-5.3501,-5.3501,-5.3501,-5.3501,-5.2858,-5.2317,-5.23,-5.1708,-5.1217,-5.1185,-5.1185,-5.1185,-5.1185,-5.1185,-5.1185,-5.1185,-5.1217,-5.1217,-5.1217,-5.1202,-5.1555,-5.2266,-5.3078,-5.3501,-5.3501,-5.3501,-5.3501,-5.3501,-5.3501,-5.3501,-5.3501,-5.3501,-5.3501,-5.3501,-5.3501,-5.3501,-5.3501,-5.3264,-5.3076,-5.2868,-5.2659,-5.2535,-5.2409,-5.2409,-5.2409,-5.2409,-5.2409,-5.2409,-5.2409,-5.7746,-5.7881,-5.7881,-5.7881,-5.7881,-5.7881,-5.7881,-5.7881,-5.7881,-5.7881,-5.7881,-5.7881,-5.7881,-5.7881,-5.7881,-5.7881,-5.7881,-5.7881,-5.7881,-5.7881,-5.7881,-5.7881,-5.7881,-5.7881,-5.7881,-5.7881,-5.7881,-5.7881,-5.7679,-5.756,-5.756,-5.734,-5.6968,-5.6478,-5.6478,-5.619,-5.5681,-5.5681,-5.5681,-5.5681,-5.5681,-5.5681,-5.5681,-5.5681,-5.5581,-5.5378,-5.5378,-5.5243,-5.4972,-5.4448,-5.4262,-5.4177,-5.367,-5.3501,-5.3501,-5.3501,-5.3501,-5.3501,-5.3501,-5.3501,-5.3501,-5.3501,-5.3501,-5.3501,-5.3501,-5.3501,-5.3501,-5.3501,-5.3501,-5.3501,-5.3501,-5.3315,-5.2959,-5.2384,-5.2131,-5.1792,-5.1252,-5.1185,-5.1185,-5.1185,-5.1185,-5.1185,-5.1185,-5.1674,-5.1978,-5.1978,-5.2503,-5.2909,-5.3129,-5.3365,-5.3501,-5.3501,-5.3501,-5.3501,-5.3501,-5.3501,-5.3501,-5.3501,-5.3501,-5.3501,-5.3501,-5.3501,-5.3416,-5.3264,-5.3076,-5.2868,-5.2659,-5.2535,-5.2445,-5.2409,-5.2409,-5.2409,-5.2409,-5.2409,-5.2409,-5.2409,-5.7797,-5.7881,-5.7881,-5.7881,-5.7881,-5.7881,-5.7881,-5.7881,-5.7881,-5.7881,-5.7881,-5.7881,-5.7881,-5.7881,-5.7881,-5.7881,-5.7881,-5.7881,-5.7881,-5.7881,-5.7881,-5.7881,-5.7881,-5.7881,-5.7881,-5.7881,-5.7881,-5.7881,-5.7881,-5.7881,-5.7881,-5.7881,-5.7645,-5.7239,-5.7239,-5.6985,-5.6579,-5.6579,-5.6579,-5.6579,-5.6579,-5.6579,-5.6579,-5.6579,-5.6393,-5.6156,-5.6156,-5.597,-5.5614,-5.5192,-5.4837,-5.4515,-5.4076,-5.3737,-5.3501,-5.3501,-5.3501,-5.3501,-5.3501,-5.3501,-5.3501,-5.3501,-5.3501,-5.3501,-5.3501,-5.3501,-5.3501,-5.3501,-5.3501,-5.3501,-5.3501,-5.3501,-5.3348,-5.2858,-5.2773,-5.2621,-5.2181,-5.2114,-5.2114,-5.2114,-5.2114,-5.2114,-5.2114,-5.252,-5.2773,-5.2773,-5.323,-5.3501,-5.3501,-5.3501,-5.3501,-5.3501,-5.3501,-5.3501,-5.3501,-5.3501,-5.3501,-5.3501,-5.3501,-5.3501,-5.3501,-5.3433,-5.3314,-5.3179,-5.2903,-5.2694,-5.2589,-5.2445,-5.2409,-5.2409,-5.2409,-5.2409,-5.2409,-5.2409,-5.2409,-5.2338,-5.7881,-5.7881,-5.7881,-5.7881,-5.7881,-5.7881,-5.7881,-5.7881,-5.7881,-5.7881,-5.7881,-5.7881,-5.7881,-5.7881,-5.7881,-5.7881,-5.7881,-5.7881,-5.7881,-5.7881,-5.7881,-5.7881,-5.7881,-5.7881,-5.7881,-5.7881,-5.7881,-5.7881,-5.7881,-5.7881,-5.7881,-5.7881,-5.7881,-5.7881,-5.7881,-5.7881,-5.7881,-5.7881,-5.7881,-5.7881,-5.7881,-5.7881,-5.7881,-5.7881,-5.7476,-5.69,-5.69,-5.6478,-5.5902,-5.58,-5.531,-5.4685,-5.4685,-5.4245,-5.3687,-5.3619,-5.3602,-5.3585,-5.3518,-5.3501,-5.3501,-5.3501,-5.3501,-5.3501,-5.3501,-5.3501,-5.3501,-5.3501,-5.3501,-5.3501,-5.3501,-5.3501,-5.3501,-5.3501,-5.3501,-5.3501,-5.3501,-5.3501,-5.3501,-5.3501,-5.3501,-5.3501,-5.3501,-5.3501,-5.3501,-5.3501,-5.3501,-5.3501,-5.3501,-5.3501,-5.3501,-5.3501,-5.3501,-5.3501,-5.3501,-5.3501,-5.3501,-5.3501,-5.3501,-5.3501,-5.3467,-5.3264,-5.3179,-5.311,-5.2764,-5.2589,-5.2553,-5.2445,-5.2409,-5.2409,-5.2409,-5.2409,-5.2409,-5.2409,-5.2409,-5.2266,-5.7881,-5.7881,-5.7881,-5.7881,-5.7881,-5.7881,-5.7881,-5.7881,-5.7881,-5.7881,-5.7881,-5.7881,-5.7881,-5.7881,-5.7881,-5.7881,-5.7881,-5.7881,-5.7881,-5.7881,-5.7881,-5.7881,-5.7881,-5.7881,-5.7881,-5.7881,-5.7881,-5.7881,-5.7881,-5.7881,-5.7881,-5.7881,-5.7881,-5.7881,-5.7881,-5.7881,-5.7881,-5.7881,-5.7881,-5.7881,-5.7881,-5.7881,-5.7881,-5.7881,-5.7797,-5.7645,-5.7645,-5.7543,-5.7323,-5.6765,-5.6072,-5.548,-5.548,-5.5361,-5.5124,-5.4532,-5.4346,-5.4228,-5.367,-5.3501,-5.3501,-5.3501,-5.3501,-5.3501,-5.3501,-5.3501,-5.3501,-5.3501,-5.3501,-5.3501,-5.3501,-5.3501,-5.3501,-5.3501,-5.3501,-5.3501,-5.3501,-5.3501,-5.3501,-5.3501,-5.3501,-5.3501,-5.3501,-5.3501,-5.3501,-5.3501,-5.3501,-5.3501,-5.3501,-5.3501,-5.3501,-5.3501,-5.3501,-5.3501,-5.3501,-5.3501,-5.3501,-5.3501,-5.3501,-5.3433,-5.3264,-5.3213,-5.3007,-5.2729,-5.2624,-5.2535,-5.2445,-5.2409,-5.2409,-5.2409,-5.2409,-5.2409,-5.2409,-5.2409,-5.2409,-5.2178,-5.7881,-5.7881,-5.7881,-5.7881,-5.7881,-5.7881,-5.7881,-5.7881,-5.7881,-5.7881,-5.7881,-5.7881,-5.7881,-5.7881,-5.7881,-5.7881,-5.7881,-5.7881,-5.7881,-5.7881,-5.7881,-5.7881,-5.7881,-5.7881,-5.7881,-5.7881,-5.7881,-5.7881,-5.7881,-5.7881,-5.7881,-5.7881,-5.7881,-5.7881,-5.7881,-5.7881,-5.7881,-5.7881,-5.7881,-5.7881,-5.7881,-5.7881,-5.7881,-5.7881,-5.7881,-5.7881,-5.7881,-5.7881,-5.7831,-5.7442,-5.6833,-5.6241,-5.6241,-5.5987,-5.5632,-5.5243,-5.4871,-5.4515,-5.4126,-5.3771,-5.3501,-5.3501,-5.3501,-5.3501,-5.3501,-5.3501,-5.3501,-5.3501,-5.3501,-5.3501,-5.3501,-5.3501,-5.3501,-5.3501,-5.3501,-5.3501,-5.3501,-5.3501,-5.3501,-5.3501,-5.3501,-5.3501,-5.3501,-5.3501,-5.3501,-5.3501,-5.3501,-5.3501,-5.3501,-5.3501,-5.3501,-5.3501,-5.3501,-5.3501,-5.3501,-5.3382,-5.3348,-5.3348,-5.3348,-5.323,-5.3041,-5.2972,-5.2799,-5.2605,-5.2535,-5.248,-5.2409,-5.2409,-5.2409,-5.2409,-5.2409,-5.2142,-5.1782,-5.1782,-5.1268,-5.0477,-5.7881,-5.7881,-5.7881,-5.7881,-5.7881,-5.7881,-5.7881,-5.7881,-5.7881,-5.7881,-5.7881,-5.7881,-5.7881,-5.7881,-5.7881,-5.7881,-5.7881,-5.7881,-5.7881,-5.7881,-5.7881,-5.7881,-5.7881,-5.7881,-5.7881,-5.7881,-5.7881,-5.7881,-5.7881,-5.7881,-5.7881,-5.7881,-5.7881,-5.7881,-5.7881,-5.7881,-5.7881,-5.7881,-5.7881,-5.7881,-5.7881,-5.7881,-5.7881,-5.7881,-5.7881,-5.7881,-5.7881,-5.7881,-5.7881,-5.7881,-5.7492,-5.6985,-5.6985,-5.6579,-5.6055,-5.5936,-5.5463,-5.4905,-5.4668,-5.4143,-5.367,-5.3534,-5.3501,-5.3501,-5.3501,-5.3501,-5.3501,-5.3501,-5.3501,-5.3501,-5.3501,-5.3501,-5.3501,-5.3501,-5.3501,-5.3501,-5.3501,-5.3501,-5.3501,-5.3501,-5.3501,-5.3501,-5.3501,-5.3501,-5.3501,-5.3501,-5.3501,-5.3501,-5.3501,-5.3501,-5.3467,-5.3467,-5.3467,-5.3467,-5.3399,-5.3264,-5.3161,-5.311,-5.311,-5.3007,-5.2834,-5.2659,-5.2605,-5.257,-5.2445,-5.2409,-5.2409,-5.2409,-5.2409,-5.2409,-5.2409,-5.1871,-5.1081,-5.0914,-4.9915,-4.8615,-5.7881,-5.7881,-5.7881,-5.7881,-5.7881,-5.7881,-5.7881,-5.7881,-5.7881,-5.7881,-5.7881,-5.7881,-5.7881,-5.7881,-5.7881,-5.7881,-5.7881,-5.7881,-5.7881,-5.7881,-5.7881,-5.7881,-5.7881,-5.7881,-5.7881,-5.7881,-5.7881,-5.7881,-5.7881,-5.7881,-5.7881,-5.7881,-5.7881,-5.7881,-5.7881,-5.7881,-5.7881,-5.7881,-5.7881,-5.7881,-5.7881,-5.7881,-5.7881,-5.7881,-5.7881,-5.7881,-5.7881,-5.7881,-5.7881,-5.7881,-5.7814,-5.7746,-5.7746,-5.7679,-5.7476,-5.685,-5.6579,-5.6224,-5.4938,-5.4515,-5.4296,-5.367,-5.3501,-5.3501,-5.3501,-5.3501,-5.3501,-5.3501,-5.3501,-5.3501,-5.3501,-5.3501,-5.3501,-5.3501,-5.3501,-5.3501,-5.3501,-5.3501,-5.3501,-5.3501,-5.3501,-5.3501,-5.3501,-5.3501,-5.3501,-5.3501,-5.3501,-5.3501,-5.3501,-5.3501,-5.3433,-5.3264,-5.3416,-5.3314,-5.2972,-5.3127,-5.3007,-5.2694,-5.2694,-5.2659,-5.2624,-5.2589,-5.2535,-5.2409,-5.2409,-5.2409,-5.2409,-5.2409,-5.2409,-5.2409,-5.2409,-5.1871,-5.0989,-5.0252,-4.9383,-4.8615,-5.7881,-5.7881,-5.7881,-5.7881,-5.7881,-5.7881,-5.7881,-5.7881,-5.7881,-5.7881,-5.7881,-5.7881,-5.7881,-5.7881,-5.7881,-5.7881,-5.7881,-5.7881,-5.7881,-5.7881,-5.7881,-5.7881,-5.7881,-5.7881,-5.7881,-5.7881,-5.7881,-5.7881,-5.7881,-5.7881,-5.7881,-5.7881,-5.7881,-5.7881,-5.7881,-5.7881,-5.7881,-5.7881,-5.7881,-5.7881,-5.7881,-5.7881,-5.7881,-5.7881,-5.7881,-5.7881,-5.7881,-5.7881,-5.7881,-5.7881,-5.7881,-5.7881,-5.7881,-5.7881,-5.7831,-5.7509,-5.712,-5.6664,-5.6004,-5.5226,-5.4515,-5.4194,-5.3805,-5.3501,-5.3501,-5.3501,-5.3501,-5.3501,-5.3501,-5.3501,-5.3501,-5.3501,-5.3501,-5.3501,-5.3501,-5.3501,-5.3501,-5.3501,-5.3501,-5.3501,-5.3501,-5.3501,-5.3501,-5.3501,-5.3501,-5.3501,-5.3501,-5.3501,-5.3501,-5.3382,-5.3298,-5.3179,-5.3161,-5.3093,-5.2903,-5.2868,-5.2764,-5.2589,-5.2535,-5.2499,-5.2499,-5.2499,-5.2445,-5.2409,-5.2409,-5.2409,-5.2409,-5.2409,-5.2409,-5.2338,-5.1855,-5.0876,-4.9599,-4.8723,-4.8172,-4.7849]},{"header":{"parameterUnit":"m.s-1","parameterCategory":1,"la1":30.6,"la2":28.766,"lo1":-90.7593,"lo2":-88.6598,"dy":0.0162,"dx":0.0183,"nx":116,"ny":114,"refTime":"2024-05-30T06:00:00:Z","depth":0,"parameterNumber":3,"parameterNumberName":"V-component_of_WINDS"},"data":[0.0,0.0,0.0,0.0,0.0,0.0,0.0,0.0,0.0,0.0,0.0,0.0,0.0,0.0,0.0,0.0,0.0,0.0,0.0,0.0,0.0,0.0,0.0,0.0,0.0,0.0,0.0,0.0,0.0,0.0,0.0,0.0,0.0,0.0,0.0,0.0,0.0,0.0,0.0,0.0,0.0,0.0,0.0,0.0,0.0,0.0,0.0,0.0,0.0,0.0,0.0,0.0,0.0,0.0,0.0,0.0,0.0,0.0,0.0,0.0,0.0,0.0,0.0,0.0,0.0,0.0,0.0,0.0,0.0,0.0,0.0,0.0,0.0,0.0,0.0,0.0,0.0,0.0,0.0,0.0,0.0,0.0,0.0,0.0,0.0,0.0,0.0,0.0,0.0,0.0,0.0,0.0,0.0,0.0,0.0,0.0,0.0,0.0,0.0,0.0,0.0,0.0,0.0,0.0,0.0,0.0,0.0,0.0,0.0,0.0,0.0,0.0,0.0,0.0,0.0,0.0,0.0,0.0,0.0,0.0,0.0,0.0,0.0,0.0,0.0,0.0,0.0,0.0,0.0,0.0,0.0,0.0,0.0,0.0,0.0,0.0,0.0,0.0,0.0,0.0,0.0,0.0,0.0,0.0,0.0,0.0,0.0,0.0,0.0,0.0,0.0,0.0,0.0,0.0,0.0,0.0,0.0,0.0,0.0,0.0,0.0,0.0,0.0,0.0,0.0,0.0,0.0,0.0,0.0,0.0,0.0,0.0,0.0,0.0,0.0,0.0,0.0,0.0,0.0,0.0,0.0,0.0,0.0,0.0,0.0,0.0,0.0,0.0,0.0,0.0,0.0,0.0,0.0,0.0,0.0,0.0,0.0,0.0,0.0,0.0,0.0,0.0,0.0,0.0,0.0,0.0,0.0,0.0,0.0,0.0,0.0,0.0,0.0,0.0,0.0,0.0,0.0,0.0,0.0,0.0,0.0,0.0,0.0,0.0,0.0,0.0,0.0,0.0,0.0,0.0,0.0,0.0,0.0,0.0,0.0,0.0,0.0,0.0,0.0,0.0,0.0,0.0,0.0,0.0,0.0,0.0,0.0,0.0,0.0,0.0,0.0,0.0,0.0,0.0,0.0,0.0,0.0,0.0,0.0,0.0,0.0,0.0,0.0,0.0,0.0,0.0,0.0,0.0,0.0,0.0,0.0,0.0,0.0,0.0,0.0,0.0,0.0,0.0,0.0,0.0,0.0,0.0,0.0,0.0,0.0,0.0,0.0,0.0,0.0,0.0,0.0,0.0,0.0,0.0,0.0,0.0,0.0,0.0,0.0,0.0,0.0,0.0,0.0,0.0,0.0,0.0,0.0,0.0,0.0,0.0,0.0,0.0,0.0,0.0,0.0,0.0,0.0,0.0,0.0,0.0,0.0,0.0,0.0,0.0,0.0,0.0,0.0,0.0,0.0,0.0,0.0,0.0,0.0,0.0,0.0,0.0,0.0,0.0,0.0,0.0,0.0,0.0,0.0,0.0,0.0,0.0,0.0,0.0,0.0,0.0,0.0,0.0,0.0,0.0,0.0,0.0,0.0,0.0,0.0,0.0,0.0,0.0,0.0,0.0,0.0,0.0,0.0,0.0,0.0,0.0,0.0,0.0,0.0,0.0,0.0,0.0,0.0,0.0,0.0,0.0,0.0,0.0,0.0,0.0,0.0,0.0,0.0,0.0,0.0,0.0,0.0,0.0,0.0,0.0,0.0,0.0,0.0,0.0,0.0,0.0,0.0,0.0,0.0,0.0,0.0,0.0,0.0,0.0,0.0,0.0,0.0,0.0,0.0,0.0,0.0,0.0,0.0,0.0,0.0,0.0,0.0,0.0,0.0,0.0,0.0,0.0,0.0,0.0,0.0,0.0,0.0,0.0,0.0,0.0,0.0,0.0,0.0,0.0,0.0,0.0,0.0,0.0,0.0,0.0,0.0,0.0,0.0,0.0,0.0,0.0,0.0,0.0,0.0,0.0,0.0,0.0,0.0,0.0,0.0,0.0,0.0,0.0,0.0,0.0,0.0,0.0,0.0,0.0,0.0,0.0,0.0,0.0,0.0,0.0,0.0,0.0,0.0,0.0,0.0,0.0,0.0,0.0,0.0,0.0,0.0,0.0,0.0,0.0,0.0,0.0,0.0,0.0,0.0,0.0,0.0,0.0,0.0,0.0,0.0,0.0,0.0,0.0,0.0,0.0,0.0,0.0,0.0,0.0,0.0,0.0,0.0,0.0,0.0,0.0,0.0,0.0,0.0,0.0,0.0,0.0,0.0,0.0,0.0,0.0,0.0,0.0,0.0,0.0,0.0,0.0,0.0,0.0,0.0,0.0,0.0,0.0,0.0,0.0,0.0,0.0,0.0,0.0,0.0,0.0,0.0,0.0,0.0,0.0,0.0,0.0,0.0,0.0,0.0,0.0,0.0,0.0,0.0,0.0,0.0,0.0,0.0,0.0,0.0,0.0,0.0,0.0,0.0,0.0,0.0,0.0,0.0,0.0,0.0,0.0,0.0,0.0,0.0,0.0,0.0,0.0,0.0,0.0,0.0,0.0,0.0,0.0,0.0,0.0,0.0,0.0,0.0,0.0,0.0,0.0,0.0,0.0,0.0,0.0,0.0,0.0,0.0,0.0,0.0,0.0,0.0,0.0,0.0,0.0,0.0,0.0,0.0,0.0,0.0,0.0,0.0,0.0,0.0,0.0,0.0,0.0,0.0,0.0,0.0,0.0,0.0,0.0,0.0,0.0,0.0,0.0,0.0,0.0,0.0,0.0,0.0,0.0,0.0,0.0,0.0,0.0,0.0,0.0,0.0,0.0,0.0,0.0,0.0,0.0,0.0,0.0,0.0,0.0,0.0,0.0,0.0,0.0,0.0,0.0,0.0,0.0,0.0,0.0,0.0,0.0,0.0,0.0,0.0,0.0,0.0,0.0,0.0,0.0,0.0,0.0,0.0,0.0,0.0,0.0,0.0,0.0,0.0,0.0,0.0,0.0,0.0,0.0,0.0,0.0,0.0,0.0,0.0,0.0,0.0,0.0,0.0,0.0,0.0,0.0,0.0,0.0,0.0,0.0,0.0,0.0,0.0,0.0,0.0,0.0,0.0,0.0,0.0,0.0,0.0,0.0,0.0,0.0,0.0,0.0,0.0,0.0,0.0,0.0,0.0,0.0,0.0,0.0,0.0,0.0,0.0,0.0,0.0,0.0,0.0,0.0,0.0,0.0,0.0,0.0,0.0,0.0,0.0,0.0,0.0,0.0,0.0,0.0,0.0,0.0,0.0,0.0,0.0,0.0,0.0,0.0,0.0,0.0,0.0,0.0,0.0,0.0,0.0,0.0,0.0,0.0,0.0,0.0,0.0,0.0,0.0,0.0,0.0,0.0,0.0,0.0,0.0,0.0,0.0,0.0,0.0,0.0,0.0,0.0,0.0,0.0,0.0,0.0,0.0,0.0,0.0,0.0,0.0,0.0,0.0,0.0,0.0,0.0,0.0,0.0,0.0,0.0,0.0,0.0,0.0,0.0,0.0,0.0,0.0,0.0,0.0,0.0,0.0,0.0,0.0,0.0,0.0,0.0,0.0,0.0,0.0,0.0,0.0,0.0,0.0,0.0,0.0,0.0,0.0,0.0,0.0,0.0,0.0,0.0,0.0,0.0,0.0,0.0,0.0,0.0,0.0,0.0,0.0,0.0,0.0,0.0,0.0,0.0,0.0,0.0,0.0,0.0,0.0,0.0,0.0,0.0,0.0,0.0,0.0,0.0,0.0,0.0,0.0,0.0,0.0,0.0,0.0,0.0,0.0,0.0,0.0,0.0,0.0,0.0,0.0,0.0,0.0,0.0,0.0,0.0,0.0,0.0,0.0,0.0,0.0,0.0,0.0,0.0,0.0,0.0,0.0,0.0,0.0,0.0,0.0,0.0,0.0,0.0,0.0,0.0,0.0,0.0,0.0,0.0,0.0,0.0,0.0,0.0,0.0,0.0,0.0,0.0,0.0,0.0,0.0,0.0,0.0,0.0,0.0,0.0,0.0,0.0,0.0,0.0,0.0,0.0,0.0,0.0,0.0,0.0,0.0,0.0,0.0,0.0,0.0,0.0,0.0,0.0,0.0,0.0,0.0,0.0,0.0,0.0,0.0,0.0,0.0,0.0,0.0,0.0,0.0,0.0,0.0,0.0,0.0,0.0,0.0,0.0,0.0,0.0,0.0,0.0,0.0,0.0,0.0,0.0,0.0,0.0,0.0,0.0,0.0,0.0,0.0,0.0,0.0,0.0,0.0,0.0,0.0,0.0,0.0,0.0,0.0,0.0,0.0,0.0,0.0,0.0,0.0,0.0,0.0,0.0,0.0,0.0,0.0,0.0,0.0,0.0,0.0,0.0,0.0,0.0,0.0,0.0,0.0,0.0,0.0,0.0,0.0,0.0,0.0,0.0,0.0,0.0,0.0,0.0,0.0,0.0,0.0,0.0,0.0,0.0,0.0,0.0,0.0,0.0,0.0,0.0,0.0,0.0,0.0,0.0,0.0,0.0,0.0,0.0,0.0,0.0,0.0,0.0,0.0,0.0,0.0,0.0,0.0,0.0,0.0,0.0,0.0,0.0,0.0,0.0,0.0,0.0,0.0,0.0,0.0,0.0,0.0,0.0,0.0,0.0,0.0,0.0,0.0,0.0,0.0,0.0,0.0,0.0,0.0,0.0,0.0,0.0,0.0,0.0,0.0,0.0,0.0,0.0,0.0,0.0,0.0,0.0,0.0,0.0,0.0,0.0,0.0,0.0,0.0,0.0,0.0,0.0,0.0,0.0,0.0,0.0,0.0,0.0,0.0,0.0,0.0,0.0,0.0,0.0,0.0,0.0,0.0,0.0,0.0,0.0,0.0,0.0,0.0,0.0,0.0,0.0,0.0,0.0,0.0,0.0,0.0,0.0,0.0,0.0,0.0,0.0,0.0,0.0,0.0,0.0,0.0,0.0,0.0,0.0,0.0,0.0,0.0,0.0,0.0,0.0,0.0,0.0,0.0,0.0,0.0,0.0,0.0,0.0,0.0,0.0,0.0,0.0,0.0,0.0,0.0,0.0,0.0,0.0,0.0,0.0,0.0,0.0,0.0,0.0,0.0,0.0,0.0,0.0,0.0,0.0,0.0,0.0,0.0,0.0,0.0,0.0,0.0,0.0,0.0,0.0,0.0,0.0,0.0,0.0,0.0,0.0,0.0,0.0,0.0,0.0,0.0,0.0,0.0,0.0,0.0,0.0,0.0,0.0,0.0,0.0,0.0,0.0,0.0,0.0,0.0,0.0,0.0,0.0,0.0,0.0,0.0,0.0,0.0,0.0,0.0,0.0,0.0,0.0,0.0,0.0,0.0,0.0,0.0,0.0,0.0,0.0,0.0,0.0,0.0,0.0,0.0,0.0,0.0,0.0,0.0,0.0,0.0,0.0,0.0,0.0,0.0,0.0,0.0,0.0,0.0,0.0,0.0,0.0,0.0,0.0,0.0,0.0,0.0,0.0,0.0,0.0,0.0,0.0,0.0,0.0,0.0,0.0,0.0,0.0,0.0,0.0,0.0,0.0,0.0,0.0,0.0,0.0,0.0,0.0,0.0,0.0,0.0,0.0,0.0,0.0,0.0,0.0,0.0,0.0,0.0,0.0,0.0,0.0,0.0,0.0,0.0,0.0,0.0,0.0,0.0,0.0,0.0,0.0,0.0,0.0,0.0,0.0,0.0,0.0,0.0,0.0,0.0,0.0,0.0,0.0,0.0,0.0,0.0,0.0,0.0,0.0,0.0,0.0,0.0,0.0,0.0,0.0,0.0,0.0,0.0,0.0,0.0,0.0,0.0,0.0,0.0,0.0,0.0,0.0,0.0,0.0,0.0,0.0,0.0,0.0,0.0,0.0,0.0,0.0,0.0,0.0,0.0,0.0,0.0,0.0,0.0,0.0,0.0,0.0,0.0,0.0,0.0,0.0,0.0,0.0,0.0,0.0,0.0,0.0,0.0,0.0,0.0,0.0,0.0,0.0,0.0,0.0,0.0,0.0,0.0,0.0,0.0,0.0,0.0,0.0,1.7788,1.7012,0.0,0.0,0.0,0.0,0.0,0.0,0.0,0.0,0.0,0.0,0.0,0.0,0.0,0.0,0.0,0.0,0.0,0.0,0.0,0.0,0.0,0.0,0.0,0.8857,0.8829,0.9629,0.9703,0.9703,0.9703,0.0,0.0,0.0,0.0,0.0,1.0566,1.0401,1.0422,1.0597,1.0383,1.0383,1.0566,1.0327,0.9925,0.9382,0.0,0.0,0.0,0.0,0.0,0.0,0.0,0.0,0.0,0.0,0.0,0.0,0.0,0.0,0.0,0.0,0.0,0.0,0.0,0.0,0.0,0.0,0.0,0.0,0.0,0.0,0.0,0.0,0.0,0.0,0.0,0.0,0.0,0.0,0.0,0.0,0.0,0.0,0.0,0.0,0.0,0.0,0.0,0.0,0.0,0.0,0.0,0.0,0.0,0.0,0.0,0.0,0.0,0.0,0.0,0.0,0.0,0.0,0.0,0.0,0.0,0.0,0.0,0.0,0.0,0.0,0.0,0.0,0.0,0.0,1.9606,1.8732,0.0,0.0,0.0,0.0,0.0,0.0,0.0,0.0,0.0,0.0,0.0,0.0,0.0,0.0,0.0,0.0,0.0,0.0,0.0,0.0,0.0,0.8409,0.9666,0.9142,0.9041,0.9841,0.9905,0.9877,0.9813,1.0107,0.0,0.0,0.0,1.0576,1.1002,1.0419,1.0432,1.1031,1.0849,1.1195,1.2021,1.2351,1.1991,1.1017,1.0732,0.0,0.0,0.0,0.0,0.0,0.0,0.0,0.0,0.0,0.0,0.0,0.0,0.0,0.0,0.0,0.0,0.0,0.0,0.0,0.0,0.0,0.0,0.0,0.0,0.0,0.0,0.0,0.0,0.0,0.0,0.0,0.0,0.0,0.0,0.0,0.0,0.0,0.0,0.0,0.0,0.0,0.0,0.0,0.0,0.0,0.0,0.0,0.0,0.0,0.0,0.0,0.0,0.0,0.0,0.0,0.0,0.0,0.0,0.0,0.0,0.0,0.0,0.0,2.2272,2.2731,2.3531,2.3553,2.3782,2.4078,2.1932,2.116,2.1269,2.0111,0.0,0.0,0.0,0.0,0.0,0.0,0.0,0.0,0.0,0.0,0.0,0.0,0.0,0.0,0.0,0.0,0.0,0.0,0.0,0.8867,1.0079,0.9813,0.9859,1.068,1.0745,1.0576,1.0236,1.0263,0.0,1.0385,1.0649,1.0998,1.1421,1.166,1.1729,1.1601,1.2245,1.3081,1.4112,1.4167,1.4102,1.3892,1.2496,1.2055,1.233,0.0,0.0,0.0,0.0,0.0,0.0,0.0,0.0,0.0,0.0,0.0,0.0,0.0,0.0,0.0,0.0,0.0,0.0,0.0,0.0,0.0,0.0,0.0,0.0,0.0,0.0,0.0,0.0,0.0,0.0,0.0,0.0,0.0,0.0,0.0,0.0,0.0,0.0,0.0,0.0,0.0,1.6633,1.6734,0.0,0.0,0.0,0.0,0.0,0.0,0.0,0.0,0.0,0.0,0.0,0.0,0.0,2.1604,2.2419,2.2767,2.3272,2.3889,2.4486,2.5131,2.5921,2.6132,2.6618,2.7261,2.6561,0.0,2.3105,2.2558,0.0,0.0,0.0,0.0,0.0,0.0,0.0,0.0,0.0,0.0,0.0,0.0,0.0,0.0,0.0,0.0,0.0,0.0,0.0,0.0,0.0,0.9942,1.0015,1.0837,1.1122,1.1063,1.0649,1.0842,1.0971,1.0971,1.0938,1.1306,1.2156,1.1762,1.1931,1.2709,1.4118,1.5056,1.5501,1.5225,1.5388,1.5794,1.4595,1.38,1.3323,1.2514,0.0,0.0,0.0,0.0,0.0,0.0,0.0,0.0,0.0,0.0,0.0,0.0,0.0,0.0,0.0,0.0,0.0,0.0,0.0,0.0,0.0,0.0,0.0,0.0,0.0,0.0,0.0,0.0,0.0,0.0,0.0,0.0,0.0,0.0,0.0,0.0,0.0,0.0,0.0,1.6681,1.7551,1.7551,1.7789,1.7669,0.0,0.0,0.0,0.0,0.0,0.0,0.0,0.0,0.0,2.3052,2.324,2.3834,2.484,2.5219,2.5732,2.6386,2.6661,2.7119,2.7684,2.7777,2.8109,2.8555,2.8382,2.7641,2.6431,2.515,2.404,2.3057,0.0,0.0,0.0,0.0,2.237,2.2421,0.0,0.0,0.0,0.0,0.0,0.0,0.0,0.0,0.0,0.0,0.0,0.0,1.0385,1.0364,1.0594,1.1306,1.1632,1.1678,1.1389,1.1448,1.1433,1.1306,1.1017,1.1261,1.2181,1.1878,1.2433,1.3876,1.5326,1.6155,1.6435,1.6067,1.6385,1.7185,1.6528,1.5645,1.4607,1.381,1.3176,1.2625,0.0,0.0,0.0,0.0,0.0,0.0,0.0,0.0,0.0,0.0,0.0,0.0,0.0,0.0,0.0,0.0,0.0,0.0,0.0,0.0,0.0,0.0,0.0,0.0,0.0,0.0,0.0,0.0,0.0,0.0,0.0,0.0,0.0,0.0,0.0,0.0,0.0,1.7807,1.8658,1.8557,1.9079,1.9127,0.0,0.0,0.0,0.0,0.0,0.0,2.2025,2.286,2.3864,2.5039,2.533,2.5989,2.6957,2.7226,2.7704,2.8425,2.849,2.8765,2.9155,2.9222,2.9402,2.9572,2.9572,2.9434,2.9121,2.7311,2.5982,2.4976,2.4738,2.4424,2.4228,2.4853,2.4951,2.4971,0.0,0.0,0.0,0.0,0.0,0.0,0.0,0.0,0.0,0.0,0.0,1.0413,1.0827,1.1531,1.2147,1.256,1.2625,1.2625,1.2597,1.1917,1.1259,1.0757,1.0716,1.0733,1.0809,1.2483,1.3893,1.4917,1.5168,1.579,1.6778,1.6757,1.7188,1.8027,1.7989,1.7542,1.6697,1.5881,1.5093,1.4277,1.3075,0.0,0.0,0.0,0.0,0.0,0.0,0.0,0.0,0.0,0.0,0.0,0.0,0.0,0.0,0.0,0.0,0.0,0.0,0.0,0.0,0.0,0.0,0.0,0.0,0.0,0.0,0.0,0.0,0.0,0.0,0.0,0.0,0.0,0.0,0.0,0.0,0.0,0.0,1.9838,2.0827,0.0,0.0,0.0,0.0,2.1513,2.3052,2.4202,2.4574,2.5613,2.6579,2.7409,2.7731,2.8123,2.8568,2.8568,2.8842,2.9212,2.9575,2.992,3.0324,3.0636,3.083,3.083,3.083,3.0557,3.0029,2.873,2.792,2.7461,2.7021,2.6846,2.6826,2.6865,2.7129,2.7532,0.0,0.0,0.0,0.0,0.0,0.8447,0.8828,0.9014,0.9244,0.9648,1.0043,1.0548,1.1219,1.1779,1.2376,1.3038,1.3332,1.3369,1.3111,1.281,1.2567,1.2375,1.2115,1.2026,1.2046,1.3389,1.4547,1.5499,1.5693,1.6465,1.7842,1.735,1.736,1.7788,1.8504,1.832,1.743,1.6747,1.601,1.5157,1.3966,1.2992,0.0,0.0,0.0,0.0,0.0,0.0,0.0,0.0,0.0,0.0,0.0,0.0,0.0,0.0,0.0,0.0,0.0,0.0,0.0,0.0,0.0,0.0,0.0,0.0,0.0,0.0,0.0,0.0,0.0,0.0,0.0,0.0,0.0,0.0,0.0,0.0,0.0,2.1065,2.2117,0.0,2.1897,2.2731,2.329,2.329,2.4803,2.5881,2.6178,2.6902,2.7707,2.8644,2.8842,2.9155,2.9815,3.0007,3.0209,3.0355,3.0471,3.0558,3.0704,3.083,3.0889,3.0889,3.0889,3.0801,3.0605,3.0156,2.9375,2.8457,2.8301,2.8076,2.7871,2.8144,2.834,2.8516,0.0,0.0,0.0,0.0,0.8451,0.855,0.9023,0.9207,0.9456,0.985,1.0373,1.0961,1.1632,1.2303,1.2928,1.347,1.3764,1.3837,1.3708,1.3314,1.2978,1.2748,1.2307,1.2335,1.2869,1.3991,1.4873,1.5451,1.5828,1.6515,1.7501,1.7461,1.7688,1.8137,1.9179,1.9274,1.869,1.8262,1.7422,1.6202,1.5139,1.4378,1.381,0.0,0.0,0.0,0.0,0.0,0.0,0.0,0.0,0.0,0.0,0.0,0.0,0.0,0.0,0.0,0.0,0.0,0.0,0.0,0.0,0.0,0.0,0.0,0.0,0.0,0.0,0.0,0.0,0.0,0.0,0.0,0.0,0.0,0.0,2.0766,2.1916,2.1331,2.3068,2.3841,2.2539,2.4086,2.5067,2.4738,2.6254,2.7354,2.7771,2.8257,2.8875,2.966,2.9785,3.0045,3.0567,3.0762,3.0889,3.0889,3.0889,3.0889,3.0889,3.0889,3.0889,3.0889,3.0889,3.0889,3.0889,3.0889,3.0371,2.958,2.958,2.9414,2.9209,2.9482,2.958,2.9609,0.0,0.0,0.0,0.8495,0.8668,0.8872,0.9078,0.9456,0.9841,1.0257,1.0998,1.1669,1.2073,1.3194,1.392,1.3929,1.392,1.4057,1.4458,1.3351,1.2361,1.164,1.1218,1.165,1.2972,1.4225,1.4835,1.4834,1.5443,1.5791,1.5899,1.7093,1.817,1.9144,2.0083,2.0506,2.0497,2.0497,1.9393,1.7523,1.6716,1.6334,1.6156,0.0,0.0,0.0,0.0,0.0,0.0,0.0,0.0,0.0,0.0,0.0,0.0,0.0,0.0,0.0,0.0,0.0,0.0,0.0,0.0,0.0,0.0,0.0,0.0,0.0,0.0,0.0,0.0,0.0,0.0,0.0,0.0,0.0,1.9365,2.1401,2.2298,2.0641,2.372,2.4755,2.1835,2.4931,2.674,2.5861,2.7413,2.863,2.9297,2.9695,3.0039,3.0382,3.0704,3.0889,3.0889,3.0889,3.0889,3.0889,3.0889,3.0889,3.0889,3.0889,3.0889,3.0889,3.0889,3.0889,3.0889,3.0889,3.0889,3.0889,3.0889,3.0889,3.0889,3.0889,3.0889,3.083,0.0,0.0,0.8213,0.8819,0.8747,0.8799,0.9437,0.9629,0.9841,1.0257,1.0998,1.177,1.2459,1.335,1.403,1.4313,1.4057,1.4057,1.4458,1.3021,1.2025,1.1829,1.2872,1.3454,1.3512,1.3783,1.449,1.5529,1.5069,1.577,1.7551,1.7235,1.7762,1.8917,1.9896,2.0201,1.9939,2.0641,2.0457,1.9595,1.8495,1.7532,1.6633,0.0,0.0,0.0,0.0,0.0,0.0,0.0,0.0,0.0,0.0,0.0,0.0,0.0,0.0,0.0,0.0,0.0,0.0,0.0,0.0,0.0,0.0,0.0,0.0,0.0,0.0,0.0,0.0,0.0,0.0,0.0,1.8548,1.9487,2.0453,2.1661,2.2225,2.1773,2.3327,2.4449,2.4578,2.497,2.5838,2.7512,2.7727,2.83,2.9683,2.9679,2.9981,3.0762,3.0411,3.0411,3.0889,3.0889,3.0889,3.0889,3.0889,3.0889,3.0889,3.0889,3.0889,3.0889,3.0889,3.0889,3.0889,3.0889,3.0889,3.0889,3.0889,3.0889,3.0889,3.0889,3.0889,3.0869,0.0,0.8369,0.8358,0.8984,0.8907,0.8968,0.9602,0.9703,0.9905,1.0487,1.1246,1.2064,1.2863,1.3525,1.3983,1.4231,1.402,1.3919,1.4002,1.269,1.2061,1.2429,1.3156,1.3548,1.3648,1.3865,1.4381,1.5275,1.4977,1.559,1.7024,1.7059,1.7681,1.8834,1.984,2.0407,2.0572,2.1101,2.1135,2.0704,1.9998,1.9091,1.8064,1.7082,1.6459,1.6056,1.5661,1.5441,1.5313,1.5084,0.0,0.0,0.0,0.0,0.0,0.0,0.0,0.0,0.0,0.0,0.0,0.0,0.0,0.0,0.0,0.0,0.0,0.0,0.0,0.0,0.0,0.0,0.0,0.0,1.8954,1.9824,2.0921,2.1725,2.2044,2.1589,2.3027,2.3971,2.3828,2.4317,2.5109,2.6329,2.6454,2.7237,2.9007,2.8403,2.8879,3.0635,2.9804,2.9804,3.0889,3.0762,3.0762,3.0889,3.0889,3.0889,3.0889,3.0889,3.0889,3.0889,3.0889,3.0889,3.0889,3.0889,3.0889,3.0889,0.0,0.0,0.0,0.0,3.0889,3.0889,0.0,0.862,0.8712,0.911,0.9144,0.9235,0.9638,0.9703,0.9988,1.08,1.1559,1.2349,1.3131,1.358,1.3865,1.3911,1.3865,1.3662,1.3296,1.2564,1.2461,1.3143,1.2777,1.2916,1.3633,1.4193,1.4506,1.4616,1.5144,1.5457,1.5636,1.6635,1.7738,1.8834,1.9749,2.0673,2.1553,2.1651,2.1476,2.1181,2.1181,2.0704,1.9829,1.8722,1.8091,1.7715,1.7266,1.667,1.6083,1.5893,0.0,0.0,0.0,0.0,0.0,0.0,0.0,0.0,0.0,0.0,0.0,0.0,0.0,0.0,0.0,0.0,0.0,0.0,0.0,0.0,0.0,0.0,0.0,0.0,1.9619,2.012,2.0874,2.1575,2.1715,2.0794,2.2691,2.3306,2.1517,2.327,2.4379,2.4008,2.4502,2.5782,2.7915,2.6857,0.0,0.0,0.0,2.9282,3.0732,3.0477,3.0536,3.0791,3.0967,3.1035,3.1035,3.0986,3.0957,3.0957,3.0918,3.0889,3.0889,3.0889,3.0889,3.0889,3.0889,3.0889,3.0889,3.0889,3.0889,3.0889,0.0,0.9151,0.9265,0.9672,0.9389,0.9235,0.9638,0.9703,0.9988,1.08,1.1311,1.1926,1.2726,1.3185,1.3562,1.3883,1.3589,1.334,1.3158,1.341,1.3437,1.3043,1.386,1.4216,1.3995,1.4342,1.4756,1.5231,1.5344,1.5929,1.6911,1.6365,1.7084,1.8796,1.9018,1.9658,2.0619,2.1365,2.165,2.1568,2.1568,2.1083,2.0296,1.9747,1.9491,1.9326,1.8623,1.8467,1.839,1.7042,1.6523,1.624,1.4924,1.4153,0.0,0.0,0.0,0.0,0.0,0.0,0.0,0.0,0.0,0.0,0.0,0.0,0.0,0.0,0.0,0.0,0.0,0.0,0.0,1.8178,1.8741,1.9486,2.0625,2.0909,2.0896,2.071,2.1306,2.2027,2.264,2.2215,2.3084,2.6095,2.4802,2.5101,2.7855,2.7791,2.8201,2.9313,2.909,2.9251,2.9788,3.0033,3.0217,3.0278,3.1411,0.0,3.1964,3.1562,3.1396,3.1377,3.1035,3.0889,3.0889,3.0889,3.0889,3.0889,3.0889,3.0889,3.0889,3.0889,3.0889,3.0889,0.9994,0.9803,0.9657,0.986,0.9628,0.9464,0.9666,0.9703,0.9988,1.08,1.1246,1.1816,1.2606,1.2882,1.3084,1.3286,1.3121,1.3241,1.3761,1.4098,1.4199,1.3939,1.4547,1.466,1.4295,1.4589,1.4957,1.5398,1.5538,1.592,1.6527,1.6015,1.6622,1.8056,1.8557,1.9338,2.0339,2.132,2.1696,2.1696,2.1696,2.1449,2.1046,2.0625,2.0393,2.0131,1.9769,1.9613,1.9361,1.7883,1.7371,1.6963,1.5009,1.4238,1.3895,0.0,0.0,0.0,0.0,0.0,0.0,0.0,0.0,0.0,0.0,0.0,0.0,0.0,0.0,1.6102,1.6369,0.0,1.7907,1.8579,1.9192,1.9833,2.0575,2.0802,2.0895,2.0895,2.1022,2.1355,2.2034,2.1475,2.1908,2.3884,2.3175,2.3506,2.5665,2.5447,2.6079,2.771,2.7277,2.7748,2.9253,2.895,2.9137,2.9821,3.0016,3.0458,3.1143,3.0935,3.1153,3.1836,3.1621,3.1406,3.1182,3.0976,3.0889,3.0889,3.0889,3.0889,3.0889,3.0889,3.0889,3.0889,1.0703,1.0395,1.0039,1.0039,0.9849,0.9703,0.9703,0.9703,0.9988,1.08,1.1173,1.1687,1.2487,1.2579,1.2643,1.2799,1.2703,1.3223,1.4653,1.4661,1.4793,1.5263,1.5239,1.5099,1.4844,1.5096,1.5312,1.5478,1.5712,1.592,1.6109,1.6109,1.6622,1.7645,1.865,1.9521,2.0339,2.132,2.1696,2.1696,2.1696,2.1696,2.165,2.1355,2.1034,2.0689,2.0576,2.0223,1.9698,1.8215,1.7624,1.7063,1.4676,1.4044,1.3896,1.2604,1.2696,0.0,0.0,0.0,0.0,0.0,0.0,0.0,0.0,1.4168,1.4609,1.4957,1.5685,1.642,1.6954,1.7736,1.8571,1.9399,1.998,2.0421,2.0722,2.0962,2.1109,2.1109,2.1109,2.1109,2.1109,2.1109,2.1256,2.1563,2.1609,2.2208,2.3647,2.3197,2.3876,2.6047,2.5489,2.6158,2.8323,2.7577,2.7777,2.8909,2.8395,2.89,3.0297,3.0224,3.0949,3.2285,3.2119,3.1846,3.1484,3.1064,3.0889,3.0889,3.0889,3.0889,3.0889,3.0889,3.0889,3.0889,0.0,1.0646,1.0531,1.0531,1.0069,0.9703,0.9703,0.9703,0.9988,1.08,1.0947,1.1265,1.2082,1.2165,1.2459,1.3158,1.2678,1.3254,1.5419,1.4959,1.5178,1.6539,1.654,1.6385,1.6111,1.6117,1.6028,1.5785,1.5764,1.6251,1.7138,1.7138,1.7692,1.8703,1.9658,2.0204,2.0339,2.132,2.1696,2.1696,2.1696,2.1696,2.1687,2.1641,2.1595,2.1458,2.0778,2.0223,1.9575,1.7556,1.6613,1.6038,1.4538,1.3898,1.3649,1.3474,1.3165,1.2898,1.3109,1.3453,1.3703,1.3622,1.4045,1.473,0.0,1.6027,1.6234,1.679,1.7355,1.7849,1.823,1.8804,1.9419,2.004,2.0414,2.0728,2.1022,2.1089,2.1109,2.1109,2.1109,2.1109,2.1109,2.1109,2.171,2.3098,2.2224,2.2434,2.4322,2.4378,2.4613,2.5199,2.5352,2.5569,2.5895,2.6155,2.6487,2.6952,2.8064,2.9501,3.1167,3.0818,3.1371,3.2685,3.1914,3.1562,3.1484,3.1064,3.0889,3.0889,3.0889,3.0889,3.0889,3.0889,3.0889,3.0889,0.0,1.0876,1.0602,1.0602,1.0098,0.9703,0.9703,0.9703,0.9905,1.0487,1.0754,1.1131,1.1697,1.1963,1.233,1.2909,1.3131,1.3821,1.5276,1.5944,1.6201,1.6038,1.6477,1.6362,1.5562,1.5531,1.5647,1.5784,1.5784,1.6015,1.644,1.7044,1.7512,1.801,1.9613,2.0294,2.0339,2.132,2.1696,2.1696,2.1696,2.1696,2.1668,2.1421,2.1374,2.1328,2.0979,2.0111,0.0,1.7506,1.6531,1.571,1.4474,1.4001,1.3868,1.3653,1.3587,1.3708,1.4309,1.4569,1.4703,1.4825,1.5484,1.6132,1.6453,1.6934,1.7368,1.7609,1.8136,1.8651,1.8945,1.9479,2.0007,2.0421,2.0735,2.0969,2.1089,2.1109,2.1049,2.0882,2.1002,2.1109,2.1109,2.1109,2.1477,2.2339,2.2022,2.2259,2.3207,2.3514,2.3681,2.3816,2.4139,2.4609,2.521,2.5015,2.5218,2.5943,2.5943,2.732,2.9752,2.9587,3.0427,3.1882,3.1308,3.0922,3.0728,3.1059,3.1113,3.0889,3.0889,3.0889,3.0889,3.0889,3.0889,3.0889,0.0,1.1012,1.0602,1.0602,1.0098,0.9703,0.9703,0.9703,0.9886,1.0413,1.0726,1.1104,1.1614,1.1733,1.2064,1.2799,1.3203,1.3902,1.5029,1.6395,1.6839,1.6088,1.6806,1.684,1.5994,1.5793,1.5962,1.6448,1.6304,1.6339,1.6615,1.7365,1.7878,1.8195,1.9658,2.0439,2.0718,2.141,2.1696,2.1696,2.1696,2.1623,2.1485,2.1218,2.0897,2.0604,2.0604,1.9615,1.8155,1.7074,1.607,1.5092,1.4063,1.3834,1.3941,1.3766,1.4035,1.4449,1.5003,1.5331,1.5585,1.5879,1.662,1.7286,1.7108,1.7702,1.8229,1.827,1.8684,1.9138,1.9432,1.9893,2.0327,2.0628,2.0922,2.1109,2.1109,2.1042,2.0942,2.0808,2.0909,2.1022,2.1102,2.1109,2.1269,2.1708,2.1864,2.2151,2.2525,2.2746,2.2928,2.2928,2.3133,2.3672,2.4406,2.3945,2.4081,2.488,2.4292,2.548,2.8122,2.8649,2.95,3.0716,3.071,3.0499,3.0321,3.1178,3.1338,3.1055,3.0937,3.0889,3.0889,3.0889,3.0889,3.0889,0.0,0.0,1.0602,1.0602,1.0098,0.9703,0.9703,0.9703,0.9978,1.0781,1.0901,1.1214,1.2,1.1407,1.1559,1.3131,1.2597,1.2975,1.4964,1.589,1.6672,1.7405,1.8218,1.854,1.8404,1.7822,1.7702,1.8116,1.7535,1.7738,1.8696,1.875,1.9293,2.0204,2.0249,2.0808,2.1651,2.1696,2.1696,2.1696,2.1696,2.1493,2.1126,2.1108,2.0374,1.9356,1.9356,1.861,1.7372,1.5813,1.4682,1.3845,1.3092,1.3186,1.3666,1.3988,1.4526,1.4921,1.4616,1.5118,1.5885,1.6186,1.6921,1.7649,1.7882,1.8408,1.8898,1.8891,1.9145,1.9446,1.9733,2.0034,2.0327,2.0628,2.0922,2.1109,2.1109,2.0869,2.0795,2.1062,2.0855,2.0802,0.0,2.1109,2.1349,2.1924,2.1984,2.2238,2.2819,2.2859,2.2928,2.2928,2.2934,2.2934,2.2928,2.2928,2.3133,2.3475,2.3823,2.4955,2.6737,2.8394,2.9182,2.9296,3.0256,3.0717,3.0707,3.1303,3.1514,3.1455,3.1055,3.0889,3.0889,3.0889,3.0889,3.0889,0.0,0.0,0.0,1.0602,1.0098,0.9703,0.9703,0.9923,1.019,1.0478,1.0961,0.0,0.0,0.0,0.0,0.0,1.2909,1.3406,1.4634,1.5495,1.6044,1.6227,1.6796,1.7125,1.7154,1.7257,1.7176,1.6958,1.672,1.6965,1.753,1.8167,1.9109,2.0348,2.0943,2.141,2.1696,2.1696,2.1696,2.1668,2.1385,2.1236,2.1044,2.0521,1.9897,1.9191,0.0,1.7489,1.6504,1.5473,1.4538,1.3636,1.3006,1.3065,1.3487,1.4175,1.4656,1.5156,1.5785,1.6326,1.682,1.7308,1.7956,1.8497,1.8604,1.8931,1.9158,1.8965,1.9005,1.9105,1.9199,1.9459,1.982,2.0301,2.0628,2.0889,2.1082,2.1029,2.0929,2.0835,2.0909,0.0,0.0,0.0,0.0,2.167,2.1877,2.2158,2.2545,2.2752,2.2928,2.2928,2.2928,2.2928,2.2928,2.2928,2.2934,2.3065,2.4677,2.5674,2.627,2.7336,2.8196,2.8903,2.9436,3.0072,3.0771,3.1907,3.2031,3.1504,3.1367,3.1133,3.0889,3.0889,3.0889,3.0889,0.0,0.0,0.0,0.0,0.0,0.0,0.0,0.0,0.0,0.0,0.0,0.0,0.0,0.0,0.0,0.0,0.0,1.358,1.424,1.5067,1.5633,1.5843,1.5923,1.6117,1.6489,1.6437,1.6535,1.6796,1.6842,1.7136,1.7681,1.8302,1.9051,1.9908,2.0492,2.095,2.1257,2.1257,2.1257,2.1202,2.0695,2.0466,2.0332,1.9255,1.8617,0.0,1.7045,1.6139,1.532,1.476,1.3899,1.2996,1.2702,1.3093,1.3814,1.4482,1.5037,1.5685,1.66,1.7132,1.7521,1.8163,1.8631,1.8951,1.9058,1.9152,1.9152,1.8965,1.8758,1.8588,1.8751,1.8925,1.9279,1.9967,2.0327,2.0655,2.1056,2.1022,2.0922,2.0842,2.0902,2.0922,0.0,0.0,0.0,2.1594,2.1824,2.2111,2.2405,2.2699,2.2928,2.2928,2.2928,2.2928,2.2928,2.2928,2.2934,2.3133,2.4474,2.5278,2.5547,2.5958,2.6879,2.8196,2.892,2.9825,3.0992,3.2272,3.2471,3.1943,3.1641,3.1348,3.1094,3.0947,3.0889,3.0889,0.0,0.0,0.0,0.0,0.0,0.0,0.0,0.0,0.0,0.0,0.0,0.0,0.0,0.0,0.0,0.0,0.0,0.0,1.3883,1.4613,1.5409,1.6187,1.5629,1.567,1.6477,1.5618,1.5963,1.7605,1.7652,1.815,1.9025,1.9025,1.9033,1.9102,1.9102,1.9604,2.0457,2.0457,2.0457,2.0383,1.9595,1.9265,1.9104,1.7635,1.6765,1.6289,1.5566,1.4702,1.3907,1.3686,1.2871,1.2027,1.2298,1.336,1.4563,1.4955,1.5665,1.6476,1.7085,1.7474,1.7856,1.8724,1.8945,1.9018,1.9285,1.9118,1.8891,1.8865,1.8342,1.8029,1.835,0.0,1.8751,1.9613,2.002,2.0434,2.1029,2.0869,2.0802,2.1076,2.0869,2.0815,2.1102,2.1129,0.0,2.1614,0.0,2.2111,2.2405,2.2699,2.2928,2.2928,2.2928,2.2928,2.2928,2.2928,2.3065,2.3406,2.3406,2.3747,2.4503,2.457,2.5562,2.7278,2.8592,3.0021,3.1487,3.2344,3.275,3.2715,3.1904,3.1562,3.1475,3.1064,3.0908,3.0889,0.0,0.0,0.0,0.0,0.0,0.0,0.0,0.0,0.0,0.0,0.0,0.0,0.0,0.0,0.0,0.0,0.0,0.0,1.3883,1.4082,1.4572,1.5373,1.5281,1.5573,1.6342,1.593,1.5978,1.6602,1.6104,1.6525,1.7846,1.7846,1.8362,1.9241,1.9241,1.9371,1.9613,1.9613,1.9613,1.9567,1.9063,1.8861,1.8768,1.8085,1.7218,1.6396,1.643,1.5083,1.3314,1.3654,1.3368,1.2959,1.3474,1.3895,1.4382,1.5331,1.6079,1.6774,1.7595,1.819,1.8691,1.9145,1.9252,1.9219,1.9072,1.8811,1.847,1.8016,1.7635,1.7335,1.7188,1.7709,1.8377,1.9038,1.976,0.0,2.1029,2.1042,0.0,2.1102,2.1042,2.1116,2.141,2.1436,2.1563,2.185,2.1944,2.2111,2.2405,2.2699,2.2928,2.2928,2.2928,2.2928,2.2928,2.2928,2.3065,2.3406,2.3406,2.3679,2.4163,2.5487,2.6871,2.832,2.892,3.0613,3.2819,3.1997,3.2096,3.2773,3.2559,3.208,3.1504,3.1396,3.1162,3.0889,0.0,0.0,0.0,0.0,0.0,0.0,0.0,0.0,0.0,0.0,0.0,0.0,0.0,0.0,0.0,0.0,0.0,0.0,0.0,1.4082,1.444,1.5062,1.4411,1.4441,1.5308,1.4906,1.4959,1.5548,1.5648,1.6211,1.716,1.716,1.7582,1.8256,1.8256,1.8256,1.8256,1.8256,1.8256,0.0,0.0,1.7761,1.7834,1.7108,1.6302,1.5652,1.6009,1.5228,1.402,1.3953,1.3847,1.3868,1.4329,1.478,1.5224,1.6139,1.6827,1.7462,1.8169,1.8764,1.9158,1.9325,1.9265,1.9058,1.8637,1.831,1.7889,1.7154,1.6931,1.6683,1.6206,1.6967,1.7802,1.8263,1.9299,0.0,2.0835,2.1029,2.1156,2.1289,2.1303,2.1416,2.1782,2.1809,2.1864,2.2158,2.2178,2.2245,2.2412,2.2699,2.2928,2.2928,2.2928,2.2928,2.2928,2.2928,2.2996,2.3201,2.3201,2.3809,2.4948,2.5943,2.7328,2.892,2.9117,3.0419,3.2438,3.1643,3.1969,3.3057,3.2871,3.2393,3.1777,3.1592,3.125,3.0889,0.0,0.0,0.0,0.0,0.0,0.0,0.0,0.0,0.0,0.0,0.0,0.0,0.0,0.0,0.0,0.0,0.0,0.0,0.0,0.0,1.4671,1.501,1.3582,1.321,1.4138,1.3487,1.3677,1.4735,1.5611,1.6257,1.6743,1.6743,1.6743,1.6743,1.6743,1.6743,1.6743,1.6743,1.678,1.6798,1.6425,1.6551,1.6793,0.0,1.509,1.4633,1.4763,1.4921,1.5002,1.4317,1.4355,1.4736,1.4997,1.5732,1.6543,1.7099,1.7635,1.8169,1.8771,1.9138,1.9424,1.9424,1.9112,1.8711,1.8069,1.7682,1.7168,1.6333,1.614,1.5905,1.5478,1.6259,1.7186,1.7622,1.8851,1.9973,2.0641,2.0949,2.1223,2.1581,2.1614,2.1748,2.2011,2.2044,2.2164,2.2458,2.2478,2.2478,2.2478,2.2719,2.2928,2.2928,2.2928,2.2928,2.2928,2.2928,2.2928,2.2928,2.2928,2.4006,2.5808,2.6069,2.7195,2.892,2.9125,3.0021,3.1313,3.1313,3.21,3.3389,3.3027,3.2627,3.2197,3.1768,3.1338,3.0967,0.0,0.0,0.0,0.0,0.0,0.0,0.0,0.0,0.0,0.0,1.2386,1.2468,0.0,0.0,0.0,0.0,0.0,0.0,0.0,0.0,0.0,1.4616,1.4294,1.4234,1.4427,1.3765,1.3956,1.5047,1.4651,1.4976,1.59,1.59,1.59,1.59,1.59,1.59,1.59,1.59,1.6101,1.6413,1.6349,1.6551,1.6864,1.6688,0.0,0.0,1.3252,1.3394,1.4157,1.4125,1.4763,1.5565,1.5665,1.6286,1.7119,1.7402,1.7936,1.849,1.8831,1.9138,1.9424,1.9424,1.8965,1.8404,1.7802,1.7061,1.6319,1.5678,1.5164,1.4937,1.5324,1.5758,1.6553,1.8083,1.8958,1.9813,2.0882,2.1076,2.1223,0.0,2.1614,2.1764,2.2291,2.2345,0.0,0.0,2.2786,2.2786,2.2786,2.2901,2.2928,2.2928,2.2928,2.2928,2.2928,2.2928,2.2928,2.2928,2.3201,2.3679,2.442,2.5883,2.6879,2.7543,2.8657,3.0021,3.1313,3.1313,3.21,3.3418,3.334,3.3057,3.2637,3.2207,3.1777,3.1357,0.0,0.0,0.0,0.0,0.0,0.0,0.0,1.1375,1.2404,1.2404,1.2946,1.3249,1.3066,1.3562,1.3974,0.0,0.0,0.0,0.0,0.0,0.0,0.0,1.4169,1.413,1.4476,1.3708,1.3771,1.4799,0.0,1.4247,1.4551,1.491,1.4879,1.456,1.491,1.5084,1.5084,1.5084,1.5313,1.5707,1.5909,1.6239,1.6624,0.0,0.0,0.0,0.0,1.3691,1.4327,1.3954,1.4692,1.5804,1.6012,1.656,1.7293,1.7695,1.8143,1.8591,1.9032,1.9259,1.939,1.9172,1.8684,1.8003,1.7108,0.0,0.0,1.4897,1.4609,1.4469,1.4295,1.5117,1.6059,1.6767,1.8023,1.9265,2.0281,2.0561,2.0935,2.169,2.1842,2.2011,2.2592,2.2645,2.2706,2.2921,2.2928,2.2928,2.2928,2.2928,2.2928,2.2928,2.2928,2.2928,2.2928,2.2928,2.2996,2.3133,2.3338,2.4074,2.5352,2.6211,2.6812,2.7145,2.8592,2.9574,3.0281,3.0992,3.21,3.3418,3.3418,3.3164,3.2744,3.2324,3.1894,3.1455,0.0,0.0,0.0,0.0,0.0,0.0,0.0,1.1684,1.2689,1.2689,1.3406,1.3911,1.3911,1.3994,1.4148,0.0,0.0,0.0,0.0,0.0,0.0,0.0,0.0,1.395,1.4476,0.0,0.0,1.4643,1.4435,0.0,0.0,0.0,0.0,0.0,1.4258,1.4515,1.4515,1.4515,1.479,0.0,0.0,1.5991,0.0,0.0,0.0,0.0,0.0,0.0,1.4212,1.3736,1.4366,1.5378,1.5785,1.6522,1.7306,1.7789,1.8203,1.8604,1.9132,1.9377,1.9299,1.8998,1.8417,1.7635,1.6576,1.5945,1.5351,1.4302,1.4222,1.4142,1.3514,1.4426,1.5411,1.5558,1.7054,1.8577,1.9653,2.0107,2.0742,2.1857,2.1984,0.0,2.2874,2.2928,0.0,2.2928,2.2928,2.2928,2.2928,2.2928,2.2928,2.2928,2.2928,2.2928,2.2928,2.2928,2.3065,2.3406,2.3475,2.4413,2.6084,2.6218,2.6352,2.662,2.8403,2.9182,2.9313,3.1065,3.2374,3.3418,3.3418,3.3223,3.2871,3.2353,3.1953,3.1582,0.0,0.0,0.0,0.0,0.0,0.0,0.0,1.1684,1.2689,1.2689,1.3406,1.3911,1.3911,1.4222,1.4469,0.0,0.0,0.0,0.0,0.0,0.0,0.0,0.0,0.0,0.0,0.0,0.0,1.5047,1.5013,0.0,0.0,0.0,0.0,0.0,0.0,0.0,1.4515,1.4515,0.0,0.0,0.0,0.0,0.0,0.0,0.0,0.0,0.0,0.0,1.262,1.3367,1.3693,1.39,1.4459,1.5818,1.7266,1.7528,0.0,0.0,1.8878,1.9158,1.9299,1.8998,1.827,1.7388,1.648,0.0,1.4908,1.4215,1.3895,1.374,1.3975,1.3915,1.4312,1.5939,1.6851,1.7916,1.9559,2.0281,2.0969,2.1877,0.0,0.0,2.2874,2.2928,2.2928,2.2928,2.2928,2.2928,2.2928,2.2928,2.2928,2.2928,2.2928,2.2928,2.2928,2.2928,2.3065,2.3406,2.3754,2.4027,2.4292,2.4909,2.5044,2.4902,2.7866,2.9182,2.9387,3.2119,3.3292,3.3418,3.3418,3.3398,3.3271,3.2461,3.2148,3.1992,0.0,0.0,0.0,0.0,0.0,0.0,1.0971,1.1972,1.2781,1.3038,1.3562,1.3911,1.3911,1.4258,1.4515,1.4515,0.0,0.0,0.0,0.0,0.0,0.0,0.0,0.0,0.0,0.0,1.4077,1.5102,1.4499,0.0,0.0,0.0,0.0,0.0,0.0,0.0,1.4533,0.0,0.0,0.0,0.0,0.0,0.0,0.0,0.0,0.0,0.0,0.0,0.0,0.0,0.0,0.0,1.3873,1.4596,1.5471,0.0,1.7201,1.805,1.8531,1.9005,1.9252,1.8778,1.8123,1.7308,1.6246,1.5464,1.4841,1.4208,1.3707,1.338,1.354,1.346,1.3788,1.5017,1.5712,1.6714,1.8497,1.9098,1.988,2.1289,2.1617,2.209,0.0,0.0,2.2928,2.2928,2.2928,2.2928,2.2928,2.2928,2.2928,2.2928,2.2928,2.2928,2.2928,2.2928,2.3201,2.3747,2.3891,2.4231,2.4645,2.4991,2.4984,2.5044,2.7941,2.9182,2.9444,3.2247,3.3418,3.3418,3.3418,3.3271,3.2969,3.2383,3.2002,3.1689,0.0,0.0,0.0,0.0,0.0,1.0606,1.1219,1.2101,1.2799,1.3093,1.3589,1.3911,1.3911,1.4258,1.4515,1.4515,1.4515,0.0,0.0,0.0,0.0,0.0,0.0,0.0,0.0,0.0,1.4055,1.4953,1.4591,1.4547,0.0,0.0,0.0,0.0,0.0,0.0,0.0,0.0,0.0,0.0,0.0,0.0,0.0,0.0,0.0,0.0,0.0,0.0,0.0,0.0,0.0,0.0,0.0,0.0,1.4202,1.5464,1.6473,1.7348,1.8036,1.8657,1.8965,1.837,1.7836,1.7148,1.5972,1.5317,1.4821,1.4095,1.3627,1.328,1.3106,1.3153,1.3467,1.4262,1.503,1.6112,1.7756,1.845,1.9305,2.0808,0.0,2.1702,2.2519,2.2827,2.2928,2.2928,2.2928,2.2928,2.2928,2.2928,2.2928,2.2928,2.2928,2.2928,2.2928,2.2996,2.3345,2.3823,2.4027,2.4367,2.4781,2.4991,2.5052,2.5044,2.7941,2.9182,2.9444,3.2247,3.3418,3.3408,3.3281,3.3057,3.2725,3.2178,3.1787,3.1455,0.0,0.0,0.0,0.0,0.0,0.0,1.0868,1.1941,1.2689,1.2698,1.3406,1.3911,1.3911,1.4258,1.4515,1.4515,1.4515,0.0,0.0,0.0,0.0,0.0,0.0,0.0,0.0,0.0,1.4939,1.4624,1.5728,1.59,1.5206,1.5968,1.6083,1.5661,0.0,0.0,0.0,0.0,0.0,0.0,0.0,0.0,0.0,0.0,0.0,0.0,0.0,0.0,0.0,0.0,0.0,0.0,0.0,0.0,1.3893,1.5351,1.6046,1.648,1.7355,1.8036,1.835,1.7742,1.742,1.6898,1.5671,1.517,1.4716,1.3786,1.36,1.3413,1.2898,1.3006,1.3407,1.3995,1.507,1.6297,1.7782,1.8804,1.9745,0.0,2.0681,2.1029,2.1911,2.2525,2.2928,2.2928,2.2928,0.0,2.2928,2.2928,2.2928,2.2928,2.2928,2.2928,2.2928,2.3201,2.3406,2.3406,2.4156,2.4299,2.4027,2.4781,2.4849,2.4699,2.78,2.9182,2.9444,3.2247,3.3418,3.3379,3.2969,3.2803,3.2685,3.1836,3.1523,3.1455,0.0,0.0,0.0,0.0,0.0,0.0,0.0,1.1816,1.2082,1.2625,1.2919,1.3286,1.3856,1.4258,1.4515,1.4515,1.4515,0.0,0.0,0.0,0.0,0.0,0.0,0.0,0.0,0.0,1.4942,1.5357,1.576,1.6254,1.6749,1.6201,1.6154,1.6471,1.5562,0.0,0.0,0.0,0.0,0.0,0.0,0.0,0.0,0.0,0.0,0.0,0.0,0.0,0.0,0.0,0.0,0.0,0.0,0.0,0.0,1.4262,1.5271,1.6032,1.6306,1.682,1.7174,1.6787,1.6319,1.5805,1.5276,1.487,1.4469,1.374,1.3447,1.3227,1.2857,1.2659,1.3046,1.4499,1.4997,1.5892,1.7729,1.8631,0.0,2.0548,2.1563,2.2278,0.0,0.0,2.2928,2.2928,2.2928,2.2928,2.2928,2.2928,2.2928,2.2928,2.2928,2.2996,2.327,2.3338,2.3543,2.3823,2.4292,2.4435,2.4367,2.4849,2.5052,2.5052,2.7941,2.9182,2.9444,3.2247,3.3418,3.3379,3.2959,3.2617,3.2295,3.1728,3.1338,3.1064,0.0,0.0,0.0,0.0,0.0,0.0,0.0,1.1798,1.1908,1.2404,1.2597,1.3001,1.3819,1.4121,1.4341,1.4497,1.4515,0.0,0.0,0.0,0.0,0.0,0.0,0.0,1.4735,1.4907,1.5239,1.5739,1.6201,1.667,1.7081,1.6366,1.6325,1.6855,1.5729,1.5569,0.0,0.0,0.0,0.0,0.0,0.0,0.0,0.0,0.0,0.0,0.0,0.0,0.0,0.0,0.0,0.0,0.0,0.0,0.0,0.0,1.4255,1.5032,1.5411,1.5852,1.6119,1.5712,1.5418,1.513,1.4767,1.4576,1.4306,1.372,1.3373,1.3113,1.2844,1.263,1.2985,1.4439,1.4955,1.5772,1.7615,0.0,0.0,2.0541,2.1677,0.0,2.2525,2.28,2.2928,2.2928,2.2928,2.2928,2.2928,2.2928,2.2928,2.2928,2.2928,2.3065,2.3406,2.3543,2.3747,2.4027,2.4503,2.4638,2.4503,2.4916,2.5127,2.5255,2.8007,2.9182,0.0,3.2086,3.3184,3.3125,3.2539,3.2158,3.1875,3.1445,3.1113,3.0889,0.0,0.0,0.0,0.0,0.0,0.0,0.0,1.1816,1.2046,1.2128,1.2441,1.2974,1.3819,1.3938,1.4084,1.4478,0.0,0.0,0.0,0.0,0.0,0.0,0.0,0.0,1.5093,1.5487,1.5734,1.5834,1.6955,1.7135,1.6426,1.6426,1.6606,1.6833,1.5773,1.5885,0.0,0.0,0.0,0.0,0.0,0.0,0.0,0.0,0.0,0.0,0.0,0.0,0.0,0.0,0.0,0.0,0.0,0.0,0.0,0.0,0.0,0.0,0.0,1.5037,1.5144,1.4596,1.4663,1.478,1.4208,1.4295,0.0,1.372,1.3387,1.3153,1.2904,1.2831,1.3132,1.4055,1.4897,1.5939,1.7408,1.8424,1.9446,2.0601,2.132,2.1717,2.1991,2.2532,2.2928,2.2928,2.2928,2.2928,2.2928,2.2928,2.2928,2.2928,2.2928,2.3133,2.3406,2.3816,2.4027,2.4027,2.4781,2.4916,2.4503,2.4916,2.5127,2.5255,2.7982,2.9139,2.9309,3.1766,3.2754,3.2666,3.1846,3.1514,3.1465,3.1045,3.0889,3.0889,0.0,0.0,0.0,0.0,0.0,0.0,0.0,0.0,0.0,0.0,1.2367,1.2661,1.3791,1.4167,1.4405,0.0,0.0,0.0,0.0,0.0,0.0,0.0,0.0,0.0,1.5093,1.5487,1.5871,1.6179,1.7085,1.7215,1.6727,1.6802,1.6862,1.6804,1.6334,1.6413,0.0,0.0,0.0,0.0,0.0,0.0,0.0,0.0,0.0,0.0,1.5276,1.4784,0.0,0.0,0.0,0.0,0.0,0.0,0.0,0.0,1.2884,1.3038,1.3253,0.0,1.3979,1.384,1.386,1.3975,0.0,1.4142,1.4088,1.3673,1.3547,1.348,1.3407,1.3253,1.3607,1.517,1.5591,1.6239,1.7709,1.9072,2.0281,2.13,2.1864,2.2245,2.2311,2.2652,2.2928,2.2928,2.2928,2.2928,2.2928,2.2928,2.2928,2.2928,2.3133,2.3475,2.3891,2.3959,2.4163,2.4367,2.4849,2.4916,2.4503,2.4916,2.5127,2.524,2.7703,2.8738,2.8905,3.1341,3.2314,3.2266,3.1728,3.1514,3.1465,3.1045,3.0889,3.0889,0.0,0.0,0.0,0.0,0.0,0.0,0.0,0.0,0.0,0.0,0.0,0.0,0.0,0.0,0.0,0.0,0.0,0.0,0.0,0.0,0.0,0.0,0.0,1.4781,1.5359,1.5579,1.6074,1.6862,1.6955,1.693,1.6779,1.6376,1.63,1.6544,1.6595,1.674,0.0,0.0,0.0,0.0,0.0,0.0,0.0,0.0,0.0,0.0,1.4788,1.4314,0.0,1.3822,1.3237,1.2811,0.0,0.0,0.0,0.0,1.2583,1.2583,1.2583,1.308,1.3573,1.344,1.3606,1.3888,1.4048,1.4088,1.4041,1.3881,1.37,1.36,1.36,1.3473,1.3813,1.5211,1.5658,1.6486,1.837,1.9559,2.0561,2.1514,2.183,2.2124,2.2392,2.2565,2.2712,2.2921,2.2928,2.2928,2.2928,2.2928,2.2996,2.3133,2.3338,2.3611,2.4027,2.4163,2.4435,2.4781,2.4984,2.4984,2.4774,2.4831,2.516,2.5863,2.7625,2.8734,2.9403,3.1161,3.1875,3.1826,3.1396,3.123,3.1201,3.0976,3.0889,3.0889,0.0,0.0,0.0,0.0,0.0,0.0,0.0,0.0,0.0,0.0,0.0,0.0,0.0,0.0,0.0,0.0,0.0,0.0,0.0,0.0,0.0,0.0,1.4515,1.4909,1.5762,1.5661,1.6187,1.7351,1.6683,1.6479,1.6628,1.5929,1.5922,1.6497,1.6706,1.685,0.0,0.0,0.0,0.0,0.0,0.0,0.0,0.0,0.0,0.0,0.0,0.0,0.0,1.3425,1.2959,1.2884,1.3019,0.0,0.0,0.0,0.0,0.0,1.2412,1.3027,1.358,1.324,1.3647,1.4128,1.4041,1.4055,1.4088,1.4088,1.3888,1.37,1.3786,1.3806,1.4148,1.5077,1.5798,1.7001,1.9192,1.992,2.0541,2.1447,2.1594,2.175,2.2238,2.2325,2.2458,2.2706,2.2726,2.2726,2.2726,2.2726,2.293,2.327,2.3331,2.3541,2.3947,2.4267,2.4612,2.4973,2.4973,2.4973,2.4965,2.462,2.5206,2.6476,2.7579,2.8728,3.0073,3.1034,3.1426,3.1387,3.1025,3.0889,3.0889,3.0889,3.0889,3.0889,0.0,0.0,0.0,0.0,0.0,0.0,0.0,0.0,0.0,0.0,0.0,0.0,0.0,0.0,0.0,0.0,0.0,0.0,0.0,0.0,0.0,1.4515,1.4515,1.5047,1.6193,1.5542,1.5641,1.6565,1.6347,1.6108,1.5881,1.7044,1.7648,1.7777,1.6889,1.6634,1.6874,0.0,0.0,0.0,0.0,0.0,0.0,0.0,0.0,0.0,0.0,0.0,0.0,1.2917,1.2752,1.306,1.2592,0.0,0.0,0.0,0.0,0.0,1.2933,1.3534,1.3828,1.3058,1.3641,1.4279,1.378,1.3908,1.4088,1.4088,1.4048,1.4168,1.4669,1.4807,1.513,1.6253,1.7361,1.8557,1.9913,2.0174,2.0468,2.1102,2.1403,2.1655,2.1742,2.1904,2.2071,2.2118,2.2118,2.2118,2.2118,2.2118,2.2316,2.2647,2.2904,2.3234,2.3562,2.3892,2.4165,2.4232,2.4232,2.4232,2.4232,2.4181,2.4852,2.6104,2.7177,2.8325,2.9589,3.0602,3.0986,3.0986,3.0918,3.0889,3.0889,3.0889,3.0889,3.0889,0.0,0.0,0.0,0.0,0.0,0.0,0.0,0.0,0.0,0.0,0.0,0.0,0.0,0.0,0.0,0.0,0.0,0.0,0.0,0.0,1.4708,1.5129,1.4744,1.4974,1.5955,1.5575,1.567,1.6274,1.6271,1.6132,1.592,1.7102,1.7497,1.7175,1.7062,1.6732,1.6298,1.6368,0.0,0.0,0.0,0.0,0.0,0.0,0.0,0.0,0.0,0.0,0.0,0.0,1.2839,1.3133,1.2685,0.0,0.0,0.0,0.0,0.0,1.2645,1.316,1.3514,1.31,1.4001,1.4923,1.4649,1.4576,1.4606,1.4606,1.4606,1.4687,1.4955,1.5397,1.6106,1.7455,1.8531,1.9439,2.0134,2.0368,2.0628,2.1056,2.1229,2.1376,2.1601,2.1735,2.1817,2.1977,2.1984,2.1984,2.1984,2.1984,2.2247,2.2766,2.2897,2.3204,2.3558,2.3703,2.3862,2.4086,2.4086,2.4086,2.4079,2.3903,2.4945,2.6856,2.7117,2.8362,3.0246,3.0723,3.0889,3.0889,3.0889,3.0889,3.0889,3.0889,3.0889,3.0889,0.0,0.0,0.0,0.0,0.0,0.0,0.0,0.0,0.0,0.0,0.0,0.0,0.0,0.0,0.0,0.0,0.0,0.0,0.0,0.0,1.4827,1.5524,1.4952,1.5047,1.5954,1.5558,1.5535,1.5991,1.6155,1.6309,1.638,1.7094,1.7098,1.6521,1.6836,1.6509,1.5833,1.6184,1.6473,0.0,0.0,0.0,0.0,0.0,0.0,0.0,0.0,0.0,0.0,0.0,0.0,0.0,0.0,0.0,0.0,1.2652,1.2465,1.2438,1.2579,1.2953,1.3327,1.3394,1.4208,1.5037,1.5251,1.5169,1.5048,1.5182,1.5269,1.5316,1.5316,1.6154,1.7208,1.849,1.9432,2.0107,2.0394,2.0635,2.0862,2.1082,2.1109,2.1196,2.1494,2.145,2.1543,2.1764,2.1784,2.1784,2.1784,2.1842,2.2168,2.2746,2.2876,2.3085,2.3486,2.3479,2.361,2.3859,2.3859,2.3859,2.3845,2.3907,2.5211,2.7407,2.7436,2.876,3.0889,3.0889,3.0889,3.0889,3.0889,3.0889,3.0889,3.0889,3.0889,3.0889,0.0,0.0,0.0,0.0,0.0,0.0,0.0,0.0,0.0,0.0,0.0,0.0,0.0,0.0,0.0,0.0,0.0,0.0,0.0,0.0,1.4698,1.512,1.5022,1.5504,1.6716,1.5256,1.4824,1.5457,1.5916,1.6475,1.7203,1.7487,1.7274,1.6728,1.5778,1.5534,1.5762,1.5073,1.5215,1.5868,0.0,0.0,0.0,0.0,0.0,0.0,0.0,0.0,0.0,0.0,0.0,0.0,0.0,0.0,1.32,1.316,1.2939,1.2871,1.3353,1.354,1.364,1.3955,1.3895,1.3939,1.481,1.5022,1.5162,1.5658,1.5985,1.6228,1.6228,1.7355,1.8544,1.9256,2.004,2.0715,2.1002,2.1069,2.1089,2.1109,2.1109,2.1116,2.1136,2.1142,2.1149,2.1169,2.1169,2.1169,2.1169,2.1486,2.1795,2.2174,2.2489,2.2788,2.3142,2.3142,2.3157,2.3179,2.3179,2.3179,2.3241,2.4448,2.5717,2.7116,2.8283,2.9599,3.0889,3.0889,3.0889,3.0889,3.0889,3.0889,3.0889,3.0889,3.0889,3.0889,0.0,0.0,0.0,0.0,0.0,0.0,0.0,0.0,0.0,0.0,0.0,0.0,0.0,0.0,0.0,0.0,0.0,0.0,0.0,1.4515,1.4799,1.5432,1.4962,1.523,1.6408,1.5795,1.569,1.6214,1.6654,1.7171,1.7868,1.7317,1.6606,1.5806,1.5586,1.5335,1.5073,1.5251,1.5223,1.5108,1.5613,0.0,0.0,0.0,0.0,0.0,0.0,0.0,0.0,0.0,1.2444,1.2529,1.2605,1.2772,1.2924,1.2699,1.2559,1.2518,1.2746,1.3086,1.3487,1.3968,1.4001,1.4195,1.5257,1.5785,1.6213,1.68,1.7007,1.7148,1.7341,1.7989,1.8744,1.9512,2.0221,2.0775,2.1069,2.1109,2.1109,2.1109,2.1109,2.1109,2.1109,2.1109,2.1109,2.1109,2.1109,2.1172,2.1425,2.1544,2.1859,2.2418,2.255,2.2738,2.3106,2.3106,2.3106,2.3106,2.3106,2.3106,2.3168,2.4463,2.5798,2.7073,2.8325,2.9658,3.0889,3.0889,3.0889,3.0889,3.0889,3.0889,3.0889,3.0889,3.0889,3.0889,0.0,0.0,0.0,0.0,0.0,0.0,0.0,0.0,0.0,0.0,0.0,0.0,0.0,0.0,0.0,0.0,0.0,0.0,1.4515,1.4515,1.4808,1.5478,1.4853,1.4886,1.5818,1.6135,1.6405,1.6657,1.704,1.733,1.7466,1.6483,1.5661,1.5095,1.5267,1.4977,1.4434,1.5122,1.4966,1.4322,1.5108,1.5578,0.0,0.0,0.0,0.0,0.0,0.0,0.0,0.0,1.2102,1.2184,1.2271,1.2445,1.2623,1.2478,1.2445,1.2465,1.2559,1.2959,1.344,1.3848,1.4229,1.4783,1.5858,1.642,1.6927,1.7709,1.7869,1.7963,1.8209,1.8571,1.8991,1.9686,2.0368,2.0882,2.1082,2.1109,2.1109,2.1109,2.1109,2.1109,2.1109,2.1109,2.1172,2.1235,2.1172,2.1292,2.1734,2.1734,2.2048,2.2613,2.2668,2.2856,2.3106,2.3106,2.3106,2.3106,2.3106,2.3106,2.3168,2.4887,2.6164,2.7073,2.8811,3.003,3.0889,3.0889,3.0889,3.0889,3.0889,3.0889,3.0889,3.0889,3.0889,3.0889,0.0,0.0,0.0,0.0,0.0,0.0,0.0,0.0,0.0,0.0,0.0,0.0,0.0,0.0,0.0,0.0,0.0,0.0,1.4515,1.4515,1.4689,1.5084,1.4652,1.4596,1.4993,1.6156,1.6671,1.6494,1.6915,1.6699,1.5954,1.4962,1.4611,1.4794,1.4641,1.4327,1.3901,1.4382,1.4171,1.3564,1.4279,1.5073,0.0,0.0,0.0,0.0,0.0,0.0,0.0,0.0,1.2172,1.1946,1.2204,1.2298,1.2358,1.269,1.2777,1.2851,1.312,1.338,1.36,1.3613,1.4536,1.5638,1.6513,1.6714,1.7061,1.8257,1.8504,1.8591,1.8878,1.9172,1.9466,1.976,2.0535,2.1109,2.1109,2.1109,2.1109,2.1109,2.1109,2.1109,2.1109,2.1109,2.1235,2.1607,2.1292,2.1425,2.2048,2.2111,2.2237,2.2606,2.2926,2.3106,2.3106,2.3106,2.3106,2.3106,2.3113,2.3113,2.323,2.5798,2.7021,2.7134,2.9795,3.0889,3.0889,3.0889,3.0889,3.0889,3.0889,3.0889,3.0889,3.0889,3.0889,3.0889,0.0,0.0,0.0,0.0,0.0,0.0,0.0,0.0,0.0,0.0,0.0,0.0,0.0,0.0,0.0,0.0,0.0,0.0,1.4515,1.4515,1.4561,1.468,1.4808,1.4836,1.4712,1.5336,1.6215,1.7248,1.6437,1.5662,1.4933,1.4207,1.3957,1.4146,1.3796,1.3484,1.3286,1.3403,1.3048,1.2477,1.3439,1.3962,0.0,0.0,0.0,0.0,0.0,0.0,0.0,0.0,0.0,0.0,1.1597,1.1971,1.2278,1.2201,1.2308,1.2452,1.2545,1.3054,1.37,1.4113,1.5297,1.6493,1.7168,1.7482,1.7963,1.9165,1.9412,1.9439,1.9526,1.9613,1.9766,2.0054,2.0501,2.0875,2.1082,2.1109,2.1109,2.1109,2.1109,2.1172,2.1425,2.1235,2.1362,2.1922,2.167,2.1734,2.2418,2.2425,2.2613,2.2918,2.3043,2.3106,2.3106,2.4031,2.4525,2.4517,2.5431,2.537,2.4579,2.6225,2.7495,2.8444,3.0157,3.0889,3.0889,3.0889,3.0889,3.0889,3.0889,3.0889,3.0889,3.0889,3.0889,3.0889,0.0,0.0,0.0,0.0,0.0,0.0,0.0,0.0,0.0,0.0,1.4515,1.4515,0.0,0.0,0.0,0.0,0.0,0.0,0.0,1.4515,1.4579,1.4735,1.4648,1.4778,1.506,1.478,1.5273,1.6652,1.5643,1.4776,1.3981,1.362,1.3573,1.379,1.3664,1.3355,1.2919,1.3114,1.2714,1.1991,1.2906,1.3301,1.3337,0.0,0.0,0.0,0.0,0.0,0.0,0.0,0.0,0.0,1.1236,1.1496,1.179,1.1886,1.2078,1.2405,1.2879,1.3494,1.4119,1.4819,1.5879,1.6954,1.7903,1.843,1.8958,1.98,1.9973,2.0007,2.0127,2.0054,2.0067,2.0361,2.0655,2.0909,2.1082,2.1109,2.1109,2.1109,2.1109,2.1235,2.1544,2.1418,2.1607,2.2237,2.1985,2.2111,2.2731,2.2668,2.2731,2.3106,2.3106,2.3106,2.3106,2.4456,2.5071,2.5133,2.6407,2.6892,2.6633,2.7426,2.8146,2.8979,3.0333,3.0889,3.0889,3.0889,3.0889,3.0889,3.0889,3.0889,3.0889,3.0889,3.0889,3.0889,0.0,0.0,0.0,0.0,0.0,0.0,0.0,0.0,0.0,0.0,1.4515,1.4515,0.0,0.0,0.0,0.0,0.0,0.0,0.0,0.0,1.4689,1.5084,1.4455,1.4636,1.5875,1.4467,1.4171,1.5075,1.4561,1.3903,1.3166,1.3166,1.332,1.3587,1.3973,1.3656,1.2799,1.3162,1.2763,1.197,1.2628,1.2924,1.2982,1.3244,0.0,0.0,0.0,0.0,0.0,0.0,0.0,0.0,1.1082,1.1029,1.1169,1.1712,1.2051,1.2552,1.3701,1.4262,1.473,1.5565,1.6353,1.7235,1.8644,1.9399,1.9873,2.014,2.0234,2.0354,2.0628,2.0474,2.0401,2.0675,2.0935,2.1109,2.1109,2.1109,2.1109,2.1172,2.1109,2.1235,2.167,2.1607,2.1922,2.2606,2.2362,2.2418,2.3043,2.2801,2.2801,2.3106,2.323,2.3293,2.3293,2.4702,2.5431,2.5431,2.671,2.7975,2.9107,2.8979,2.8979,2.9166,3.0392,3.0889,3.0889,3.0889,3.0889,3.0889,3.0889,3.0889,3.0889,3.0889,3.0889,3.0889,0.0,0.0,0.0,0.0,0.0,0.0,0.0,0.0,0.0,0.0,0.0,0.0,0.0,0.0,0.0,0.0,0.0,0.0,0.0,0.0,1.4689,1.5084,1.5298,1.5753,1.6561,1.4916,1.4066,1.4201,1.3241,1.2801,1.2884,1.2884,1.3013,1.3293,1.3167,1.2862,1.2365,1.2014,1.1885,1.1906,1.2077,1.2249,1.244,1.2312,1.2168,0.0,0.0,0.0,0.0,0.0,0.0,0.0,1.1082,1.1343,1.1698,1.155,1.1891,1.2465,1.32,1.3948,1.473,1.5565,1.6981,1.831,1.9092,1.9546,1.982,1.988,2.0261,2.0601,2.0668,2.0808,2.0942,2.1002,2.1069,2.1109,2.1109,2.1109,2.1172,2.1488,2.1235,2.1418,2.2299,2.1922,2.1985,2.2918,2.2675,2.2668,2.3113,2.305,2.305,2.3106,2.4092,2.4641,2.4641,2.6935,2.8077,2.8077,2.9431,3.0216,3.046,2.9412,2.9471,3.046,3.0772,3.0889,3.0889,3.0889,3.0889,3.0889,3.0889,3.0889,3.0889,3.0889,3.0889,3.0889,0.0,0.0,0.0,0.0,0.0,0.0,0.0,0.0,0.0,0.0,0.0,0.0,0.0,0.0,0.0,0.0,0.0,0.0,0.0,1.4515,1.462,1.4834,1.5247,1.5496,1.5538,1.4022,1.3235,1.3286,1.2199,1.1971,1.2576,1.2871,1.3053,1.32,1.3039,1.2837,1.2516,1.1891,1.173,1.1906,1.1906,1.1826,1.169,1.1859,1.1645,1.129,1.1383,0.0,0.0,0.0,0.0,0.0,0.0,0.0,1.1443,1.1395,1.1844,1.2492,1.3387,1.4168,1.5044,1.6346,1.7589,1.8644,1.9232,1.9486,1.9593,1.9593,2.006,2.0508,2.0648,2.0802,2.0949,2.1089,2.1235,2.1299,2.1109,2.1235,2.1425,2.1607,2.1418,2.167,2.2543,2.2299,2.2355,2.3043,2.2918,2.323,2.4031,2.3479,2.3658,2.4941,2.5063,2.5378,2.5981,2.7898,2.892,2.892,3.0274,3.0889,3.0889,3.0157,3.0216,3.0889,3.0889,3.0889,3.0889,3.0889,3.0889,3.0889,3.0889,3.0889,3.0889,3.0889,3.0889,3.0889,0.0,0.0,0.0,0.0,0.0,0.0,0.0,0.0,0.0,0.0,0.0,0.0,0.0,0.0,0.0,0.0,0.0,0.0,0.0,1.445,1.4453,1.4528,1.4866,1.4764,1.4186,1.31,1.2505,1.2482,1.1593,1.157,1.2385,1.2839,1.314,1.328,1.3173,1.3025,1.2737,1.2047,1.1752,1.1745,1.1638,1.1336,1.1035,1.1457,1.1209,1.0727,1.1182,1.1315,1.1403,1.1785,0.0,0.0,0.0,0.0,1.1102,1.1296,1.1764,1.2458,1.35,1.4439,1.5491,1.7154,1.8043,1.8631,1.9172,1.939,1.9424,1.9424,1.9786,2.0234,2.0481,2.0608,2.0755,2.0995,2.1328,2.1418,2.1172,2.1418,2.1607,2.167,2.167,2.1922,2.2606,2.2613,2.2731,2.3043,2.3293,2.3907,2.501,2.4031,2.4517,2.6892,2.5981,2.6042,2.7315,2.8623,2.9226,2.9285,3.0392,3.0889,3.0889,3.0889,3.0889,3.0889,3.0889,3.0889,3.0889,3.0889,3.0889,3.0889,3.0889,3.0889,3.0889,3.0889,3.0889,3.0889,0.0,0.0,0.0,0.0,0.0,0.0,0.0,0.0,0.0,0.0,1.4515,1.4515,1.4515,1.4515,0.0,0.0,0.0,0.0,1.4515,0.0,0.0,1.4263,1.4611,1.4595,1.4119,1.3667,1.297,1.198,1.1841,1.2107,1.2723,1.2505,1.2839,1.3527,1.3079,1.2824,1.271,1.1611,1.1109,1.1062,1.0555,1.0608,1.0942,1.0514,1.0595,1.0949,1.1022,1.1049,1.1136,1.1718,1.1879,0.0,0.0,0.0,1.1323,1.1109,1.147,1.2053,1.2432,1.3908,1.5698,1.7208,1.8043,1.8577,1.8905,1.9185,1.9424,0.0,1.9633,1.9867,1.9907,2.0334,2.0688,2.0728,2.1005,2.1172,2.1109,2.1418,2.1734,2.1985,2.2048,2.2299,2.2981,2.2793,2.2731,2.3043,2.4154,2.4887,2.5071,2.4949,2.5501,2.6952,2.6814,2.7349,2.8623,2.9971,3.0645,3.0645,3.083,3.0889,3.0889,3.0889,3.0889,3.0889,3.0889,3.0889,3.0889,3.0889,3.0889,3.0889,3.0889,3.0889,3.0889,3.0889,3.0889,3.0889,0.0,0.0,0.0,0.0,0.0,0.0,0.0,0.0,0.0,0.0,0.0,1.4515,1.4515,1.4515,0.0,0.0,0.0,0.0,1.3941,1.3542,0.0,1.3588,1.338,1.3195,1.2974,1.2428,1.1916,1.1417,1.1049,1.1617,1.2993,1.2525,1.2959,1.4059,1.3347,1.3006,1.2958,1.1563,1.1089,1.1196,1.0775,1.0962,1.1457,1.0828,1.0868,1.1189,1.0868,1.0787,1.0868,1.1423,1.1623,1.1597,1.147,0.0,0.0,0.0,1.1162,1.1864,1.2993,1.4329,1.5712,1.7014,1.7715,1.815,1.8778,1.9025,1.9165,1.9332,1.9466,1.9606,1.9773,2.0013,2.0294,2.0621,2.0968,2.111,2.1089,2.1544,2.1922,2.2111,2.2299,2.2543,2.3043,2.2981,2.2918,2.3106,2.4332,2.5439,2.6103,2.6164,2.7073,2.9135,2.8444,2.8683,3.003,3.0587,3.0889,3.0889,3.0889,3.0889,3.0889,3.0889,3.0889,3.0889,3.0889,3.0889,3.0889,3.0889,3.0889,3.0889,3.0889,3.0889,3.0889,3.0889,3.0889,3.0889,0.0,0.0,0.0,0.0,0.0,0.0,0.0,0.0,0.0,0.0,0.0,0.0,1.4249,0.0,0.0,0.0,0.0,0.0,1.3047,0.0,0.0,0.0,0.0,1.1747,1.1819,1.1278,1.0922,1.0768,1.0555,1.1356,1.3086,1.2859,1.3507,1.4772,1.3935,1.342,1.3126,1.1864,1.141,1.151,1.1223,1.141,1.1873,1.1584,1.1623,1.1797,1.1162,1.0921,1.0981,1.1303,1.1295,1.1229,1.1342,1.1323,0.0,0.0,0.0,1.1577,1.3287,1.4282,1.5144,1.6442,1.7085,1.7575,0.0,0.0,1.8804,0.0,1.9259,1.9345,1.9639,1.9746,1.994,2.0381,2.0821,2.1121,2.1094,2.1685,2.2111,2.2237,2.2543,2.2863,2.3113,2.3106,2.3106,2.3106,2.4641,2.5981,2.6952,2.7004,2.8215,3.083,2.9303,2.9235,3.0889,3.0889,3.0889,3.0889,3.0889,3.0889,3.0889,3.0889,3.0889,3.0889,3.0889,3.0889,3.0889,3.0889,3.0889,3.0889,3.0889,3.0889,3.0889,3.0889,3.0889,3.0889,0.0,0.0,0.0,0.0,0.0,0.0,0.0,0.0,0.0,0.0,0.0,0.0,1.3597,1.3202,1.289,1.2641,0.0,0.0,0.0,0.0,0.0,0.0,0.0,0.0,1.1055,1.1022,1.0722,1.016,1.0929,1.1844,1.2831,1.3614,1.4629,1.5678,1.4799,1.3988,1.3166,1.2512,1.2084,1.1859,1.1523,1.159,1.1966,1.2489,1.2884,1.3006,1.2154,1.1832,1.1799,1.151,1.1062,1.0734,1.1249,1.1049,1.0633,0.0,0.0,0.0,1.2449,1.3105,0.0,1.5124,1.6126,1.6907,0.0,0.0,1.8202,1.8831,1.8945,1.9038,1.9332,1.9619,1.9813,1.984,2.0314,2.0867,2.1122,2.1742,2.2237,2.255,2.2856,2.3113,2.3106,2.3106,2.3106,2.3106,2.5431,2.6952,2.7013,2.6996,2.8197,3.083,2.8403,2.8343,3.0889,3.0889,3.0889,3.0889,3.0889,3.0889,3.0889,3.0889,3.0889,3.0889,3.0889,3.0889,3.0889,3.0889,3.0889,3.0889,3.0889,3.0889,3.0889,3.0889,3.0889,3.0889,0.0,0.0,0.0,0.0,0.0,0.0,0.0,0.0,0.0,0.0,0.0,0.0,0.0,1.2886,1.2868,1.278,1.221,0.0,0.0,0.0,0.0,0.0,0.0,0.0,1.074,1.0902,1.0889,1.0681,1.0428,1.1142,1.2784,1.2723,1.3394,1.4696,1.4382,1.4068,1.3687,1.2318,1.1897,1.2124,1.183,1.2345,1.3273,1.3106,1.346,1.3935,1.3046,1.2478,1.2164,1.2281,1.1919,1.1437,1.1423,1.1283,1.1042,1.07,1.0727,1.1069,1.1973,0.0,0.0,1.4509,1.5357,1.6072,1.6847,1.7395,1.7862,1.8222,1.851,1.8738,1.9032,1.9325,1.9586,1.9773,1.9973,2.0295,2.0787,2.1444,2.1941,2.2243,2.2733,2.3417,2.4278,2.3596,2.3479,2.4332,2.6026,2.6996,2.7013,2.8582,2.9912,3.0889,2.9981,2.9981,3.0889,3.0889,3.0889,3.0889,3.0889,3.0889,3.0889,3.0889,3.0889,3.0889,3.0889,3.0889,3.0889,3.0889,3.0889,3.0889,3.0889,3.0889,3.0889,3.0889,3.0889,3.0889,0.0,0.0,0.0,0.0,0.0,0.0,0.0,0.0,1.3169,1.2805,0.0,0.0,0.0,0.0,1.215,1.1982,1.1316,1.0897,1.0897,1.0034,0.0,0.0,0.0,0.0,1.0727,1.0989,1.1042,1.0881,1.0461,1.0915,1.2187,1.2094,1.269,1.3781,1.3474,1.3674,1.4162,1.3073,1.2726,1.2906,1.2945,1.344,1.4229,1.4242,1.4543,1.4856,1.4082,1.3474,1.3046,1.3046,1.2563,1.1873,1.1637,1.1303,1.0929,1.0673,1.0801,1.1076,1.1504,0.0,0.0,0.0,1.4596,1.5237,1.6313,1.6787,1.7161,1.7769,1.805,1.831,1.8704,1.9018,1.9312,1.9606,1.9733,2.0045,2.0653,2.1185,2.1685,2.2112,2.2544,2.3381,2.4759,2.4101,2.4032,2.5002,2.6685,2.7478,2.7013,2.9066,3.0216,3.0216,3.0645,3.0889,3.0889,3.0889,3.0889,3.0889,3.0889,3.0889,3.0889,3.0889,3.0889,3.0889,3.0889,3.0889,3.0889,3.0889,3.0889,3.0889,3.0889,3.0889,3.0889,3.0889,3.0889,3.0889,0.0,0.0,0.0,0.0,0.0,0.0,0.0,0.0,1.2647,1.2126,0.0,0.0,0.0,0.0,0.0,1.0171,0.988,0.9735,0.9699,0.9384,0.0,0.0,0.0,0.0,1.0969,1.1283,1.1149,1.0593,1.1116,1.1243,1.0982,1.1837,1.2565,1.312,1.2265,1.2839,1.4476,1.4743,1.4606,1.4135,1.474,1.4776,1.4683,1.5825,1.6092,1.5785,1.5263,1.4816,1.4469,1.3846,1.2919,1.198,1.194,1.1096,1.0207,1.0519,1.0814,1.1002,0.0,0.0,0.0,0.0,0.0,0.0,1.5879,0.0,1.6132,1.7288,1.7549,1.7742,1.835,1.8704,1.8998,1.9305,1.9599,2.0023,2.0666,2.0984,2.1428,2.2109,2.2176,2.2827,2.4492,2.4651,2.4735,2.513,2.7452,2.8367,2.7116,2.8256,2.8979,2.8979,3.0216,3.0889,3.0889,3.0889,3.0889,3.0889,3.0889,3.0889,3.0889,3.0889,3.0889,3.0889,3.0889,3.0889,3.0889,3.0889,3.0889,3.0889,3.0889,3.0889,3.0889,3.0889,3.0889,3.0889,0.0,0.0,0.0,0.0,0.0,1.3017,1.2945,1.2027,1.1259,0.0,0.0,0.0,1.0704,1.1031,1.1128,1.0792,1.0519,1.0258,1.0013,0.9491,0.9377,0.9786,1.0244,1.0546,1.0707,1.1417,1.139,1.0593,1.0508,1.0403,1.0361,1.0608,1.1116,1.1895,1.2104,1.2458,1.2893,1.2552,1.3053,1.4082,1.4028,1.4552,1.5504,1.5825,1.6166,1.644,1.6279,1.5899,1.5411,1.5037,1.4409,1.3641,1.2817,1.1844,1.1002,1.0909,1.1082,1.1263,1.1049,0.0,0.0,0.0,0.0,0.0,0.0,0.0,1.5418,1.6159,1.6653,1.7128,1.7722,1.8083,1.8402,1.8965,1.9292,1.9654,1.9997,2.0375,2.1036,2.2324,2.2127,2.3056,2.6194,2.5034,2.4907,0.0,2.7858,2.8323,2.7971,2.9449,3.0333,3.0333,3.0704,3.0889,3.0889,3.0889,3.0889,3.0889,3.0889,3.0889,3.0889,3.0889,3.0889,3.0889,3.0889,3.0889,3.0889,3.0889,3.0889,3.0889,3.0889,3.0889,3.0889,3.0889,3.0889,3.0889,0.0,0.0,0.0,1.3338,1.2876,1.2593,1.2631,1.1691,1.1004,0.0,0.0,0.0,1.0887,1.1325,1.1426,1.1028,1.0615,1.0254,0.9953,0.9471,0.9291,0.9492,1.006,1.0466,1.0586,1.145,1.1531,1.0774,1.0688,1.0414,0.994,1.006,1.0321,1.0715,1.1056,1.1476,1.1897,1.1309,1.2091,1.3768,1.4286,1.5025,1.5824,1.6239,1.6667,1.7074,1.7074,1.6774,1.6353,1.6186,1.5331,1.4148,1.3119,1.2342,1.171,1.1296,1.1557,1.1884,1.1504,1.1826,0.0,0.0,0.0,0.0,1.4108,1.4442,1.4836,0.0,1.6106,1.652,1.7108,1.7468,1.7822,1.829,1.8994,1.9604,1.9761,1.9966,2.0653,2.2203,2.2195,2.3336,2.6652,2.5921,2.5933,2.7482,2.8349,2.8832,2.8832,2.9949,3.0605,3.0605,3.0791,3.0889,3.0889,3.0889,3.0889,3.0889,3.0889,3.0889,3.0889,3.0889,3.0889,3.0889,3.0889,3.0889,3.0889,3.0889,3.0889,3.0889,3.0889,3.0889,3.0889,3.0889,3.0889,3.0889,0.0,0.0,1.3094,1.1964,1.1826,1.192,1.204,1.1613,1.1356,0.0,1.1542,1.1561,1.1645,1.185,1.1806,1.1283,1.0608,1.0094,0.9829,0.9417,0.9211,0.9211,0.977,1.0254,1.0586,1.1424,1.153,1.0949,1.1169,1.0715,0.9639,0.9866,0.9833,0.9586,0.9619,1.0234,1.1176,1.0888,1.1677,1.3353,1.4983,1.5752,1.6019,1.6924,1.7454,1.7682,1.7682,1.7568,1.734,1.7273,1.5946,1.4135,1.334,1.2851,1.2432,1.1808,1.2251,1.2811,1.2254,1.2509,0.0,0.0,1.328,0.0,1.4208,1.4229,1.4382,0.0,1.5638,1.5905,1.646,1.6928,1.7288,1.7447,1.878,1.9827,1.9811,1.9936,2.0573,2.2122,2.2461,2.3713,2.6504,2.7003,2.727,2.762,2.8839,2.9577,2.9626,2.9922,3.0127,3.0127,3.0576,3.081,3.081,3.0869,3.0889,3.0889,3.0889,3.0889,3.0889,3.0889,3.0889,3.0889,3.0889,3.0889,3.0889,3.0889,3.0889,3.0889,3.0889,3.0889,3.0889,3.0889,3.0889,3.0889,0.0,1.4297,1.4077,1.3522,1.2852,1.2365,1.2336,1.1441,1.1002,1.1723,1.224,1.2689,1.3107,1.2832,1.267,1.2766,1.1577,1.0701,1.0439,0.9666,0.9211,0.9211,0.977,1.0254,1.0586,1.1182,1.1229,1.0673,1.0461,0.9983,0.9291,0.9118,0.9031,0.8991,0.9198,0.9586,1.0094,1.1196,1.2231,1.328,1.4102,1.5271,1.6607,1.7248,1.7836,1.831,1.831,1.8277,1.8156,1.7715,1.66,1.5418,1.501,1.4516,1.3968,1.334,1.35,1.3748,1.3353,1.3554,0.0,0.0,1.3734,0.0,1.3534,1.3788,1.4155,0.0,1.4803,1.5237,1.5591,1.6752,1.7435,1.6668,1.8789,2.0422,2.0062,2.0823,2.2009,2.3611,2.3426,2.4217,2.7009,2.6865,2.7065,2.8093,2.8684,2.9199,2.9551,2.9648,2.9744,2.9744,3.0107,3.0332,3.0332,3.0703,3.0889,3.0889,3.0889,3.0889,3.0889,3.0889,3.0889,3.0889,3.0889,3.0889,3.0889,3.0889,3.0889,3.0889,3.0889,3.0889,3.0889,3.0889,3.0889,3.0889,1.3597,1.3878,1.3946,1.314,1.2831,1.2751,1.2906,1.2096,1.1697,1.2438,1.318,1.3687,1.3848,1.3728,1.3514,1.324,1.2251,1.1396,1.0847,1.0227,0.9699,0.9231,0.977,1.0187,1.0334,1.1049,1.1283,1.0995,1.0695,1.0254,0.9637,0.9198,0.9151,0.9459,0.9459,0.9953,1.0834,1.1283,1.2124,1.3327,1.4649,1.5965,1.7208,1.7809,1.841,1.8905,1.8758,1.8704,1.8544,1.7495,1.6754,1.6139,1.5411,1.5177,1.4985,1.4252,1.4396,1.4643,1.4202,1.4188,1.4269,1.4073,1.4082,0.0,0.0,1.3761,1.3988,1.4436,1.498,1.5522,1.5983,1.6967,1.7642,1.7461,1.916,2.0459,2.0427,2.1212,2.2312,2.3736,2.3753,2.4419,2.6418,2.6783,2.7302,2.8218,2.8486,2.8701,2.8916,2.9131,2.9248,2.9248,2.9658,2.9883,2.9883,3.0322,3.0547,3.0547,3.0781,3.0889,3.0889,3.0889,3.0889,3.0889,3.0889,3.0889,3.0889,3.0889,3.0889,3.0889,3.0889,3.0889,3.0889,3.0889,3.0889,3.0889,1.2813,1.336,1.357,1.2355,1.2565,1.3012,1.3317,1.2841,1.2712,1.338,1.4128,1.4556,1.4436,1.4536,1.4389,1.3848,1.2993,1.2198,1.1543,1.0962,1.0347,0.9657,0.9923,1.0163,1.0361,1.0976,1.1316,1.1263,1.0969,1.0581,1.01,0.9484,0.9524,1.0077,0.9933,1.0633,1.1879,1.1423,1.2171,1.3788,1.5558,1.6627,1.7255,1.8083,1.8698,1.9098,1.9032,1.8971,1.8724,1.7402,1.6921,1.668,1.5611,1.5578,1.5791,1.4972,1.515,1.5444,1.4917,1.4816,1.4816,1.4649,1.4516,1.4349,0.0,0.0,0.0,1.4589,1.5115,0.0,0.0,0.0,0.0,1.7951,0.0,0.0,0.0,2.1288,0.0,2.3358,2.379,2.4423,2.5544,2.6484,2.7327,2.8018,2.8047,2.8086,2.8164,2.8574,2.8799,2.8799,2.9219,2.9443,2.9443,2.9941,3.0195,3.0205,3.0674,3.0889,3.0889,3.0889,3.0889,3.0889,3.0889,3.0889,3.0889,3.0889,3.0889,3.0889,3.0889,3.0889,3.0889,3.0889,3.0889,3.0889,1.3313,1.3678,1.3716,1.2561,1.2649,1.2913,1.2869,1.301,1.3414,1.4262,1.4689,1.5097,1.5578,1.5204,1.5229,1.5913,1.4202,1.3173,1.3293,1.1837,1.1015,1.1136,1.0494,1.045,1.1222,1.1122,1.0915,1.0687,1.0361,1.018,1.01,0.9484,0.9524,1.0097,1.0392,1.1022,1.1913,1.2071,1.3313,1.5217,1.5972,1.6019,1.5825,1.7416,1.8123,1.827,1.9045,1.9152,1.8811,1.8103,1.7695,1.7321,1.6462,1.6346,1.648,1.5865,0.0,0.0,0.0,0.0,0.0,0.0,1.5277,1.5245,1.3946,0.0,1.4302,1.384,0.0,0.0,0.0,0.0,0.0,0.0,0.0,0.0,1.9592,2.1013,2.242,2.2933,2.3568,2.431,2.5204,2.5781,2.6447,2.7078,2.7158,2.7334,2.7767,2.8135,2.8359,2.8359,2.8769,2.8994,2.8994,2.9795,3.0195,3.0205,3.0674,3.0889,3.0889,3.0889,3.0889,3.0889,3.0889,3.0889,3.0889,3.0889,3.0889,3.0889,3.0889,3.0889,3.0889,3.0889,3.0889,3.0889,1.358,1.36,1.3641,1.3201,1.2729,1.2602,1.3344,1.4015,1.4616,1.4977,1.5438,1.5879,1.6293,1.5972,1.5919,1.6288,1.517,1.4242,1.364,1.2786,1.2104,1.1697,1.1329,1.1223,1.1389,1.1142,1.0929,1.0847,1.0174,0.9866,0.986,0.9404,0.9797,1.0849,1.1009,1.1937,1.3394,1.3173,1.3681,1.4703,1.5458,1.5511,1.5411,1.7876,1.8804,1.8851,1.9232,1.9285,1.9065,0.0,1.7836,0.0,0.0,0.0,0.0,1.6359,0.0,0.0,0.0,0.0,0.0,0.0,0.0,0.0,1.4366,1.4208,1.4242,0.0,0.0,0.0,0.0,0.0,0.0,0.0,1.8744,0.0,0.0,0.0,2.1476,0.0,0.0,0.0,2.4238,2.4744,2.5466,2.6551,2.665,2.6953,2.7679,2.7885,2.8047,2.8281,2.8467,2.8555,2.8555,2.9404,2.9834,2.9844,3.0547,3.0889,3.0889,3.0889,3.0889,3.0889,3.0889,3.0889,3.0889,3.0889,3.0889,3.0889,3.0889,3.0889,3.0889,3.0889,3.0889,3.0889,1.3653,1.352,1.3536,1.35,1.2673,1.2415,1.3753,1.4653,1.5211,1.5378,1.5772,1.6233,1.6767,1.6567,1.6553,1.6961,1.6313,1.5511,1.4656,1.3955,1.3313,1.2784,1.2281,1.1964,1.1917,1.1463,1.1196,1.1109,1.0394,1.008,1.0154,0.978,1.0223,1.1402,1.1677,1.2759,1.4389,1.4159,1.4482,1.5097,1.5738,1.6066,1.6429,1.8283,1.9158,1.9424,1.9424,1.9424,1.9245,1.8437,1.8016,0.0,1.744,1.7025,1.666,0.0,0.0,0.0,1.6052,0.0,0.0,0.0,0.0,0.0,0.0,0.0,0.0,0.0,0.0,0.0,0.0,0.0,0.0,0.0,0.0,1.9256,0.0,2.0058,0.0,0.0,0.0,0.0,0.0,2.3567,2.4363,2.5947,2.5918,2.6279,2.7266,2.7591,2.7803,2.8115,2.8232,2.8291,2.8291,2.9023,2.9453,2.9636,3.0342,3.0771,3.0889,3.0889,3.0889,3.0889,3.0889,3.0889,3.0889,3.0889,3.0889,3.0889,3.0889,3.0889,3.0889,3.0889,3.0889,3.0889,1.3511,1.361,1.354,1.3108,1.2396,1.2412,1.3862,1.4329,1.4756,1.5324,1.5411,1.5858,1.7065,1.6867,1.7275,1.8711,1.7769,1.7125,1.7092,1.5431,1.4596,1.4901,1.3206,1.2559,1.314,1.2328,1.1697,1.1375,1.1102,1.1096,1.1322,1.0788,1.0874,1.1429,1.2355,1.3266,1.4155,1.499,1.6166,1.7475,1.7502,1.8203,1.9145,0.0,1.8624,1.9424,1.9424,0.0,0.0,1.8677,1.847,0.0,0.0,0.0,0.0,0.0,0.0,0.0,0.0,0.0,0.0,1.5316,0.0,0.0,0.0,0.0,1.5161,0.0,0.0,0.0,0.0,0.0,0.0,0.0,0.0,0.0,0.0,0.0,0.0,0.0,0.0,0.0,0.0,2.2312,2.2982,0.0,2.4717,2.5049,2.6357,2.7268,2.7728,2.7738,2.8086,2.8291,2.8291,2.8721,2.915,2.9636,3.001,3.0459,3.0889,3.0889,3.0889,3.0889,3.0889,3.0889,3.0889,3.0889,3.0889,3.0889,3.0889,3.0889,3.0889,3.0889,3.0889,3.0889,1.4687,1.4696,1.4271,1.2695,1.221,1.2614,1.4294,1.5004,1.5665,1.6502,1.6777,1.7295,1.8539,1.8524,1.8744,1.9446,1.8965,1.837,1.7782,1.6627,1.5925,1.5879,1.4509,1.3868,1.4075,1.3045,1.2248,1.1717,1.1229,1.0949,1.0881,1.068,1.1008,1.1757,1.2652,1.3761,1.501,1.5892,1.6547,0.0,0.0,1.8297,1.939,0.0,1.9105,1.9424,1.9424,1.9424,0.0,1.9138,1.8811,1.849,1.8477,1.8063,1.7602,1.7716,1.7595,1.7395,0.0,0.0,1.7555,1.6221,0.0,0.0,0.0,0.0,0.0,0.0,0.0,0.0,0.0,0.0,0.0,0.0,0.0,0.0,0.0,0.0,0.0,0.0,0.0,0.0,0.0,0.0,2.2727,2.4141,2.4346,0.0,2.6318,2.6924,2.7373,2.7708,2.8076,2.8291,2.8291,2.8711,2.8994,2.915,2.9853,3.0273,3.0439,3.0752,3.0889,3.0889,3.0889,3.0889,3.0889,3.0889,3.0889,3.0889,3.0889,3.0889,3.0889,3.0889,3.0889,3.0889,1.5118,1.4866,1.4345,1.3196,1.3087,1.3506,1.4554,1.5826,1.6772,1.7163,1.7641,1.8317,1.9399,1.9491,1.9566,2.0067,1.9846,1.9259,1.8215,1.7762,1.7221,1.6663,1.5858,1.5357,1.515,1.413,1.3286,1.2697,1.1993,1.1558,1.137,1.1156,1.1363,1.1946,1.2919,1.4001,1.517,1.6466,1.7141,0.0,0.0,1.8733,0.0,0.0,1.9424,1.9424,0.0,1.9424,1.9424,1.9424,1.9118,1.8831,1.9018,1.8611,1.8103,1.8242,1.8143,1.7883,1.7776,1.8036,0.0,1.6931,1.6777,0.0,1.5271,0.0,1.5785,0.0,0.0,0.0,0.0,0.0,0.0,0.0,0.0,0.0,0.0,1.9301,0.0,0.0,0.0,0.0,0.0,2.1166,2.2039,2.3682,2.3623,0.0,0.0,2.6328,2.6836,2.7412,2.7842,2.8144,2.8291,2.8564,2.8769,2.8926,2.9639,3.0049,3.0215,3.0674,3.0889,3.0889,3.0889,3.0889,3.0889,3.0889,3.0889,3.0889,3.0889,3.0889,3.0889,3.0889,3.0889,3.0889,1.497,1.4297,1.408,1.4645,1.4919,1.4967,1.4615,1.6612,1.7925,1.7322,1.7996,1.8891,1.9766,1.9619,1.9846,2.0628,2.0441,1.98,1.8671,1.8831,1.8464,1.738,1.728,1.6991,1.6442,1.5524,1.478,1.4175,1.3273,1.2804,1.2797,1.2187,1.1913,1.198,1.312,0.0,1.4676,1.67,1.7929,1.8564,1.9138,1.9424,1.9424,1.9424,1.9424,1.9424,1.9424,1.9424,1.9424,1.9424,1.9424,1.9424,1.9424,1.9172,1.8945,1.8945,1.8751,1.847,1.8135,1.8055,1.7916,1.742,1.7253,0.0,0.0,0.0,1.6855,0.0,0.0,0.0,0.0,0.0,0.0,0.0,0.0,0.0,0.0,0.0,0.0,0.0,0.0,0.0,0.0,2.04,2.1016,2.3506,2.2588,2.2832,0.0,2.5459,2.6044,2.6953,2.7432,2.7861,2.8291,2.8291,2.8496,2.8896,2.9355,2.9785,3.0185,3.0674,3.0889,3.0889,3.0889,3.0889,3.0889,3.0889,3.0889,3.0889,3.0889,3.0889,3.0889,3.0889,3.0889,3.0889,1.6394,1.6481,1.6572,1.6461,1.5617,1.5129,1.5624,1.6462,1.7354,1.8077,1.8918,1.98,2.0675,2.0708,2.0755,2.0982,2.0929,2.0668,2.0147,1.9773,1.9439,1.9132,1.827,1.7829,1.7923,1.64,1.5531,1.5384,1.3848,1.3093,1.3073,1.2288,1.202,1.2231,0.0,1.4053,1.5001,1.6623,1.7862,1.8844,1.9219,1.9424,1.9424,0.0,1.9424,1.9424,1.9424,1.9424,1.9424,1.9424,1.9424,1.9424,1.9424,1.9319,1.9252,1.9252,1.9199,1.9125,1.9045,1.9032,1.8891,1.8297,1.7983,1.7642,0.0,0.0,0.0,0.0,0.0,0.0,0.0,0.0,0.0,0.0,0.0,0.0,0.0,0.0,0.0,1.9692,0.0,0.0,0.0,2.0438,2.1309,2.2305,2.2363,0.0,2.4502,0.0,2.5644,2.6523,2.7275,2.7861,2.8291,2.8291,2.835,2.8467,2.9209,2.9629,2.9756,3.0537,3.0889,3.0889,3.0889,3.0889,3.0889,3.0889,3.0889,3.0889,3.0889,3.0889,3.0889,3.0889,3.0889,3.0889,1.7734,1.8052,1.8304,1.8249,1.7236,1.659,1.6957,1.7309,1.774,1.8405,1.9252,1.9987,2.0481,2.0882,2.1109,2.1109,2.1109,2.0875,2.0327,2.0341,2.0147,1.9633,1.9332,1.9085,1.8878,1.7502,1.6533,1.6019,1.4389,1.346,1.3193,1.2418,0.0,0.0,0.0,1.4182,1.489,1.674,1.807,1.8951,1.9411,1.9591,0.0,1.9764,1.9707,1.9591,1.9591,1.9482,1.9424,1.9424,1.9424,1.9424,1.9533,1.9475,1.9424,1.9707,1.9707,1.9591,1.9764,1.9764,1.9683,1.9172,1.8906,1.863,1.8076,1.8205,1.8266,0.0,1.884,1.9524,0.0,0.0,0.0,0.0,0.0,0.0,0.0,0.0,0.0,0.0,1.9855,0.0,1.944,2.014,2.084,2.1319,2.1709,0.0,0.0,0.0,2.5273,2.6357,2.7041,2.7676,2.8281,2.8291,2.8291,2.8301,2.8965,2.9385,2.959,3.0273,3.0703,3.0889,3.0889,3.0889,3.0889,3.0889,3.0889,3.0889,3.0889,3.0889,3.0889,3.0889,3.0889,3.0889,1.8843,1.93,1.9747,1.9633,1.9144,1.8651,1.8462,1.8557,1.8626,1.8662,1.9359,1.9873,1.9907,2.0595,2.1049,2.1049,2.1089,2.0788,2.002,2.0688,2.0655,1.9698,2.0287,2.0301,1.9499,1.8524,1.7482,1.6435,1.4843,1.3788,1.32,0.0,0.0,0.0,0.0,0.0,0.0,1.7088,1.8343,1.8898,1.9605,1.9877,1.9935,2.0266,2.0222,1.999,1.999,1.9716,1.9424,1.9424,1.9424,1.9424,1.9642,1.9591,1.954,2.0046,2.0046,1.9873,2.022,2.027,2.0213,1.9924,1.9873,1.9793,1.9368,1.9306,1.9285,1.9231,1.8991,1.9449,2.1382,0.0,0.0,0.0,0.0,0.0,0.0,0.0,0.0,0.0,0.0,0.0,0.0,0.0,0.0,0.0,2.0928,0.0,0.0,0.0,2.4795,2.6172,2.668,2.7344,2.8203,2.8262,2.8291,2.8301,2.8779,2.9209,2.9646,3.0068,3.0508,3.0889,3.0889,3.0889,3.0889,3.0889,3.0889,3.0889,3.0889,3.0889,3.0889,3.0889,3.0947,3.0947,1.9146,2.0793,2.162,1.9646,1.9651,1.9905,1.9701,1.9228,1.9007,1.9486,1.9913,2.0247,2.0494,2.0661,2.0755,2.0755,2.0969,2.1042,2.0889,2.1029,2.1015,2.0808,2.0722,2.0488,2.0087,1.8681,1.7695,0.0,0.0,1.3788,1.32,0.0,0.0,0.0,0.0,0.0,1.6059,1.7448,0.0,1.8687,1.9754,2.0192,2.0278,2.0816,2.1026,2.0966,2.0966,2.0299,1.9424,1.9424,1.9424,1.9424,1.9482,1.9424,1.9482,1.9815,1.9873,1.9873,2.022,2.027,2.0277,2.0213,2.022,2.0415,2.1247,2.15,2.1759,2.268,2.3079,2.3004,2.2019,0.0,0.0,0.0,0.0,0.0,0.0,0.0,0.0,0.0,0.0,2.0561,0.0,0.0,0.0,0.0,0.0,0.0,0.0,0.0,2.3603,0.0,2.6074,2.6904,0.0,0.0,2.8291,2.8301,2.9082,2.9492,2.9655,3.04,3.081,3.0889,3.0889,3.0889,3.0889,3.0889,3.0889,3.0889,3.0889,3.0889,3.0889,3.0889,3.1054,3.1218,2.1997,2.1965,2.1732,2.1246,2.0456,1.9946,2.0354,2.0065,1.9773,1.9599,1.9826,2.0067,2.0207,2.0628,2.0902,2.0902,2.1029,2.1109,2.1109,2.1109,2.1109,2.1109,2.0975,2.0768,2.0468,1.9325,1.8283,1.7427,0.0,1.4309,1.3387,0.0,0.0,1.2616,0.0,1.5077,0.0,0.0,0.0,1.9333,2.0378,2.0889,2.1051,2.1565,2.1622,2.1435,2.1435,2.0945,2.026,1.9992,1.9777,1.9649,1.9815,1.9764,1.9707,2.0342,2.0392,2.0328,2.068,2.0795,2.0737,2.0558,2.0493,2.0838,2.2013,2.2297,2.2628,2.3838,2.4011,2.3678,2.2722,2.2506,0.0,0.0,0.0,0.0,0.0,0.0,2.0847,0.0,0.0,0.0,0.0,0.0,0.0,0.0,0.0,2.1191,2.1775,0.0,2.3535,0.0,0.0,0.0,2.7708,0.0,2.8291,2.8301,2.8935,2.9346,2.959,3.0234,3.0664,3.0889,3.0889,3.0889,3.0889,3.0889,3.0889,3.0889,3.0889,3.0889,3.0889,3.0889,3.1054,3.1267,2.4235,2.2877,2.184,2.2292,2.0966,2.0027,2.052,2.0676,2.0448,1.982,1.9826,1.9913,1.998,2.0601,2.1015,2.1015,2.1076,2.1109,2.1109,2.1049,2.1042,2.1109,2.1049,2.0909,2.0681,1.9873,1.8871,0.0,0.0,0.0,0.0,0.0,0.0,0.0,0.0,0.0,0.0,0.0,1.8954,1.9979,2.0989,2.1546,2.1836,2.2224,2.2246,2.1989,2.1989,2.1765,2.1431,2.0893,2.043,2.0117,2.0408,2.0292,2.024,2.1061,2.1061,2.0881,2.1191,2.1262,2.1146,2.0845,2.078,2.1174,2.2628,2.2958,2.3399,2.4837,2.4728,2.4152,2.3624,2.4003,0.0,0.0,0.0,0.0,0.0,0.0,0.0,0.0,0.0,0.0,2.0742,0.0,0.0,0.0,0.0,2.1132,2.1327,2.2344,2.3521,0.0,0.0,2.6621,2.7444,0.0,2.8291,2.8301,2.8818,2.9238,2.9646,3.0107,3.0547,3.0889,3.0889,3.0889,3.0889,3.0889,3.0889,3.0889,3.0889,3.0889,3.0889,3.0947,3.117,3.1441,2.2883,2.3455,2.3395,2.0743,2.0799,2.0911,2.0049,2.0341,2.0742,2.0922,2.0508,2.0294,2.0568,2.0668,2.0715,2.0715,2.0955,2.1109,2.1109,2.0862,2.0835,2.1096,2.0855,2.0708,2.0675,2.0074,1.9172,0.0,0.0,1.5458,0.0,0.0,0.0,0.0,0.0,0.0,0.0,1.8714,1.953,2.0014,2.1523,2.2137,2.2194,2.2792,2.3025,2.2956,2.2956,2.2766,2.245,2.2123,2.1605,2.1043,2.1103,2.1103,2.1163,2.1522,2.1434,2.1211,2.1584,2.1437,2.1211,2.1153,2.1146,2.1759,2.4005,2.4497,2.5168,2.7457,2.7284,2.6299,2.5111,2.5073,2.4871,0.0,0.0,0.0,0.0,0.0,2.2186,2.2308,0.0,0.0,2.1142,2.0098,0.0,0.0,2.0332,2.1016,2.1777,2.1934,2.2588,2.3867,2.5137,2.6025,2.6504,2.7695,2.8291,2.8301,2.9121,2.9587,2.9655,3.0439,3.085,3.0889,3.0889,3.0889,3.0889,3.0889,3.0889,3.0889,3.0889,3.0889,3.0947,3.116,3.1441,3.1787,2.3357,2.2863,2.2279,2.1335,2.146,2.1369,2.0449,2.1334,2.1895,2.1215,2.0902,2.0802,2.0922,2.0935,2.0935,2.0935,2.1042,2.1109,2.1109,2.1002,2.0989,2.1109,2.0995,2.0935,2.0935,2.0535,1.9833,0.0,0.0,0.0,0.0,0.0,0.0,0.0,0.0,1.7705,1.8578,1.952,2.0487,2.1378,2.2112,2.2563,2.2751,2.2999,2.3106,2.3106,2.3106,2.3025,2.2853,2.2792,2.2213,2.1488,2.1488,2.1488,2.1555,2.1929,2.1895,2.1816,2.1745,2.1606,2.1452,2.1262,2.1211,2.1816,2.4172,2.4727,2.5388,2.7789,2.7617,2.6699,2.5664,2.5295,2.5149,2.4953,0.0,0.0,0.0,0.0,0.0,2.2496,0.0,2.1523,0.0,2.0283,0.0,0.0,0.0,2.0439,2.1104,2.1602,2.2353,2.3423,0.0,2.5947,2.6387,2.7656,2.8291,2.8301,2.916,2.9626,2.9655,3.0488,3.0889,3.0889,3.0889,3.0889,3.0889,3.0889,3.0889,3.0889,3.0889,3.0889,3.0947,3.1218,3.1498,3.1845,2.4527,2.3224,2.2133,2.2176,2.1855,2.1392,2.0921,2.177,2.2153,2.1229,2.1109,2.1109,2.1109,2.1109,2.1109,2.1109,2.1109,2.1109,2.1109,2.1029,2.1022,2.1109,2.1029,0.0,2.1109,2.0822,2.0327,1.9626,1.8834,0.0,0.0,0.0,0.0,0.0,1.7995,1.8829,1.9715,2.0508,2.1353,2.2216,2.261,2.2901,2.3106,2.3106,2.3106,2.3106,2.3106,2.3106,2.3106,2.3106,2.2682,2.2129,2.2129,2.2129,2.2129,2.2394,2.2389,2.2317,2.2498,2.2413,2.2268,2.2421,2.234,2.2757,2.4791,2.5223,2.5719,2.7526,2.7432,2.6748,2.5849,2.5478,2.5322,2.5508,0.0,0.0,0.0,2.3603,0.0,2.2568,2.2031,2.1572,2.122,2.0401,0.0,0.0,0.0,0.0,2.1153,2.1611,0.0,0.0,0.0,0.0,2.6387,2.7656,2.8291,2.8301,2.916,2.9626,2.9655,3.0488,3.0889,3.0889,3.0889,3.0889,3.0889,3.0889,3.0889,3.0889,3.0889,3.0889,3.0947,3.1334,3.1614,3.1845,2.6229,2.509,2.4011,2.2822,2.1749,2.1096,2.1102,2.1109,2.1109,2.1109,2.1109,2.1109,2.1109,2.1109,2.1109,2.1109,2.1109,2.1109,2.1109,2.0842,2.0808,0.0,0.0,2.0815,2.1102,2.0822,2.0528,2.016,0.0,0.0,1.7955,0.0,1.8306,1.8905,1.9759,2.0192,2.0353,2.1619,2.2194,2.2238,2.285,2.3106,2.3106,2.3106,2.3106,2.3106,2.3106,2.3106,2.3106,2.3106,2.3106,2.3098,2.3098,2.3098,2.3098,2.3098,2.2871,2.2852,2.423,2.4031,2.3794,2.5043,2.5018,2.5003,2.6191,2.6472,2.6576,2.694,2.7021,2.6748,2.5849,2.5684,2.5538,2.5194,0.0,0.0,0.0,2.3418,0.0,2.2568,2.1726,2.12,2.119,2.0401,0.0,0.0,0.0,0.0,0.0,0.0,0.0,2.374,2.5011,0.0,2.6387,2.7656,2.8291,2.8301,2.916,2.9626,2.9655,3.0488,3.0889,3.0889,3.0889,3.0889,3.0889,3.0889,3.0889,3.0889,3.0889,3.0889,3.0947,3.1566,3.1787,3.1903,2.2708,2.2362,2.2005,2.1638,2.209,2.2153,2.1235,2.1908,2.2153,2.1235,2.1109,2.1109,2.1109,2.1109,2.1109,0.0,2.1109,2.1109,0.0,2.1022,2.1009,2.1109,2.1274,2.126,2.1109,2.1456,2.1382,2.0897,0.0,0.0,0.0,1.9738,1.9955,2.024,2.0924,2.1392,2.1633,2.2222,2.2587,2.2842,2.3007,2.3106,2.3106,2.3106,2.3106,2.3106,2.3106,2.3106,2.3106,2.3106,2.3106,2.3106,2.3106,2.372,2.4641,2.5493,2.5656,2.563,2.5862,2.5738,2.5503,2.5398,2.5288,2.5405,2.6309,2.7133,2.7699,2.7516,2.7217,2.6846,2.6289,2.5937,2.5645,2.5547,2.4902,0.0,2.4238,0.0,2.3042,2.2916,2.2399,2.2109,2.2109,2.1288,0.0,0.0,0.0,0.0,0.0,0.0,0.0,0.0,2.5352,0.0,2.6807,2.7803,2.8437,2.873,2.9297,2.9883,3.0478,3.0762,3.0889,3.0889,3.0889,3.0889,3.0889,3.0889,3.0889,3.0889,3.1112,3.116,3.1276,3.1903,3.2133,3.219,2.4062,2.3636,2.3325,2.3325,2.3574,2.3512,2.2709,2.3263,2.3512,2.2654,2.2591,2.2591,2.2591,2.2591,0.0,2.1172,2.1109,2.1109,2.1109,2.1109,2.1172,2.1299,2.1481,2.1544,2.1488,2.1859,0.0,2.152,2.1455,2.1246,2.0962,2.1041,2.1128,2.1331,2.1841,2.2134,2.2395,2.2652,2.2926,2.3106,2.3106,2.3106,2.3106,2.3106,2.3106,2.3106,2.3106,2.3106,2.3106,2.3106,2.3106,2.3168,2.3658,2.4764,2.5859,2.6164,2.665,2.7082,2.7318,2.7261,2.7158,2.7188,2.695,2.68,2.7118,2.7736,2.8174,2.7806,2.7314,2.6885,2.6465,2.6035,2.5693,2.5693,2.4953,2.4414,2.4414,0.0,2.3033,0.0,0.0,0.0,0.0,2.208,2.196,0.0,0.0,0.0,0.0,0.0,2.3496,2.4248,2.5654,2.667,2.7256,2.7949,2.8506,2.8926,2.9521,3.0185,3.0889,3.0889,3.0889,3.0889,3.0889,3.0889,3.0889,3.0889,3.0889,3.0889,3.1112,3.1218,3.1383,3.1903,3.219,3.2373,2.8737,2.7693,2.6831,2.6831,2.5851,2.4994,2.4994,2.4994,2.4994,2.4994,2.4994,2.4994,2.5056,2.4994,2.407,2.1664,0.0,0.0,2.1355,2.1418,2.1544,2.1853,2.1915,2.2104,2.2348,2.2411,2.2418,2.2292,2.1948,2.1893,2.2167,2.1879,2.1962,2.2292,2.2606,2.2793,2.2918,2.323,2.3355,2.3355,2.3293,2.323,2.323,2.3168,2.3168,2.323,2.323,2.3293,2.3355,2.3355,2.3355,2.3596,2.4702,2.6042,2.6892,2.5737,2.6286,2.7555,2.8751,2.8772,2.8777,2.991,2.9551,2.8818,2.8428,2.831,2.8184,2.7845,2.7363,2.6934,2.6514,2.6074,2.5723,2.5693,2.4953,2.4414,2.4414,2.3637,2.2955,0.0,0.0,0.0,2.21,2.2744,2.2974,0.0,0.0,0.0,0.0,0.0,2.3887,2.5165,2.6016,2.6875,2.7748,2.8125,2.8564,2.9014,2.9853,3.0478,3.0889,3.0889,3.0889,3.0889,3.0889,3.0889,3.0889,3.0889,3.0889,3.0947,3.0947,3.1112,3.1383,3.173,3.2076,3.2373,0.0,0.0,2.5485,2.5485,2.5178,2.4994,2.4994,2.4994,2.4994,2.4994,2.4994,2.5109,2.5338,2.517,2.4986,2.4832,2.4363,2.407,2.407,2.4301,2.4479,2.454,2.5085,2.5261,2.5077,2.5591,2.5362,2.4394,2.3274,2.2783,2.2856,2.2783,2.3343,2.4394,2.4456,2.5063,2.5973,2.6042,2.6103,2.5981,2.501,2.4641,2.4517,2.3472,2.372,2.4641,2.4641,2.5248,2.6103,2.6103,2.6103,2.5981,2.5317,2.6633,2.8385,2.8077,2.8938,3.0039,3.0343,3.0392,3.0287,3.0226,2.9551,2.8896,2.8789,2.8525,2.8262,2.8164,2.7803,2.7383,2.6943,2.6523,2.6133,2.5742,2.4953,2.4414,2.4414,2.3637,2.3179,0.0,2.3486,2.3574,2.3799,2.3711,2.3594,0.0,0.0,2.3896,2.3799,2.4639,2.541,2.6055,2.6965,2.7617,2.8135,2.8564,2.915,2.9902,3.0459,3.0781,3.0889,3.0889,3.0889,3.0889,3.0889,3.0889,3.0889,3.0889,3.0995,3.1218,3.1508,3.1797,3.2076,3.2373,3.2555,3.2612,2.7246,2.7246,2.7185,2.7065,2.7211,2.727,2.7148,2.7231,2.735,2.735,2.7527,2.7641,2.7878,2.7878,2.8001,2.835,2.6444,2.5285,2.546,2.5635,2.581,2.5932,2.6296,2.6486,2.6434,2.6823,2.665,2.5981,2.5248,2.4879,2.4879,2.4879,2.5248,2.5981,2.5981,2.6346,2.7013,2.7013,2.7013,2.6952,2.6225,2.5981,2.5859,2.5186,2.5309,2.5981,2.5981,2.6407,2.7013,2.7013,2.7013,2.6892,2.6172,2.7297,2.892,2.892,2.9844,3.0889,3.0889,3.0889,3.0781,3.0312,2.9844,2.9404,2.9004,2.874,2.8525,2.833,2.7959,2.7598,2.7363,2.6807,2.625,2.5762,2.4953,2.4346,2.415,2.373,2.3525,2.376,2.3965,2.417,2.4394,2.4394,2.4297,2.4092,2.4453,0.0,2.4678,2.5674,2.6338,2.6387,2.7268,2.7959,2.8574,2.9199,2.9736,3.0205,3.0674,3.0889,3.0889,3.0889,3.0889,3.0889,3.0889,3.0889,3.0889,3.0889,3.1054,3.1325,3.1498,3.1845,3.2305,3.243,3.2612,3.2669,2.9922,2.9979,2.9957,2.9721,3.0008,3.0167,2.9845,3.0088,3.0318,3.0257,3.0566,3.0803,3.0874,3.1049,3.1224,3.1346,2.8333,2.6533,2.676,2.6761,2.6857,2.7168,2.7177,2.7289,2.7555,2.7375,2.7315,2.7315,2.7073,2.7013,2.7013,2.7013,2.7073,2.7315,2.7315,2.7375,2.7615,2.7615,2.7615,2.7555,2.7375,2.7315,2.7254,2.7073,2.7134,2.7315,2.7315,2.7435,2.7615,2.7615,2.7615,2.7555,2.7375,2.8155,2.9166,2.8979,2.9844,3.0889,3.0889,3.0889,3.0801,3.04,3.0244,3.001,2.9277,2.9062,2.8896,2.8476,2.8105,2.7812,2.7738,2.7021,2.6318,2.5771,2.4953,2.4268,2.3848,0.0,2.3838,2.3965,2.4355,2.4668,2.4795,2.5088,2.5137,2.4834,2.5401,2.581,2.5879,2.6689,2.6953,2.6592,2.7412,2.8262,2.9101,2.9834,3.0234,3.0303,3.0703,3.0889,3.0889,3.0889,3.0889,3.0889,3.0889,3.0889,3.0889,3.0947,3.1112,3.1383,3.1441,3.1845,3.2373,3.2373,3.2487,3.2669,2.9922,3.0215,3.0462,3.0462,3.0732,3.0945,3.0587,3.0818,3.0917,3.068,3.0926,3.1233,3.1497,3.1356,3.1417,3.1976,3.1232,3.0658,3.0395,3.0302,3.0225,3.0285,3.027,3.0216,3.0284,2.9176,2.8623,2.8623,2.7555,2.7013,2.7013,2.7013,2.7555,2.8623,2.8623,2.9235,3.0284,3.0284,3.0284,3.0225,2.9057,2.8623,2.8504,2.7435,2.7675,2.8623,2.8623,2.9362,3.0284,3.0284,3.0284,3.0098,2.8989,2.954,3.0392,2.9226,2.9844,3.0889,3.0889,3.0889,3.0869,3.0801,3.0488,3.0156,3.0029,2.9726,2.9346,2.8906,2.8769,2.8506,2.7855,2.7256,2.666,2.582,2.4953,2.4268,2.3848,0.0,2.4053,2.4832,2.5264,2.5771,2.6543,2.6348,2.6299,2.6592,2.6416,2.6445,2.6797,2.7295,2.7539,2.7523,2.8281,2.9141,2.999,3.0127,3.0391,3.0781,3.0859,3.0889,3.0889,3.0889,3.0889,3.0889,3.0889,3.0889,3.0889,3.116,3.145,3.173,3.2018,3.2373,3.2612,3.2612,3.2669,3.2669,3.0738,3.1009,3.119,3.1172,3.16,3.1779,3.136,3.163,3.1781,3.1656,3.1897,3.2147,3.2354,3.2397,3.2521,3.2842,3.2718,3.2531,3.2397,3.1912,3.1665,3.1665,3.162,3.1465,3.123,3.061,3.018,2.9971,2.9372,2.9076,2.9076,2.9076,2.9431,2.9971,2.9971,3.0333,3.0889,3.0889,3.0889,3.083,3.0216,2.9971,2.9903,2.9313,2.949,2.9971,2.9971,3.0392,3.0889,3.0889,3.0889,3.0772,3.0147,3.0392,3.0762,3.0147,3.0401,3.0889,3.0889,3.0889,3.0889,3.0889,3.0732,3.0508,3.0254,3.0049,2.9785,2.9355,2.9268,2.9082,2.8457,2.7988,2.7422,2.6562,2.5498,2.4697,2.4548,2.4519,2.4717,2.5352,2.6016,2.6582,2.6973,2.6836,2.6807,2.7002,2.6836,2.6914,2.7344,2.7559,2.7924,2.833,2.8945,2.957,3.0185,3.0449,3.0674,3.0889,3.0889,3.0889,3.0889,3.0889,3.0889,3.0889,3.0889,3.1005,3.1112,3.1276,3.1614,3.2076,3.2248,3.243,3.2669,3.2669,3.2669,3.2669,3.165,3.1826,3.1971,3.197,3.2445,3.2617,3.2152,3.2394,3.2613,3.2549,3.2794,3.3048,3.3048,3.3238,3.3418,3.3418,3.3418,3.3418,3.3418,3.2822,3.2412,3.2314,3.2217,3.2012,3.168,3.167,3.1514,3.1191,3.1084,3.1035,3.1035,3.0937,3.0889,3.0889,3.0889,3.0889,3.0889,3.0889,3.0889,3.0889,3.0889,3.0889,3.0889,3.0889,3.0889,3.0889,3.0889,3.0889,3.0889,3.0889,3.0889,3.0889,3.0889,3.0889,3.0889,3.0889,3.0889,3.0889,3.0889,3.0889,3.0889,3.0889,3.0889,3.0801,3.0439,3.0361,3.0234,2.9805,2.9717,2.958,2.915,2.8643,2.8047,2.7295,0.0,2.5332,2.5234,2.5312,2.5537,2.5937,2.6699,2.7207,2.7295,2.7314,2.7314,2.7314,2.7314,2.75,2.793,2.7959,2.834,2.9189,2.9541,2.9922,3.0351,3.0713,3.0889,3.0889,3.0889,3.0889,3.0889,3.0889,3.0889,3.0889,3.0889,3.1054,3.1334,3.1383,3.1787,3.2315,3.2373,3.2487,3.2669,3.2669,3.2669,3.2669,3.2041,3.2441,3.2725,3.2744,3.3086,3.3233,3.2873,3.3092,3.3228,3.2921,3.3175,3.3355,3.3355,3.3364,3.3418,3.3418,3.3418,3.3418,3.3418,3.3359,3.3154,3.2764,3.2373,3.2148,3.2119,3.2119,3.21,3.207,3.167,3.1475,3.1465,3.1074,3.0889,3.0889,3.0889,3.0889,3.0889,3.0889,3.0889,3.0889,3.0889,3.0889,3.0889,3.0889,3.0889,3.0889,3.0889,3.0889,3.0889,3.0889,3.0889,3.0889,3.0889,3.0889,3.0889,3.0889,3.0889,3.0889,3.0889,3.0889,3.0889,3.0889,3.0889,3.0879,3.085,3.084,3.0703,3.0244,3.0156,3.0019,2.96,2.8848,2.8144,2.7748,0.0,0.0,2.5693,2.6035,2.6445,2.6875,2.7334,2.7773,2.8164,2.8203,2.8203,2.8203,2.8203,2.8379,2.8809,2.8828,2.9219,3.0078,3.0137,3.0371,3.083,3.0869,3.0889,3.0889,3.0889,3.0889,3.0889,3.0889,3.0889,3.0889,3.0889,3.1054,3.1325,3.1614,3.196,3.2305,3.2555,3.2669,3.2669,3.2669,3.2669,3.2669,3.2471,3.29,3.3184,3.3184,3.331,3.3364,3.3228,3.3301,3.3355,3.3228,3.3301,3.3418,3.3418,3.3418,3.3418,3.3418,3.3418,3.3418,3.3418,3.3418,3.335,3.3193,3.3027,3.2822,3.2559,3.2559,3.2432,3.2229,3.2002,3.1924,3.1924,3.1758,3.1543,3.1279,3.1279,3.1133,3.0889,3.0889,3.0889,3.0889,3.0889,3.0889,3.0889,3.0889,3.0889,3.0889,3.0889,3.0889,3.0889,3.0889,3.0889,3.0889,3.0889,3.0889,3.0889,3.0889,3.0889,3.0889,3.0889,3.0889,3.0889,3.0889,3.0889,3.0889,3.0889,3.0889,3.084,3.0664,3.0625,3.0488,3.0039,2.9687,2.9248,2.8555,0.0,2.7119,2.6963,2.6836,2.6943,2.7363,2.7793,2.8115,2.8281,2.8525,2.8682,2.8682,2.8935,2.916,2.9316,2.957,2.9863,3.0185,3.0478,3.0713,3.0889,3.0889,3.0889,3.0889,3.0889,3.0889,3.0889,3.0889,3.0889,3.0889,3.1054,3.1334,3.1614,3.196,3.2258,3.2555,3.2669,3.2669,3.2669,3.2669,3.2669,3.2669,3.291,3.3223,3.3418,3.3418,3.3418,3.3418,3.3418,3.3418,3.3418,3.3418,3.3418,3.3418,3.3418,3.3418,3.3418,3.3418,3.3418,3.3418,3.3418,3.3418,3.3418,3.3418,3.3418,3.3281,3.2998,3.2998,3.2851,3.2559,3.2432,3.2363,3.2363,3.2226,3.2012,3.1728,3.1728,3.1562,3.1289,3.1289,3.1289,3.1289,3.1289,3.1289,3.1289,3.1289,3.1211,3.1094,3.1094,3.1006,3.0889,3.0889,3.0889,3.0889,3.0889,3.0889,3.0889,3.0889,3.0889,3.0889,3.0889,3.0889,3.0889,3.0889,3.0889,3.0889,3.0889,3.0889,3.0889,3.0889,3.0889,3.0791,3.0478,3.0293,3.0,2.9414,2.873,2.8325,2.8325,2.8008,2.793,2.8286,2.8516,2.8691,2.8691,2.8955,2.9121,2.9121,2.9404,2.9685,2.9756,3.0176,3.042,3.042,3.0723,3.0889,3.0889,3.0889,3.0889,3.0889,3.0889,3.0889,3.0889,3.0889,3.0889,3.0889,3.116,3.1498,3.1845,3.2133,3.243,3.2669,3.2669,3.2669,3.2669,3.2669,3.2669,3.2669,3.334,3.3418,3.3418,3.3418,3.3418,3.3418,3.3418,3.3418,3.3418,3.3418,3.3418,3.3418,3.3418,3.3418,3.3418,3.3418,3.3418,3.3418,3.3418,3.3418,3.3418,3.3418,3.3418,3.3418,3.3418,3.3418,3.3418,3.3418,3.3008,3.2803,3.2793,3.2373,3.2238,3.2178,3.2178,3.2178,3.2229,3.2229,3.2229,3.2229,3.2229,3.2229,3.2229,3.2229,3.1904,3.1523,3.1523,3.126,3.0898,3.0898,3.0898,3.0898,3.0889,3.0889,3.0889,3.0889,3.0889,3.0889,3.0889,3.0889,3.0889,3.0889,3.0889,3.0889,3.0889,3.0889,3.0889,3.0889,3.0889,3.0889,3.0889,3.0518,3.0205,3.0195,2.9853,2.957,2.9626,2.9626,2.9626,2.9626,2.9626,2.9626,2.9626,2.957,2.957,2.957,2.9636,2.9766,3.0176,3.0644,3.0889,3.0889,3.0889,3.0889,3.0889,3.0889,3.0889,3.0889,3.0889,3.0889,3.0889,3.0889,3.0889,3.0889,3.1218,3.1498,3.1845,3.219,3.243,3.2669,3.2669,3.2669,3.2669,3.2669,3.2669,3.2669,3.334,3.3418,3.3418,3.3418,3.3418,3.3418,3.3418,3.3418,3.3418,3.3418,3.3418,3.3418,3.3418,3.3418,3.3418,3.3418,3.3418,3.3418,3.3418,3.3418,3.3418,3.3418,3.3418,3.3418,3.3418,3.3418,3.3418,3.3418,3.3301,3.3232,3.3232,3.3105,3.2891,3.2607,3.2607,3.2441,3.2229,3.2229,3.2229,3.2229,3.2229,3.2229,3.2229,3.2229,3.209,3.1973,3.1973,3.1894,3.1738,3.1435,3.1328,3.1279,3.0986,3.0889,3.0889,3.0889,3.0889,3.0889,3.0889,3.0889,3.0889,3.0889,3.0889,3.0889,3.0889,3.0889,3.0889,3.0889,3.0889,3.0889,3.0889,3.0781,3.0576,3.0244,3.0098,2.9902,2.9665,2.9626,2.9626,2.9626,2.9626,2.9626,2.9626,2.9834,3.001,3.001,3.0312,3.0547,3.0674,3.081,3.0889,3.0889,3.0889,3.0889,3.0889,3.0889,3.0889,3.0889,3.0889,3.0889,3.0889,3.0889,3.0995,3.1218,3.1498,3.1845,3.219,3.243,3.2612,3.2669,3.2669,3.2669,3.2669,3.2669,3.2669,3.2669,3.3369,3.3418,3.3418,3.3418,3.3418,3.3418,3.3418,3.3418,3.3418,3.3418,3.3418,3.3418,3.3418,3.3418,3.3418,3.3418,3.3418,3.3418,3.3418,3.3418,3.3418,3.3418,3.3418,3.3418,3.3418,3.3418,3.3418,3.3418,3.3418,3.3418,3.3418,3.3418,3.3281,3.3047,3.3047,3.29,3.2666,3.2666,3.2666,3.2666,3.2666,3.2666,3.2666,3.2666,3.2559,3.2422,3.2422,3.2314,3.219,3.1865,3.166,3.1475,3.1221,3.1025,3.0889,3.0889,3.0889,3.0889,3.0889,3.0889,3.0889,3.0889,3.0889,3.0889,3.0889,3.0889,3.0889,3.0889,3.0889,3.0889,3.0889,3.0889,3.0801,3.0518,3.0469,3.0381,3.0127,3.0088,3.0088,3.0088,3.0088,3.0088,3.0088,3.0322,3.0469,3.0469,3.0732,3.0889,3.0889,3.0889,3.0889,3.0889,3.0889,3.0889,3.0889,3.0889,3.0889,3.0889,3.0889,3.0889,3.0889,3.1005,3.117,3.1325,3.1787,3.2133,3.2305,3.2612,3.2669,3.2669,3.2669,3.2669,3.2669,3.2669,3.2669,3.2784,3.3418,3.3418,3.3418,3.3418,3.3418,3.3418,3.3418,3.3418,3.3418,3.3418,3.3418,3.3418,3.3418,3.3418,3.3418,3.3418,3.3418,3.3418,3.3418,3.3418,3.3418,3.3418,3.3418,3.3418,3.3418,3.3418,3.3418,3.3418,3.3418,3.3418,3.3418,3.3418,3.3418,3.3418,3.3418,3.3418,3.3418,3.3418,3.3418,3.3418,3.3418,3.3418,3.3418,3.3418,3.3184,3.2851,3.2851,3.2607,3.2275,3.2297,3.1934,3.1572,3.1572,3.1318,3.0996,3.0957,3.0947,3.0937,3.0898,3.0889,3.0889,3.0889,3.0889,3.0889,3.0889,3.0889,3.0889,3.0889,3.0889,3.0889,3.0889,3.0889,3.0889,3.0889,3.0889,3.0889,3.0889,3.0889,3.0889,3.0889,3.0889,3.0889,3.0889,3.0889,3.0889,3.0889,3.0889,3.0889,3.0889,3.0889,3.0889,3.0889,3.0889,3.0889,3.0889,3.0889,3.0889,3.0889,3.0889,3.0889,3.0947,3.1218,3.1325,3.1441,3.2018,3.2305,3.2363,3.2612,3.2669,3.2669,3.2669,3.2669,3.2669,3.2669,3.2669,3.2898,3.3418,3.3418,3.3418,3.3418,3.3418,3.3418,3.3418,3.3418,3.3418,3.3418,3.3418,3.3418,3.3418,3.3418,3.3418,3.3418,3.3418,3.3418,3.3418,3.3418,3.3418,3.3418,3.3418,3.3418,3.3418,3.3418,3.3418,3.3418,3.3418,3.3418,3.3418,3.3418,3.3418,3.3418,3.3418,3.3418,3.3418,3.3418,3.3418,3.3418,3.3418,3.3418,3.3418,3.3418,3.3369,3.3281,3.3281,3.3223,3.3096,3.2773,3.2373,3.2031,3.2031,3.1963,3.1826,3.1484,3.1377,3.1309,3.0986,3.0889,3.0889,3.0889,3.0889,3.0889,3.0889,3.0889,3.0889,3.0889,3.0889,3.0889,3.0889,3.0889,3.0889,3.0889,3.0889,3.0889,3.0889,3.0889,3.0889,3.0889,3.0889,3.0889,3.0889,3.0889,3.0889,3.0889,3.0889,3.0889,3.0889,3.0889,3.0889,3.0889,3.0889,3.0889,3.0889,3.0889,3.0889,3.0889,3.0889,3.1005,3.1218,3.1267,3.1614,3.2076,3.2248,3.243,3.2612,3.2669,3.2669,3.2669,3.2669,3.2669,3.2669,3.2669,3.2669,3.3001,3.3418,3.3418,3.3418,3.3418,3.3418,3.3418,3.3418,3.3418,3.3418,3.3418,3.3418,3.3418,3.3418,3.3418,3.3418,3.3418,3.3418,3.3418,3.3418,3.3418,3.3418,3.3418,3.3418,3.3418,3.3418,3.3418,3.3418,3.3418,3.3418,3.3418,3.3418,3.3418,3.3418,3.3418,3.3418,3.3418,3.3418,3.3418,3.3418,3.3418,3.3418,3.3418,3.3418,3.3418,3.3418,3.3418,3.3418,3.3418,3.3389,3.3164,3.2812,3.2471,3.2471,3.2324,3.2119,3.1894,3.168,3.1475,3.125,3.1045,3.0889,3.0889,3.0889,3.0889,3.0889,3.0889,3.0889,3.0889,3.0889,3.0889,3.0889,3.0889,3.0889,3.0889,3.0889,3.0889,3.0889,3.0889,3.0889,3.0889,3.0889,3.0889,3.0889,3.0889,3.0889,3.0889,3.0889,3.0889,3.0889,3.0889,3.0889,3.0889,3.0889,3.0889,3.0889,3.1054,3.1112,3.1112,3.1112,3.1276,3.1556,3.1672,3.196,3.2315,3.243,3.2555,3.2669,3.2669,3.2669,3.2669,3.2669,3.3058,3.3547,3.3547,3.4256,3.5344,3.3418,3.3418,3.3418,3.3418,3.3418,3.3418,3.3418,3.3418,3.3418,3.3418,3.3418,3.3418,3.3418,3.3418,3.3418,3.3418,3.3418,3.3418,3.3418,3.3418,3.3418,3.3418,3.3418,3.3418,3.3418,3.3418,3.3418,3.3418,3.3418,3.3418,3.3418,3.3418,3.3418,3.3418,3.3418,3.3418,3.3418,3.3418,3.3418,3.3418,3.3418,3.3418,3.3418,3.3418,3.3418,3.3418,3.3418,3.3418,3.3418,3.3418,3.3193,3.29,3.29,3.2666,3.2363,3.2295,3.2021,3.1699,3.1562,3.126,3.0986,3.0908,3.0889,3.0889,3.0889,3.0889,3.0889,3.0889,3.0889,3.0889,3.0889,3.0889,3.0889,3.0889,3.0889,3.0889,3.0889,3.0889,3.0889,3.0889,3.0889,3.0889,3.0889,3.0889,3.0889,3.0889,3.0889,3.0889,3.0889,3.0889,3.0947,3.0947,3.0947,3.0947,3.1064,3.1218,3.1392,3.1441,3.1441,3.1614,3.1903,3.219,3.2315,3.2373,3.2612,3.2669,3.2669,3.2669,3.2669,3.2669,3.2669,3.3445,3.4536,3.4747,3.61,3.7897,3.3418,3.3418,3.3418,3.3418,3.3418,3.3418,3.3418,3.3418,3.3418,3.3418,3.3418,3.3418,3.3418,3.3418,3.3418,3.3418,3.3418,3.3418,3.3418,3.3418,3.3418,3.3418,3.3418,3.3418,3.3418,3.3418,3.3418,3.3418,3.3418,3.3418,3.3418,3.3418,3.3418,3.3418,3.3418,3.3418,3.3418,3.3418,3.3418,3.3418,3.3418,3.3418,3.3418,3.3418,3.3418,3.3418,3.3418,3.3418,3.3418,3.3418,3.3379,3.334,3.334,3.3301,3.3184,3.2822,3.2666,3.2461,3.1719,3.1475,3.1348,3.0986,3.0889,3.0889,3.0889,3.0889,3.0889,3.0889,3.0889,3.0889,3.0889,3.0889,3.0889,3.0889,3.0889,3.0889,3.0889,3.0889,3.0889,3.0889,3.0889,3.0889,3.0889,3.0889,3.0889,3.0889,3.0889,3.0889,3.0889,3.0889,3.1005,3.1218,3.0995,3.117,3.1672,3.145,3.1614,3.2133,3.2133,3.219,3.2248,3.2305,3.243,3.2669,3.2669,3.2669,3.2669,3.2669,3.2669,3.2669,3.2669,3.3445,3.4636,3.5597,3.6792,3.7897,3.3418,3.3418,3.3418,3.3418,3.3418,3.3418,3.3418,3.3418,3.3418,3.3418,3.3418,3.3418,3.3418,3.3418,3.3418,3.3418,3.3418,3.3418,3.3418,3.3418,3.3418,3.3418,3.3418,3.3418,3.3418,3.3418,3.3418,3.3418,3.3418,3.3418,3.3418,3.3418,3.3418,3.3418,3.3418,3.3418,3.3418,3.3418,3.3418,3.3418,3.3418,3.3418,3.3418,3.3418,3.3418,3.3418,3.3418,3.3418,3.3418,3.3418,3.3418,3.3418,3.3418,3.3418,3.3389,3.3203,3.2978,3.2715,3.2334,3.1885,3.1475,3.1289,3.1064,3.0889,3.0889,3.0889,3.0889,3.0889,3.0889,3.0889,3.0889,3.0889,3.0889,3.0889,3.0889,3.0889,3.0889,3.0889,3.0889,3.0889,3.0889,3.0889,3.0889,3.0889,3.0889,3.0889,3.0889,3.0889,3.0889,3.1054,3.116,3.1325,3.1392,3.1508,3.1787,3.1845,3.2018,3.2305,3.243,3.2487,3.2487,3.2487,3.2612,3.2669,3.2669,3.2669,3.2669,3.2669,3.2669,3.2784,3.3434,3.4803,3.6534,3.7725,3.8489,3.8921]}]]